[[{"header":{"parameterUnit":"m.s-1","parameterCategory":1,"la1":31.0,"la2":29.5877,"lo1":-88.7671,"lo2":-86.6584,"dy":0.0162,"dx":0.0185,"nx":115,"ny":88,"refTime":"2024-07-04T06:00:00:Z","depth":0,"parameterNumber":2,"parameterNumberName":"U-component_of_WINDS"},"data":[0.0,0.0,0.0,0.0,0.0,0.0,0.0,0.0,0.0,0.0,0.0,0.0,0.0,0.0,0.0,0.0,0.0,0.0,0.0,0.0,0.0,0.0,0.0,0.0,0.0,0.0,0.0,0.0,0.0,0.0,0.0,0.0,0.0,0.0,0.0,0.0,0.0,0.0,0.0,0.0,0.0,0.0,0.0,0.0,0.0,0.0,0.0,0.0,0.0,0.0,0.0,0.0,0.0,0.0,0.0,0.0,0.0,0.0,0.0,0.0,0.0,0.0,0.0,0.0,0.0,0.0,0.0,0.0,0.0,0.0,0.0,0.0,0.0,0.0,0.0,0.0,0.0,0.0,0.0,0.0,0.0,0.0,0.0,0.0,0.0,0.0,0.0,0.0,0.0,0.0,0.0,0.0,0.0,0.0,0.0,0.0,0.0,0.0,0.0,0.0,0.0,0.0,0.0,0.0,0.0,0.0,0.0,0.0,0.0,0.0,0.0,0.0,0.0,0.0,0.0,0.0,0.0,0.0,0.0,0.0,0.0,0.0,0.0,0.0,0.0,0.0,0.0,0.0,0.0,0.0,0.0,0.0,0.0,0.0,0.0,0.0,0.0,0.0,0.0,0.0,0.0,0.0,0.0,0.0,0.0,0.0,0.0,0.0,0.0,0.0,0.0,0.0,0.0,0.0,0.0,0.0,0.0,0.0,0.0,0.0,0.0,0.0,0.0,0.0,0.0,0.0,0.0,0.0,0.0,0.0,0.0,0.0,0.0,0.0,0.0,0.0,0.0,0.0,0.0,0.0,0.0,0.0,0.0,0.0,0.0,0.0,0.0,0.0,0.0,0.0,0.0,0.0,0.0,0.0,0.0,0.0,0.0,0.0,0.0,0.0,0.0,0.0,0.0,0.0,0.0,0.0,0.0,0.0,0.0,0.0,0.0,0.0,0.0,0.0,0.0,0.0,0.0,0.0,0.0,0.0,0.0,0.0,0.0,0.0,0.0,0.0,0.0,0.0,0.0,0.0,0.0,0.0,0.0,0.0,0.0,0.0,0.0,0.0,0.0,0.0,0.0,0.0,0.0,0.0,0.0,0.0,0.0,0.0,0.0,0.0,0.0,0.0,0.0,0.0,0.0,0.0,0.0,0.0,0.0,0.0,0.0,0.0,0.0,0.0,0.0,0.0,0.0,0.0,0.0,0.0,0.0,0.0,0.0,0.0,0.0,0.0,0.0,0.0,0.0,0.0,0.0,0.0,0.0,0.0,0.0,0.0,0.0,0.0,0.0,0.0,0.0,0.0,0.0,0.0,0.0,0.0,0.0,0.0,0.0,0.0,0.0,0.0,0.0,0.0,0.0,0.0,0.0,0.0,0.0,0.0,0.0,0.0,0.0,0.0,0.0,0.0,0.0,0.0,0.0,0.0,0.0,0.0,0.0,0.0,0.0,0.0,0.0,0.0,0.0,0.0,0.0,0.0,0.0,0.0,0.0,0.0,0.0,0.0,0.0,0.0,0.0,0.0,0.0,0.0,0.0,0.0,0.0,0.0,0.0,0.0,0.0,0.0,0.0,0.0,0.0,0.0,0.0,0.0,0.0,0.0,0.0,0.0,0.0,0.0,0.0,0.0,0.0,0.0,0.0,0.0,0.0,0.0,0.0,0.0,0.0,0.0,0.0,0.0,0.0,0.0,0.0,0.0,0.0,0.0,0.0,0.0,0.0,0.0,0.0,0.0,0.0,0.0,0.0,0.0,0.0,0.0,0.0,0.0,0.0,0.0,0.0,0.0,0.0,0.0,0.0,0.0,0.0,0.0,0.0,0.0,0.0,0.0,0.0,0.0,0.0,0.0,0.0,0.0,0.0,0.0,0.0,0.0,0.0,0.0,0.0,0.0,0.0,0.0,0.0,0.0,0.0,0.0,0.0,0.0,0.0,0.0,0.0,0.0,0.0,0.0,0.0,0.0,0.0,0.0,0.0,0.0,0.0,0.0,0.0,0.0,0.0,0.0,0.0,0.0,0.0,0.0,0.0,0.0,0.0,0.0,0.0,0.0,0.0,0.0,0.0,0.0,0.0,0.0,0.0,0.0,0.0,0.0,0.0,0.0,0.0,0.0,0.0,0.0,0.0,0.0,0.0,0.0,0.0,0.0,0.0,0.0,0.0,0.0,0.0,0.0,0.0,0.0,0.0,0.0,0.0,0.0,0.0,0.0,0.0,0.0,0.0,0.0,0.0,0.0,0.0,0.0,0.0,0.0,0.0,0.0,0.0,0.0,0.0,0.0,0.0,0.0,0.0,0.0,0.0,0.0,0.0,0.0,0.0,0.0,0.0,0.0,0.0,0.0,0.0,0.0,0.0,0.0,0.0,0.0,0.0,0.0,0.0,0.0,0.0,0.0,0.0,0.0,0.0,0.0,0.0,0.0,0.0,0.0,0.0,0.0,0.0,0.0,0.0,0.0,0.0,0.0,0.0,0.0,0.0,0.0,0.0,0.0,0.0,0.0,0.0,0.0,0.0,0.0,0.0,0.0,0.0,0.0,0.0,0.0,0.0,0.0,0.0,0.0,0.0,0.0,0.0,0.0,0.0,0.0,0.0,0.0,0.0,0.0,0.0,0.0,0.0,0.0,0.0,0.0,0.0,0.0,0.0,0.0,0.0,0.0,0.0,0.0,0.0,0.0,0.0,0.0,0.0,0.0,0.0,0.0,0.0,0.0,0.0,0.0,0.0,0.0,0.0,0.0,0.0,0.0,0.0,0.0,0.0,0.0,0.0,0.0,0.0,0.0,0.0,0.0,0.0,0.0,0.0,0.0,0.0,0.0,0.0,0.0,0.0,0.0,0.0,0.0,0.0,0.0,0.0,0.0,0.0,0.0,0.0,0.0,0.0,0.0,0.0,0.0,0.0,0.0,0.0,0.0,0.0,0.0,0.0,0.0,0.0,0.0,0.0,0.0,0.0,0.0,0.0,0.0,0.0,0.0,0.0,0.0,0.0,0.0,0.0,0.0,0.0,0.0,0.0,0.0,0.0,0.0,0.0,0.0,0.0,0.0,0.0,0.0,0.0,0.0,0.0,0.0,0.0,0.0,0.0,0.0,0.0,0.0,0.0,0.0,0.0,0.0,0.0,0.0,0.0,0.0,0.0,0.0,0.0,0.0,0.0,0.0,0.0,0.0,0.0,0.0,0.0,0.0,0.0,0.0,0.0,0.0,0.0,0.0,0.0,0.0,0.0,0.0,0.0,0.0,0.0,0.0,0.0,0.0,0.0,0.0,0.0,0.0,0.0,0.0,0.0,0.0,0.0,0.0,0.0,0.0,0.0,0.0,0.0,0.0,0.0,0.0,0.0,0.0,0.0,0.0,0.0,0.0,0.0,0.0,0.0,0.0,0.0,0.0,0.0,0.0,0.0,0.0,0.0,0.0,0.0,0.0,0.0,0.0,0.0,0.0,0.0,0.0,0.0,0.0,0.0,0.0,0.0,0.0,0.0,0.0,0.0,0.0,0.0,0.0,0.0,0.0,0.0,0.0,0.0,0.0,0.0,0.0,0.0,0.0,0.0,0.0,0.0,0.0,0.0,0.0,0.0,0.0,0.0,0.0,0.0,0.0,0.0,0.0,0.0,0.0,0.0,0.0,0.0,0.0,0.0,0.0,0.0,0.0,0.0,0.0,0.0,0.0,0.0,0.0,0.0,0.0,0.0,0.0,0.0,0.0,0.0,0.0,0.0,0.0,0.0,0.0,0.0,0.0,0.0,0.0,0.0,0.0,0.0,0.0,0.0,0.0,0.0,0.0,0.0,0.0,0.0,0.0,0.0,0.0,0.0,0.0,0.0,0.0,0.0,0.0,0.0,0.0,0.0,0.0,0.0,0.0,0.0,0.0,0.0,0.0,0.0,0.0,0.0,0.0,0.0,0.0,0.0,0.0,0.0,0.0,0.0,0.0,0.0,0.0,0.0,0.0,0.0,0.0,0.0,0.0,0.0,0.0,0.0,0.0,0.0,0.0,0.0,0.0,0.0,0.0,0.0,0.0,0.0,0.0,0.0,0.0,0.0,0.0,0.0,0.0,0.0,0.0,0.0,0.0,0.0,0.0,0.0,0.0,0.0,0.0,0.0,0.0,0.0,0.0,0.0,0.0,0.0,0.0,0.0,0.0,0.0,0.0,0.0,0.0,0.0,0.0,0.0,0.0,0.0,0.0,0.0,0.0,0.0,0.0,0.0,0.0,0.0,0.0,0.0,0.0,0.0,0.0,0.0,0.0,0.0,0.0,0.0,0.0,-1.1002,0.0,0.0,0.0,0.0,0.0,0.0,0.0,0.0,0.0,0.0,0.0,0.0,0.0,0.0,0.0,0.0,0.0,0.0,0.0,0.0,0.0,0.0,0.0,0.0,0.0,0.0,0.0,0.0,0.0,0.0,0.0,0.0,0.0,0.0,0.0,0.0,0.0,0.0,0.0,0.0,0.0,0.0,0.0,0.0,0.0,0.0,0.0,0.0,0.0,0.0,0.0,0.0,0.0,0.0,0.0,0.0,0.0,0.0,0.0,0.0,0.0,0.0,0.0,0.0,0.0,0.0,0.0,0.0,0.0,0.0,0.0,0.0,0.0,0.0,0.0,0.0,0.0,0.0,0.0,0.0,0.0,0.0,0.0,0.0,0.0,0.0,0.0,0.0,0.0,0.0,0.0,0.0,0.0,0.0,0.0,0.0,0.0,0.0,0.0,0.0,0.0,0.0,0.0,0.0,0.0,0.0,0.0,0.0,0.0,0.0,-1.4372,-1.4003,-1.283,-1.2022,-1.1665,0.0,0.0,0.0,0.0,0.0,0.0,0.0,0.0,0.0,0.0,0.0,0.0,0.0,0.0,0.0,0.0,0.0,0.0,0.0,0.0,0.0,0.0,0.0,0.0,0.0,0.0,0.0,0.0,0.0,0.0,0.0,0.0,0.0,0.0,0.0,0.0,0.0,0.0,0.0,0.0,0.0,0.0,0.0,0.0,0.0,0.0,0.0,0.0,0.0,0.0,0.0,0.0,0.0,0.0,0.0,0.0,0.0,0.0,0.0,0.0,0.0,0.0,0.0,0.0,0.0,0.0,0.0,0.0,0.0,0.0,0.0,0.0,0.0,0.0,0.0,0.0,0.0,0.0,0.0,0.0,0.0,0.0,0.0,0.0,0.0,0.0,0.0,0.0,0.0,0.0,0.0,0.0,0.0,0.0,0.0,0.0,0.0,0.0,0.0,0.0,0.0,0.0,0.0,0.0,0.0,0.0,0.0,0.0,0.0,0.0,0.0,0.0,-1.359,-1.2816,-1.247,0.0,0.0,0.0,0.0,0.0,0.0,0.0,0.0,0.0,0.0,0.0,0.0,0.0,0.0,0.0,0.0,0.0,0.0,0.0,0.0,0.0,0.0,0.0,0.0,0.0,0.0,0.0,0.0,0.0,0.0,0.0,0.0,0.0,0.0,0.0,0.0,0.0,0.0,0.0,0.0,0.0,0.0,0.0,0.0,0.0,0.0,0.0,0.0,0.0,0.0,0.0,0.0,0.0,0.0,0.0,0.0,0.0,0.0,0.0,0.0,0.0,0.0,0.0,0.0,0.0,0.0,0.0,0.0,0.0,0.0,0.0,0.0,0.0,0.0,0.0,0.0,0.0,0.0,0.0,0.0,0.0,0.0,0.0,0.0,0.0,0.0,0.0,0.0,0.0,0.0,0.0,0.0,0.0,0.0,0.0,0.0,0.0,0.0,0.0,0.0,0.0,0.0,0.0,0.0,0.0,0.0,0.0,0.0,0.0,0.0,-1.4619,-1.5191,-1.533,0.0,-1.3454,0.0,0.0,0.0,0.0,0.0,0.0,0.0,0.0,0.0,0.0,0.0,0.0,0.0,0.0,0.0,0.0,0.0,0.0,0.0,0.0,0.0,0.0,0.0,0.0,0.0,0.0,0.0,0.0,0.0,0.0,0.0,0.0,0.0,0.0,0.0,0.0,0.0,0.0,0.0,0.0,0.0,0.0,0.0,0.0,0.0,0.0,0.0,0.0,0.0,0.0,0.0,0.0,0.0,0.0,0.0,0.0,0.0,0.0,0.0,0.0,0.0,0.0,0.0,0.0,0.0,0.0,0.0,0.0,0.0,0.0,0.0,0.0,0.0,0.0,0.0,0.0,0.0,0.0,0.0,0.0,0.0,0.0,0.0,0.0,0.0,0.0,0.0,0.0,0.0,0.0,0.0,0.0,0.0,0.0,0.0,0.0,0.0,0.0,0.0,0.0,0.0,0.0,0.0,0.0,0.0,0.0,0.0,0.0,0.0,0.0,0.0,-1.5872,-1.52,-1.4302,0.0,0.0,0.0,0.0,0.0,0.0,0.0,0.0,0.0,0.0,0.0,0.0,0.0,0.0,0.0,0.0,0.0,0.0,0.0,0.0,0.0,0.0,0.0,0.0,0.0,0.0,0.0,0.0,0.0,0.0,0.0,0.0,0.0,0.0,0.0,0.0,0.0,0.0,0.0,0.0,0.0,0.0,0.0,0.0,0.0,0.0,0.0,0.0,0.0,0.0,0.0,0.0,0.0,0.0,0.0,0.0,0.0,0.0,0.0,0.0,0.0,0.0,0.0,0.0,0.0,0.0,0.0,0.0,0.0,0.0,0.0,0.0,0.0,0.0,0.0,0.0,0.0,0.0,0.0,0.0,0.0,0.0,0.0,0.0,0.0,0.0,0.0,0.0,0.0,0.0,0.0,0.0,0.0,0.0,0.0,0.0,0.0,0.0,0.0,0.0,0.0,0.0,0.0,0.0,0.0,0.0,0.0,0.0,0.0,0.0,-1.5815,0.0,-1.6572,-1.5453,-1.4268,-1.3076,0.0,0.0,0.0,0.0,0.0,0.0,0.0,0.0,0.0,0.0,0.0,0.0,0.0,0.0,0.0,0.0,0.0,0.0,0.0,0.0,0.0,0.0,0.0,0.0,0.0,0.0,0.0,0.0,0.0,0.0,0.0,0.0,0.0,0.0,0.0,0.0,0.0,0.0,0.0,0.0,0.0,0.0,0.0,0.0,0.0,0.0,0.0,0.0,0.0,0.0,0.0,0.0,0.0,0.0,0.0,0.0,0.0,0.0,0.0,0.0,0.0,0.0,0.0,0.0,0.0,0.0,0.0,0.0,0.0,0.0,0.0,0.0,0.0,0.0,0.0,0.0,0.0,0.0,0.0,0.0,0.0,0.0,0.0,0.0,0.0,0.0,0.0,0.0,0.0,0.0,0.0,0.0,0.0,0.0,0.0,0.0,0.0,0.0,0.0,0.0,0.0,0.0,0.0,0.0,0.0,0.0,0.0,0.0,0.0,-1.6733,-1.6579,-1.7521,-1.6743,-1.5325,0.0,0.0,0.0,0.0,0.0,0.0,0.0,0.0,0.0,0.0,0.0,0.0,0.0,0.0,0.0,0.0,0.0,0.0,0.0,0.0,0.0,0.0,0.0,0.0,0.0,0.0,0.0,0.0,0.0,0.0,0.0,0.0,0.0,0.0,0.0,0.0,0.0,0.0,0.0,0.0,0.0,0.0,0.0,0.0,0.0,0.0,0.0,0.0,0.0,0.0,0.0,0.0,0.0,0.0,0.0,0.0,0.0,0.0,0.0,0.0,0.0,0.0,0.0,0.0,0.0,0.0,0.0,0.0,0.0,0.0,0.0,0.0,0.0,0.0,0.0,0.0,0.0,0.0,0.0,0.0,0.0,0.0,0.0,0.0,0.0,0.0,0.0,0.0,0.0,0.0,0.0,0.0,0.0,0.0,0.0,0.0,0.0,0.0,0.0,0.0,0.0,0.0,0.0,0.0,0.0,0.0,0.0,0.0,0.0,-1.5219,-1.5713,-1.7068,0.0,-1.6396,-1.4816,0.0,0.0,0.0,0.0,0.0,0.0,0.0,0.0,0.0,0.0,0.0,0.0,0.0,0.0,0.0,0.0,0.0,0.0,0.0,0.0,0.0,0.0,0.0,0.0,0.0,0.0,0.0,0.0,0.0,0.0,0.0,0.0,0.0,0.0,0.0,0.0,0.0,0.0,0.0,0.0,0.0,0.0,0.0,0.0,0.0,0.0,0.0,0.0,0.0,0.0,0.0,0.0,0.0,0.0,0.0,0.0,0.0,0.0,0.0,0.0,0.0,0.0,0.0,0.0,0.0,0.0,0.0,0.0,0.0,0.0,0.0,0.0,0.0,0.0,0.0,0.0,0.0,0.0,0.0,0.0,0.0,0.0,0.0,0.0,0.0,0.0,0.0,0.0,0.0,0.0,0.0,0.0,0.0,0.0,0.0,0.0,0.0,0.0,0.0,0.0,0.0,0.0,0.0,0.0,0.0,0.0,0.0,0.0,0.0,-1.5081,0.0,-1.7742,0.0,-1.6172,-1.4392,0.0,0.0,0.0,0.0,0.0,0.0,0.0,0.0,0.0,0.0,0.0,0.0,0.0,0.0,0.0,0.0,0.0,0.0,0.0,0.0,0.0,0.0,0.0,0.0,0.0,0.0,0.0,0.0,0.0,0.0,0.0,0.0,0.0,0.0,0.0,0.0,0.0,0.0,0.0,0.0,0.0,0.0,0.0,0.0,0.0,0.0,0.0,0.0,0.0,0.0,0.0,0.0,0.0,0.0,0.0,0.0,0.0,0.0,0.0,0.0,0.0,0.0,0.0,0.0,0.0,0.0,0.0,0.0,0.0,0.0,0.0,0.0,0.0,0.0,0.0,0.0,0.0,0.0,0.0,0.0,0.0,0.0,0.0,0.0,0.0,0.0,0.0,0.0,0.0,0.0,0.0,0.0,0.0,0.0,0.0,0.0,0.0,0.0,0.0,0.0,0.0,0.0,0.0,0.0,0.0,0.0,0.0,0.0,-1.5124,-1.7976,-1.8803,-1.8534,-1.7112,-1.6295,-1.4182,0.0,0.0,0.0,0.0,0.0,0.0,0.0,0.0,0.0,0.0,0.0,0.0,0.0,0.0,0.0,0.0,0.0,0.0,0.0,0.0,0.0,0.0,0.0,0.0,0.0,0.0,0.0,0.0,0.0,0.0,0.0,0.0,0.0,0.0,0.0,0.0,0.0,0.0,0.0,0.0,0.0,0.0,0.0,0.0,0.0,0.0,0.0,0.0,0.0,0.0,0.0,0.0,0.0,0.0,0.0,0.0,0.0,0.0,0.0,0.0,0.0,0.0,0.0,0.0,0.0,0.0,0.0,0.0,0.0,0.0,0.0,0.0,0.0,0.0,0.0,0.0,0.0,0.0,0.0,0.0,0.0,0.0,0.0,0.0,0.0,0.0,0.0,0.0,0.0,0.0,0.0,0.0,0.0,0.0,0.0,0.0,0.0,0.0,0.0,0.0,0.0,0.0,0.0,0.0,0.0,0.0,0.0,0.0,0.0,-1.6566,-1.7852,-1.8781,-1.9173,-1.6588,-1.4839,0.0,0.0,0.0,0.0,0.0,0.0,0.0,0.0,0.0,0.0,0.0,0.0,0.0,0.0,0.0,0.0,0.0,0.0,0.0,0.0,0.0,0.0,0.0,0.0,0.0,0.0,0.0,0.0,0.0,0.0,0.0,0.0,0.0,0.0,0.0,0.0,0.0,0.0,0.0,0.0,0.0,0.0,0.0,0.0,0.0,0.0,0.0,0.0,0.0,0.0,0.0,0.0,0.0,0.0,0.0,0.0,0.0,0.0,0.0,0.0,0.0,0.0,0.0,0.0,0.0,0.0,0.0,0.0,0.0,0.0,0.0,0.0,0.0,0.0,0.0,0.0,0.0,0.0,0.0,0.0,0.0,0.0,0.0,0.0,0.0,0.0,0.0,0.0,0.0,0.0,0.0,0.0,0.0,0.0,0.0,0.0,0.0,0.0,0.0,0.0,0.0,0.0,0.0,0.0,0.0,0.0,0.0,0.0,0.0,-1.7891,-1.9378,-2.0362,-2.071,-1.7941,-1.614,-1.5469,0.0,0.0,0.0,0.0,0.0,0.0,0.0,0.0,0.0,0.0,0.0,0.0,0.0,0.0,0.0,0.0,0.0,0.0,0.0,0.0,0.0,0.0,0.0,0.0,0.0,0.0,0.0,0.0,0.0,0.0,0.0,0.0,0.0,0.0,0.0,0.0,0.0,0.0,0.0,0.0,0.0,0.0,0.0,0.0,0.0,0.0,0.0,0.0,0.0,0.0,0.0,0.0,0.0,0.0,0.0,0.0,0.0,0.0,0.0,0.0,0.0,0.0,0.0,0.0,0.0,0.0,0.0,0.0,0.0,0.0,0.0,0.0,0.0,0.0,0.0,0.0,0.0,0.0,0.0,0.0,0.0,0.0,0.0,0.0,0.0,0.0,0.0,0.0,0.0,0.0,0.0,0.0,0.0,0.0,0.0,0.0,0.0,0.0,0.0,0.0,0.0,0.0,0.0,0.0,0.0,0.0,0.0,0.0,-2.126,-2.2855,-2.2993,-2.1541,-2.0029,-1.7896,0.0,0.0,0.0,0.0,0.0,0.0,0.0,0.0,0.0,0.0,0.0,0.0,0.0,0.0,0.0,0.0,0.0,0.0,0.0,0.0,0.0,0.0,0.0,0.0,0.0,0.0,0.0,0.0,0.0,0.0,0.0,0.0,0.0,0.0,0.0,0.0,0.0,0.0,0.0,0.0,0.0,0.0,0.0,0.0,0.0,0.0,0.0,0.0,0.0,0.0,0.0,0.0,0.0,0.0,0.0,0.0,0.0,0.0,0.0,0.0,0.0,0.0,0.0,0.0,0.0,0.0,0.0,0.0,0.0,0.0,0.0,0.0,0.0,0.0,0.0,0.0,0.0,0.0,0.0,0.0,0.0,0.0,0.0,0.0,0.0,0.0,0.0,0.0,0.0,0.0,0.0,0.0,0.0,0.0,0.0,0.0,0.0,0.0,0.0,0.0,0.0,0.0,0.0,0.0,0.0,0.0,0.0,0.0,0.0,-2.2003,-2.403,-2.4414,-2.2974,-2.1054,-1.8858,0.0,0.0,0.0,0.0,0.0,0.0,0.0,0.0,0.0,0.0,0.0,0.0,0.0,0.0,0.0,0.0,0.0,0.0,0.0,0.0,0.0,0.0,0.0,0.0,0.0,0.0,0.0,0.0,0.0,0.0,0.0,0.0,0.0,0.0,0.0,0.0,0.0,0.0,0.0,0.0,0.0,0.0,0.0,0.0,0.0,0.0,0.0,0.0,0.0,0.0,0.0,0.0,0.0,0.0,0.0,0.0,0.0,0.0,0.0,0.0,0.0,0.0,0.0,0.0,0.0,0.0,0.0,0.0,0.0,0.0,0.0,0.0,0.0,0.0,0.0,0.0,0.0,0.0,0.0,0.0,0.0,0.0,0.0,0.0,0.0,0.0,0.0,0.0,0.0,0.0,0.0,0.0,0.0,0.0,0.0,0.0,0.0,0.0,0.0,0.0,0.0,0.0,0.0,0.0,0.0,0.0,0.0,0.0,-2.1576,-2.3648,-2.5236,-2.5659,-2.4859,-2.309,-2.0951,0.0,0.0,0.0,0.0,0.0,0.0,0.0,0.0,0.0,0.0,0.0,0.0,0.0,0.0,0.0,0.0,0.0,0.0,0.0,0.0,0.0,0.0,0.0,0.0,0.0,0.0,0.0,0.0,0.0,0.0,0.0,0.0,0.0,0.0,0.0,0.0,0.0,0.0,0.0,0.0,0.0,0.0,0.0,0.0,0.0,0.0,0.0,0.0,0.0,0.0,0.0,0.0,0.0,0.0,0.0,0.0,0.0,0.0,0.0,0.0,0.0,0.0,0.0,0.0,0.0,0.0,0.0,0.0,0.0,0.0,0.0,0.0,0.0,0.0,0.0,0.0,0.0,0.0,0.0,0.0,0.0,0.0,0.0,0.0,0.0,0.0,0.0,0.0,0.0,0.0,0.0,0.0,0.0,0.0,0.0,0.0,0.0,0.0,0.0,0.0,0.0,0.0,0.0,0.0,0.0,0.0,0.0,0.0,-2.2793,-2.5524,-2.6319,-2.6725,-2.6776,-2.5363,-2.3235,0.0,0.0,0.0,0.0,0.0,0.0,0.0,0.0,0.0,0.0,0.0,0.0,0.0,0.0,0.0,0.0,0.0,0.0,0.0,0.0,0.0,0.0,0.0,0.0,0.0,0.0,0.0,0.0,0.0,0.0,0.0,0.0,0.0,0.0,0.0,0.0,0.0,0.0,0.0,0.0,0.0,0.0,0.0,0.0,0.0,0.0,0.0,0.0,0.0,0.0,0.0,0.0,0.0,0.0,0.0,0.0,0.0,0.0,0.0,0.0,0.0,0.0,0.0,0.0,0.0,0.0,0.0,0.0,0.0,0.0,0.0,0.0,0.0,0.0,0.0,0.0,0.0,0.0,0.0,0.0,0.0,0.0,0.0,0.0,0.0,0.0,0.0,0.0,0.0,0.0,0.0,0.0,0.0,0.0,0.0,0.0,0.0,0.0,0.0,0.0,0.0,0.0,0.0,0.0,0.0,0.0,0.0,0.0,-2.3812,-2.5621,-2.6352,-2.6979,-2.7536,-2.5095,-2.2637,0.0,0.0,0.0,0.0,0.0,0.0,0.0,0.0,0.0,0.0,0.0,0.0,0.0,0.0,0.0,0.0,0.0,0.0,0.0,0.0,0.0,0.0,0.0,0.0,0.0,0.0,0.0,0.0,0.0,0.0,0.0,0.0,0.0,0.0,0.0,0.0,0.0,0.0,0.0,0.0,0.0,0.0,0.0,0.0,0.0,0.0,0.0,0.0,-1.2731,0.0,0.0,0.0,0.0,0.0,0.0,0.0,0.0,0.0,0.0,0.0,0.0,0.0,0.0,0.0,0.0,0.0,0.0,0.0,0.0,0.0,0.0,0.0,0.0,0.0,0.0,0.0,0.0,0.0,0.0,0.0,0.0,0.0,0.0,0.0,0.0,0.0,0.0,0.0,0.0,0.0,0.0,0.0,0.0,0.0,0.0,0.0,0.0,0.0,0.0,0.0,0.0,0.0,0.0,0.0,0.0,0.0,0.0,0.0,-2.435,-2.608,-2.6505,-2.7097,-2.7776,-2.5382,-2.3136,0.0,0.0,0.0,0.0,0.0,0.0,0.0,0.0,0.0,0.0,0.0,0.0,0.0,0.0,0.0,0.0,0.0,0.0,0.0,0.0,0.0,0.0,0.0,0.0,0.0,0.0,0.0,0.0,0.0,0.0,0.0,0.0,0.0,0.0,0.0,0.0,0.0,0.0,0.0,0.0,0.0,0.0,0.0,0.0,0.0,0.0,0.0,0.0,0.0,0.0,0.0,0.0,0.0,0.0,0.0,0.0,0.0,0.0,0.0,0.0,0.0,0.0,0.0,0.0,0.0,0.0,0.0,0.0,0.0,0.0,0.0,0.0,0.0,0.0,0.0,0.0,0.0,0.0,0.0,0.0,0.0,0.0,0.0,0.0,0.0,0.0,0.0,0.0,0.0,0.0,0.0,0.0,0.0,0.0,0.0,0.0,0.0,0.0,0.0,0.0,0.0,0.0,0.0,0.0,0.0,0.0,0.0,-2.2173,-2.4603,-2.6792,-2.6776,-2.7114,-2.7947,-2.5789,-2.3901,-2.2467,0.0,0.0,0.0,0.0,0.0,0.0,0.0,0.0,0.0,0.0,0.0,0.0,0.0,0.0,0.0,0.0,0.0,0.0,0.0,0.0,0.0,0.0,0.0,0.0,0.0,0.0,0.0,0.0,0.0,0.0,0.0,0.0,0.0,0.0,0.0,0.0,0.0,0.0,-1.097,-1.2835,0.0,0.0,0.0,0.0,0.0,0.0,0.0,0.0,-1.4742,0.0,0.0,0.0,0.0,0.0,0.0,0.0,0.0,0.0,0.0,0.0,0.0,0.0,0.0,0.0,0.0,0.0,0.0,0.0,0.0,0.0,0.0,0.0,0.0,0.0,0.0,0.0,0.0,0.0,0.0,0.0,0.0,0.0,0.0,0.0,0.0,0.0,0.0,0.0,0.0,0.0,0.0,0.0,0.0,0.0,0.0,0.0,0.0,0.0,0.0,0.0,0.0,0.0,0.0,0.0,0.0,-2.2843,-2.324,-2.4842,-2.7674,-2.708,-2.7114,-2.7913,-2.5789,-2.3964,-2.2535,0.0,0.0,0.0,0.0,0.0,0.0,0.0,0.0,0.0,0.0,0.0,0.0,0.0,0.0,0.0,0.0,0.0,0.0,0.0,0.0,0.0,0.0,0.0,0.0,0.0,0.0,0.0,0.0,0.0,0.0,0.0,0.0,0.0,0.0,0.0,0.0,0.0,0.0,0.0,-1.4664,-1.5816,0.0,0.0,0.0,0.0,0.0,0.0,0.0,0.0,-1.4529,0.0,0.0,0.0,0.0,0.0,0.0,0.0,0.0,0.0,0.0,0.0,0.0,0.0,0.0,0.0,0.0,0.0,0.0,0.0,0.0,0.0,0.0,0.0,0.0,0.0,0.0,0.0,0.0,0.0,0.0,0.0,0.0,0.0,0.0,0.0,0.0,0.0,0.0,0.0,0.0,0.0,0.0,0.0,0.0,0.0,0.0,0.0,0.0,0.0,0.0,0.0,0.0,0.0,0.0,0.0,-2.2235,-2.3478,-2.5096,-2.7216,-2.6911,-2.6928,-2.7351,-2.4883,-2.3221,0.0,0.0,0.0,0.0,0.0,0.0,0.0,0.0,0.0,0.0,0.0,0.0,0.0,0.0,0.0,0.0,0.0,0.0,0.0,0.0,0.0,0.0,0.0,0.0,0.0,0.0,0.0,0.0,0.0,0.0,0.0,0.0,0.0,0.0,0.0,0.0,0.0,0.0,0.0,0.0,-1.557,-1.6606,-1.7039,0.0,0.0,0.0,0.0,0.0,0.0,-1.6264,-1.5664,0.0,0.0,0.0,0.0,0.0,0.0,0.0,0.0,0.0,0.0,0.0,0.0,0.0,0.0,0.0,0.0,0.0,0.0,0.0,0.0,0.0,0.0,0.0,0.0,0.0,0.0,0.0,0.0,0.0,0.0,0.0,0.0,0.0,0.0,0.0,0.0,0.0,0.0,0.0,0.0,0.0,0.0,0.0,0.0,0.0,0.0,0.0,0.0,0.0,0.0,0.0,0.0,0.0,0.0,0.0,-2.1409,-2.3379,-2.5163,-2.6657,-2.6725,-2.6792,-2.6875,-2.4317,-2.2754,0.0,0.0,0.0,0.0,0.0,0.0,0.0,0.0,0.0,0.0,0.0,0.0,0.0,0.0,0.0,0.0,0.0,0.0,0.0,0.0,0.0,0.0,0.0,0.0,0.0,0.0,0.0,0.0,0.0,0.0,0.0,0.0,0.0,0.0,0.0,0.0,0.0,0.0,0.0,0.0,0.0,-1.7574,-1.8261,-1.7595,0.0,0.0,0.0,0.0,-1.7983,-1.7484,0.0,0.0,0.0,0.0,0.0,0.0,0.0,0.0,0.0,0.0,0.0,0.0,0.0,0.0,0.0,0.0,0.0,0.0,0.0,0.0,0.0,0.0,0.0,0.0,0.0,0.0,0.0,0.0,0.0,0.0,0.0,0.0,0.0,0.0,0.0,0.0,0.0,0.0,0.0,0.0,0.0,0.0,0.0,0.0,0.0,0.0,0.0,0.0,0.0,0.0,0.0,0.0,0.0,0.0,0.0,0.0,-2.2218,-2.3198,-2.4713,-2.6822,-2.6926,-2.6926,-2.6957,-2.5276,-2.3468,0.0,0.0,0.0,0.0,0.0,0.0,0.0,0.0,0.0,0.0,0.0,0.0,0.0,0.0,0.0,0.0,0.0,0.0,0.0,0.0,0.0,0.0,0.0,0.0,0.0,0.0,0.0,0.0,0.0,0.0,0.0,0.0,0.0,0.0,0.0,0.0,0.0,0.0,0.0,0.0,0.0,-1.9451,-1.7857,-1.81,-1.8473,0.0,0.0,0.0,-1.9357,-1.8456,0.0,0.0,0.0,0.0,0.0,0.0,0.0,0.0,0.0,0.0,0.0,0.0,0.0,0.0,0.0,0.0,0.0,0.0,0.0,0.0,0.0,0.0,0.0,0.0,0.0,0.0,0.0,0.0,0.0,0.0,0.0,0.0,0.0,0.0,0.0,0.0,0.0,0.0,0.0,0.0,0.0,0.0,0.0,0.0,0.0,0.0,0.0,0.0,0.0,0.0,0.0,0.0,0.0,0.0,0.0,-1.866,-2.2334,-2.3602,-2.5053,-2.674,-2.6809,-2.6622,-2.6262,-2.4373,-2.2542,0.0,0.0,0.0,0.0,0.0,0.0,0.0,0.0,0.0,0.0,0.0,0.0,0.0,0.0,0.0,0.0,0.0,0.0,0.0,0.0,0.0,0.0,0.0,0.0,0.0,0.0,0.0,0.0,0.0,0.0,0.0,0.0,0.0,0.0,0.0,0.0,0.0,0.0,0.0,0.0,0.0,0.0,-1.9217,-1.9186,0.0,0.0,0.0,-1.9137,-2.0194,0.0,0.0,0.0,0.0,0.0,0.0,0.0,0.0,0.0,0.0,0.0,0.0,0.0,0.0,0.0,0.0,0.0,0.0,0.0,0.0,0.0,0.0,0.0,0.0,0.0,0.0,0.0,0.0,0.0,0.0,0.0,0.0,0.0,0.0,0.0,0.0,0.0,0.0,0.0,0.0,0.0,0.0,0.0,0.0,0.0,0.0,0.0,0.0,0.0,0.0,0.0,0.0,0.0,0.0,0.0,0.0,0.0,-2.2337,-2.3908,-2.5361,-2.6724,-2.6758,-2.6419,-2.5688,-2.3898,0.0,0.0,0.0,0.0,0.0,0.0,0.0,0.0,0.0,0.0,0.0,0.0,0.0,0.0,0.0,0.0,0.0,0.0,0.0,0.0,0.0,0.0,0.0,0.0,0.0,0.0,0.0,-0.8729,0.0,0.0,0.0,0.0,0.0,0.0,0.0,0.0,0.0,0.0,0.0,0.0,0.0,0.0,-1.9028,-2.0088,-1.9949,-1.9984,0.0,0.0,-2.0049,-2.0667,-2.0351,-1.972,0.0,0.0,0.0,0.0,0.0,0.0,0.0,0.0,0.0,0.0,0.0,0.0,0.0,0.0,0.0,0.0,0.0,0.0,0.0,0.0,0.0,0.0,0.0,0.0,0.0,0.0,0.0,0.0,0.0,0.0,0.0,0.0,0.0,0.0,0.0,0.0,0.0,0.0,0.0,0.0,0.0,0.0,0.0,0.0,0.0,0.0,0.0,0.0,0.0,0.0,0.0,0.0,0.0,0.0,0.0,-2.2296,-2.3847,-2.5375,-2.6923,-2.6926,-2.6502,-2.5705,-2.489,-2.2765,0.0,0.0,0.0,0.0,0.0,0.0,0.0,0.0,0.0,0.0,0.0,0.0,0.0,0.0,0.0,0.0,0.0,0.0,0.0,0.0,0.0,0.0,0.0,0.0,0.0,0.0,0.0,0.0,0.0,0.0,0.0,0.0,0.0,0.0,0.0,0.0,0.0,0.0,0.0,0.0,0.0,-1.9353,-1.9462,-2.0024,-2.0448,0.0,0.0,-2.0514,-2.0677,-2.0678,-2.0192,-1.8915,0.0,0.0,0.0,0.0,0.0,0.0,0.0,0.0,0.0,0.0,0.0,0.0,0.0,0.0,0.0,0.0,0.0,0.0,0.0,0.0,0.0,0.0,0.0,0.0,0.0,0.0,0.0,0.0,0.0,0.0,0.0,0.0,0.0,0.0,0.0,0.0,0.0,0.0,0.0,0.0,0.0,0.0,0.0,0.0,0.0,0.0,0.0,0.0,0.0,0.0,0.0,0.0,0.0,-1.8625,-2.2337,-2.3877,-2.5391,-2.6874,-2.6926,-2.6568,-2.5834,-2.504,-2.3071,0.0,0.0,0.0,0.0,0.0,0.0,0.0,0.0,0.0,0.0,0.0,0.0,0.0,0.0,0.0,0.0,0.0,0.0,0.0,0.0,0.0,0.0,0.0,0.0,0.0,0.0,0.0,0.0,-0.8377,-0.8357,-0.8611,0.0,0.0,0.0,0.0,0.0,0.0,0.0,0.0,0.0,0.0,-2.0124,-2.0578,-2.1193,0.0,0.0,-2.1773,-2.1686,-2.1382,-2.1388,-2.0982,-1.9594,-1.9152,0.0,0.0,0.0,0.0,0.0,0.0,0.0,0.0,0.0,0.0,0.0,0.0,0.0,0.0,0.0,0.0,0.0,0.0,0.0,0.0,0.0,0.0,0.0,0.0,0.0,0.0,0.0,0.0,0.0,0.0,0.0,0.0,0.0,0.0,0.0,0.0,0.0,0.0,0.0,0.0,0.0,0.0,0.0,0.0,0.0,0.0,0.0,0.0,0.0,0.0,0.0,0.0,-1.8625,-2.2346,-2.3879,-2.5375,-2.6791,-2.6842,-2.6536,-2.5851,-2.5055,-2.3334,0.0,0.0,0.0,0.0,0.0,0.0,0.0,0.0,0.0,0.0,0.0,0.0,0.0,0.0,0.0,0.0,0.0,0.0,0.0,0.0,0.0,0.0,0.0,0.0,0.0,0.0,0.0,0.0,-0.8415,-0.8366,-0.8125,0.0,0.0,0.0,0.0,0.0,0.0,0.0,0.0,0.0,0.0,-2.0568,-2.1255,-2.1911,-2.2343,-2.2487,-2.2338,-2.2082,-2.167,-2.1714,-2.1344,-1.9956,0.0,0.0,0.0,0.0,0.0,0.0,0.0,0.0,0.0,0.0,0.0,0.0,0.0,0.0,0.0,0.0,0.0,0.0,0.0,0.0,0.0,0.0,0.0,0.0,0.0,0.0,0.0,0.0,0.0,0.0,-1.4555,0.0,0.0,0.0,0.0,0.0,0.0,0.0,0.0,0.0,0.0,0.0,0.0,0.0,0.0,0.0,0.0,0.0,0.0,0.0,0.0,0.0,0.0,0.0,-2.2276,-2.3858,-2.53,-2.6657,-2.6708,-2.6402,-2.5755,-2.5053,-2.3647,-2.1413,0.0,0.0,0.0,0.0,0.0,0.0,0.0,0.0,0.0,0.0,0.0,0.0,0.0,0.0,0.0,0.0,0.0,0.0,0.0,0.0,0.0,0.0,0.0,0.0,0.0,0.0,-0.8591,-0.9012,-0.8959,0.0,0.0,0.0,0.0,0.0,0.0,0.0,0.0,0.0,0.0,-1.9423,-2.0582,-2.126,-2.1889,-2.2366,-2.2351,-2.1815,-2.1404,-2.1445,-2.1553,-2.1141,0.0,0.0,0.0,0.0,0.0,0.0,0.0,0.0,0.0,0.0,0.0,0.0,0.0,0.0,0.0,0.0,0.0,0.0,0.0,0.0,0.0,0.0,0.0,0.0,0.0,0.0,0.0,-1.9153,-1.886,0.0,0.0,0.0,0.0,0.0,0.0,0.0,0.0,0.0,0.0,0.0,-2.2935,-2.4149,0.0,0.0,0.0,0.0,0.0,0.0,0.0,0.0,0.0,0.0,0.0,0.0,-2.0276,-2.2953,-2.4554,-2.5824,-2.6808,-2.6825,-2.674,-2.6485,-2.5246,-2.3308,-2.0688,0.0,0.0,0.0,0.0,0.0,0.0,0.0,0.0,0.0,0.0,0.0,0.0,0.0,0.0,0.0,0.0,0.0,0.0,0.0,0.0,0.0,0.0,0.0,0.0,0.0,-0.9042,0.0,0.0,0.0,0.0,0.0,0.0,0.0,0.0,0.0,0.0,0.0,-1.8762,-2.0085,-2.1424,-2.2363,-2.2613,-2.3194,-2.364,0.0,0.0,0.0,0.0,0.0,0.0,0.0,0.0,0.0,0.0,0.0,0.0,0.0,0.0,-1.9799,-1.7035,-1.6344,-1.6252,-1.6421,0.0,0.0,0.0,0.0,0.0,0.0,0.0,0.0,0.0,0.0,0.0,0.0,0.0,0.0,-2.2208,0.0,-2.1356,0.0,0.0,0.0,0.0,0.0,0.0,0.0,0.0,-2.3852,-2.5149,-2.5934,-2.7128,-2.7076,0.0,-2.5612,-2.3329,0.0,0.0,0.0,0.0,0.0,0.0,0.0,0.0,-2.1424,-2.3374,-2.4958,-2.6111,-2.6791,-2.6876,-2.6876,-2.6875,-2.5381,-2.3323,-2.0747,-1.9689,-1.8381,0.0,0.0,0.0,0.0,0.0,0.0,0.0,0.0,0.0,0.0,0.0,0.0,0.0,0.0,0.0,0.0,0.0,0.0,0.0,0.0,0.0,0.0,0.0,-0.9562,0.0,0.0,0.0,0.0,0.0,0.0,0.0,0.0,0.0,-1.7915,-1.9132,-2.0505,-2.1827,-2.2732,-2.3379,-2.3609,0.0,0.0,0.0,0.0,0.0,0.0,0.0,-2.3452,-2.3011,-2.2814,-2.2707,-2.2734,-2.2697,-2.2679,-2.2734,0.0,0.0,-1.9201,-1.8321,-1.8104,-1.853,-1.8562,-1.8671,-1.9233,-1.9607,-1.9791,0.0,0.0,0.0,0.0,0.0,0.0,0.0,0.0,-2.565,-2.5595,0.0,-2.4694,0.0,0.0,0.0,0.0,0.0,0.0,0.0,0.0,-2.7725,-2.8818,-2.8237,-2.892,-2.8869,-2.8237,-2.8835,-2.793,-2.5501,-2.1392,0.0,0.0,0.0,0.0,0.0,0.0,-2.2071,-2.3492,-2.5105,-2.6194,-2.6691,-2.6842,-2.6859,-2.6757,-2.5423,-2.369,-2.167,-2.1434,-2.0413,-1.8254,-1.6628,0.0,0.0,0.0,0.0,0.0,0.0,0.0,0.0,0.0,0.0,0.0,0.0,0.0,0.0,0.0,0.0,0.0,0.0,0.0,0.0,-0.9789,0.0,0.0,0.0,0.0,0.0,0.0,0.0,0.0,0.0,0.0,-1.9595,-2.0628,-2.1889,-2.3194,0.0,0.0,0.0,0.0,-2.4625,-2.5235,-2.4789,-2.461,-2.5219,-2.5404,-2.5004,-2.3734,0.0,0.0,-2.2766,-2.2621,-2.2689,-2.2502,-2.2652,-2.2717,-2.2859,-2.1645,-2.1138,-2.2198,-2.141,-2.1142,-2.2194,-2.2183,-2.2053,-3.1198,0.0,0.0,0.0,0.0,-2.8809,-2.999,-3.1919,-3.0307,-2.9588,-2.9454,-2.8032,0.0,0.0,0.0,0.0,0.0,0.0,-2.5708,-2.6962,-2.8386,-2.9218,-2.9539,-3.0268,-3.0253,-2.9556,-2.9743,-2.8927,-2.7199,-2.5912,-2.3562,-2.031,0.0,0.0,0.0,0.0,-2.4049,-2.4966,-2.5962,-2.6538,-2.6691,-2.6742,-2.625,-2.5216,-2.479,-2.3816,-2.2208,-2.2126,-2.1343,-1.9665,-1.8103,0.0,0.0,0.0,0.0,0.0,0.0,0.0,0.0,0.0,0.0,0.0,0.0,0.0,0.0,0.0,0.0,0.0,0.0,0.0,-1.1171,-1.1491,-1.1974,0.0,0.0,0.0,0.0,0.0,0.0,0.0,0.0,0.0,-2.2825,-2.3194,-2.3763,0.0,0.0,-2.5379,-2.505,-2.5456,-2.5872,-2.6041,0.0,0.0,0.0,-2.5641,-2.5429,-2.5586,-2.5545,-2.5305,-2.4838,-2.4431,-2.4127,-2.3982,-2.3997,-2.4033,-2.3998,-2.2933,-2.2126,-2.2313,-2.2133,-2.2045,-2.2366,-2.2456,-2.2409,-3.6089,-3.3524,-3.1946,-3.1547,-3.1978,-3.1955,-3.299,-3.4644,-3.3273,-3.2766,-3.2799,-3.1468,-3.002,-2.8475,-2.7441,0.0,0.0,0.0,-2.8467,-2.9634,-3.0378,-3.0987,-3.141,-3.1562,-3.141,-3.097,-3.0683,-3.0057,-2.9161,-2.8855,-2.7232,-2.4355,0.0,0.0,-2.3424,-2.4423,-2.5287,-2.6015,-2.6538,-2.6758,-2.6708,-2.6708,-2.5997,-2.4606,-2.4506,-2.3844,-2.2459,-2.2363,-2.1956,-2.1096,-1.9576,-1.7861,0.0,0.0,0.0,0.0,0.0,0.0,0.0,0.0,0.0,0.0,0.0,-1.2003,-1.0157,0.0,0.0,0.0,-1.0509,-1.1542,-1.3247,-1.3867,0.0,0.0,0.0,0.0,0.0,0.0,0.0,-2.1766,-2.344,-2.4671,-2.5056,-2.5349,-2.5687,-2.6087,-2.6287,-2.6334,-2.6142,0.0,-2.6488,-2.6749,-2.6765,-2.6819,-2.708,-2.6788,-2.6618,-2.6825,-2.6401,-2.5907,-2.5579,-2.5212,-2.4891,-2.4565,-2.4487,-2.4487,-2.4544,-2.3785,-2.3149,-2.3165,-2.2987,-2.2914,-2.3107,-2.3184,-2.3138,-4.0166,-3.9152,-3.5512,-3.393,-3.3931,-3.4618,-3.4957,-3.5056,-3.5016,-3.5199,-3.5457,-3.4668,-3.3487,-3.1929,-3.0221,0.0,0.0,-3.1172,-3.1698,-3.2412,-3.3085,-3.3389,-3.3355,-3.2696,-3.2344,-3.2276,-3.1633,-3.1241,-3.114,-3.0514,-2.9854,-2.9145,-2.7029,-2.6234,-2.6725,-2.6184,-2.6201,-2.6894,-2.6944,-2.6877,-2.6708,-2.6708,-2.603,-2.4652,-2.4538,-2.3827,-2.2479,-2.2338,-2.2338,-2.2326,-2.0933,-1.9464,-1.8087,0.0,0.0,0.0,0.0,0.0,0.0,0.0,0.0,0.0,0.0,0.0,0.0,0.0,0.0,0.0,-1.3047,0.0,-1.5316,-1.6548,0.0,0.0,0.0,-2.0088,-2.1473,-2.2701,-2.3717,-2.4394,0.0,0.0,0.0,0.0,-2.7488,-2.7473,-2.6957,-2.6772,-2.7319,-2.6919,-2.678,-2.738,-2.7473,-2.7688,-2.8165,-2.8242,-2.8042,-2.755,-2.6919,-2.6301,-2.5703,-2.5484,-2.5185,-2.4692,-2.4487,-2.4513,-2.4586,-2.4441,-2.44,-2.441,-2.392,-2.3652,-2.4076,-2.4215,-2.4045,-4.0963,-4.0166,-3.9189,-3.8154,-3.7064,-3.6739,-3.6903,-3.7316,-3.6799,-3.6588,-3.657,-3.5776,-3.4879,-3.3893,-3.3469,-3.3061,-3.273,-3.2818,-3.2983,-3.3136,-3.3322,-3.3389,-3.3389,-3.322,-3.2852,-3.231,-3.2124,-3.1752,-3.1207,-3.1021,-3.0852,-3.0615,-2.9567,-2.8534,-2.7587,-2.796,-2.8282,-2.8451,-2.7876,-2.73,-2.6725,-2.6708,-2.6014,-2.4557,-2.4571,-2.3844,-2.2406,-2.2366,-2.2366,-2.2307,-2.1427,-2.0496,-1.9585,-1.6743,0.0,0.0,0.0,0.0,0.0,0.0,0.0,0.0,0.0,-1.5868,-1.2514,0.0,-1.6024,0.0,-1.4341,-1.547,-1.73,-1.7792,0.0,0.0,-2.1488,-2.2301,-2.4148,-2.4641,-2.5102,-2.581,-2.6626,-2.7149,-2.7149,-2.7734,-2.8165,-2.8165,-2.8027,-2.7796,-2.7473,-2.7734,-2.798,-2.8119,-2.8134,-2.8211,-2.8365,-2.8411,-2.8365,-2.8196,-2.7666,-2.7164,-2.6957,-2.6592,-2.6255,-2.5894,-2.5923,-2.5759,-2.5222,-2.5072,-2.4872,-2.4482,-2.4282,-2.424,-2.4292,-2.4359,-2.4374,-4.1977,-4.1542,-4.1198,-4.0546,-3.9695,-3.9,-3.8893,-3.917,-3.8786,-3.8286,-3.7683,-3.6524,-3.5785,-3.5364,-3.5149,-3.4799,-3.4387,-3.4387,-3.4366,-3.4366,-3.4366,-3.4366,-3.4366,-3.4049,-3.3677,-3.3275,-3.2953,-3.2408,-3.1735,-3.1701,-3.1512,-3.119,-3.0784,-3.0159,-2.9328,-2.9093,-2.9162,-2.9465,-2.8365,-2.7604,-2.7198,-2.686,-2.5997,-2.4575,-2.4538,-2.3846,-2.2364,-2.2338,-2.2338,-2.2296,-2.1904,-2.1343,-2.0577,-1.8347,-1.6542,0.0,0.0,0.0,0.0,0.0,0.0,0.0,0.0,0.0,0.0,0.0,-1.759,0.0,-1.6899,0.0,-2.0283,-2.0727,-2.1775,-2.3887,-2.4138,-2.4671,-2.6103,-2.6219,-2.6518,-2.7196,-2.7611,-2.7842,-2.7857,-2.8165,-2.8411,-2.8411,-2.8411,-2.8258,-2.7965,-2.8196,-2.8411,-2.8411,-2.8411,-2.8411,-2.8411,-2.8411,-2.8411,-2.8381,-2.8136,-2.7781,-2.7442,-2.718,-2.687,-2.6449,-2.6409,-2.6346,-2.5938,-2.5817,-2.5663,-2.5361,-2.5028,-2.4734,-2.4364,-2.4359,-2.438,-4.2919,-4.2828,-4.2158,-4.1831,-4.1795,-4.1107,-4.0691,-4.0492,-4.0492,-3.9824,-3.861,-3.7216,-3.6492,-3.628,-3.5871,-3.565,-3.5616,-3.5616,-3.5616,-3.5616,-3.5616,-3.5616,-3.5583,-3.4945,-3.459,-3.4472,-3.3846,-3.3169,-3.2446,-3.2361,-3.1972,-3.136,-3.1241,-3.119,-3.114,-2.9924,-2.955,-3.0072,-2.877,-2.7993,-2.779,-2.7182,-2.6082,-2.4609,-2.4508,-2.3814,-2.2381,-2.231,-2.231,-2.2313,-2.2313,-2.2023,-2.136,-1.9887,-1.8724,0.0,-1.6644,0.0,0.0,0.0,0.0,0.0,0.0,0.0,0.0,-1.8589,-1.9077,-1.8869,-1.9962,-2.1473,-2.3379,-2.4087,-2.4995,-2.6356,-2.6541,-2.6803,-2.7411,-2.7534,-2.775,-2.835,-2.8411,-2.8411,-2.8381,-2.8411,-2.8411,-2.8411,-2.8411,-2.8381,-2.8396,-2.8396,-2.8411,-2.8411,-2.8411,-2.8411,-2.8411,-2.8411,-2.8411,-2.8411,-2.8381,-2.8196,-2.7642,-2.755,-2.7334,-2.6864,-2.6749,-2.6702,-2.6631,-2.6555,-2.6517,-2.6377,-2.5854,-2.5241,-2.4635,-2.4379,-2.4281,-4.2919,-4.2882,-4.2719,-4.2665,-4.2647,-4.2502,-4.1705,-4.0492,-4.0492,-3.9824,-3.8683,-3.8389,-3.7516,-3.6339,-3.6216,-3.5958,-3.5616,-3.5616,-3.5616,-3.5616,-3.5616,-3.5616,-3.56,-3.5447,-3.5081,-3.4506,-3.4336,-3.3914,-3.3169,-3.2598,-3.2226,-3.2073,-3.1478,-3.119,-3.1173,0.0,0.0,0.0,-2.982,-2.9058,-2.7858,-2.7672,-2.659,-2.4592,-2.4538,0.0,-2.2412,-2.2335,-2.2366,-2.231,-2.2313,0.0,0.0,0.0,0.0,0.0,0.0,0.0,0.0,0.0,0.0,0.0,-2.1215,-2.0764,-1.953,-2.0744,-2.1806,-2.2286,-2.2578,-2.3332,-2.4773,-2.5019,-2.5687,-2.7011,-2.7234,-2.7473,-2.8119,-2.8211,-2.8288,-2.8381,-2.8411,-2.8411,-2.8427,-2.8411,-2.8427,-2.8488,-2.8411,-2.8411,-2.8442,-2.8442,-2.8411,-2.8411,-2.8411,-2.8411,-2.8411,-2.8411,-2.8411,-2.8411,-2.8411,-2.835,-2.8211,-2.8181,-2.8196,-2.7965,-2.8042,-2.7811,-2.7327,-2.7196,-2.7065,-2.6548,-2.6257,-2.5911,-2.5256,-2.4666,-2.4281,-4.2919,0.0,-4.2919,-4.2919,0.0,-4.2919,-4.2429,-4.1687,-4.1687,-4.0995,-3.9786,-3.8979,-3.7952,-3.6831,-3.6632,-3.6202,-3.5616,-3.5616,-3.5616,-3.5616,-3.5616,-3.5616,-3.5616,-3.5616,-3.5397,-3.5047,-3.5064,-3.4658,-3.3947,-3.3563,-3.3021,-3.2293,-3.1938,-3.1565,-3.1207,-3.119,-3.1021,-3.0649,-3.0294,-2.9738,-2.8995,-2.8267,-2.7182,-2.574,0.0,0.0,0.0,0.0,0.0,0.0,0.0,0.0,0.0,0.0,0.0,-2.1143,-2.1123,-2.1092,-2.1143,-2.1803,-2.2404,-2.2807,-2.2976,-2.2477,-2.1139,-2.2415,-2.3425,-2.3779,-2.441,-2.5241,-2.6211,-2.6349,-2.6765,-2.775,-2.7904,-2.8042,-2.8334,-2.8411,-2.8411,-2.8411,-2.8411,-2.8504,-2.8858,-2.8879,-2.9058,-2.9325,-2.9371,-2.9381,-2.9294,-2.8812,-2.8411,-2.8411,-2.8411,-2.8411,-2.8411,-2.8411,-2.8411,-2.8411,-2.8411,-2.8411,-2.8411,-2.8411,-2.8411,-2.8411,-2.8411,-2.8273,-2.8011,-2.7888,-2.7796,-2.7442,-2.7088,-2.6803,-2.6401,-2.5561,-2.4773,-4.2919,-4.2919,-4.2919,-4.2919,-4.2919,-4.2919,-4.2919,-4.2919,0.0,0.0,0.0,-3.9563,-3.8364,-3.7417,-3.7058,-3.6441,-3.5616,-3.5616,-3.5616,-3.5616,-3.5616,-3.5616,-3.5616,-3.5616,-3.5616,-3.5616,-3.5616,-3.5295,-3.4692,-3.4556,-3.3901,-3.2767,-3.2446,-3.1938,-3.1241,-3.119,-3.119,-3.1157,-3.0615,-3.0264,-3.0153,-2.9,-2.7878,-2.6893,-2.6345,-2.529,-2.3661,-2.3655,-2.3364,-2.2733,-2.2685,-2.2682,-2.2702,-2.3257,-2.3596,-2.3613,-2.4152,-2.4508,-2.4508,-2.4626,-2.4606,-2.4363,-2.4243,-2.3787,-2.2875,-2.384,-2.4594,-2.4825,-2.5903,-2.6826,-2.7503,-2.758,-2.7796,-2.835,-2.8411,-2.8396,-2.8411,-2.8411,-2.8458,-2.855,-2.8627,-2.8842,-2.9489,-2.9581,-2.9756,-3.0248,-3.0279,-3.0402,-3.0248,-2.9341,-2.8581,-2.8442,-2.8411,-2.8411,-2.8411,-2.8411,-2.8411,-2.8411,-2.8411,-2.8411,-2.8411,-2.8411,-2.8411,-2.8411,-2.8411,-2.8396,-2.8396,-2.835,-2.8411,-2.8411,-2.7965,-2.7612,-2.7597,-2.6655,-2.5703,-4.2919,-4.2919,-4.2919,-4.2919,-4.2919,-4.2919,-4.2919,-4.2919,-4.2919,-4.2203,-4.1076,-4.0831,-3.9532,-3.7465,-3.7417,-3.6759,-3.5639,-3.5616,-3.5616,0.0,-3.5616,-3.5616,-3.5616,-3.5616,-3.5616,-3.5616,-3.5616,-3.5532,-3.538,-3.481,-3.4353,-3.4032,-3.2936,-3.1955,-3.1258,-3.119,-3.119,-3.119,-3.1106,-3.0734,-3.0144,-2.9924,-2.8824,-2.686,-2.664,-2.5861,-2.4438,-2.4371,-2.4303,-2.4186,-2.4186,-2.4186,-2.4203,-2.4271,-2.4338,-2.4355,-2.444,-2.4508,-2.4525,-2.5067,-2.5664,-2.6067,-2.5803,-2.5388,-2.4945,-2.5035,-2.565,-2.6795,-2.7119,-2.7534,-2.8165,-2.8242,-2.8258,-2.8396,-2.8411,-2.8411,-2.8411,-2.8442,-2.8642,-2.9125,-2.9248,-2.9494,-3.0109,-3.0263,-3.0294,-3.0402,-3.0602,-3.0448,-3.0356,-2.974,-2.9048,-2.8565,-2.8411,-2.8411,-2.8473,-2.8411,-2.8411,-2.8411,-2.8411,-2.8411,-2.8411,-2.8411,-2.8411,-2.8411,-2.8411,-2.8411,-2.8411,-2.8411,-2.8411,-2.8396,-2.8242,-2.822,-2.8213,-2.7596,-2.6956,-4.2919,-4.2919,-4.2919,-4.2919,-4.2919,-4.2919,-4.2919,-4.2919,-4.2919,-4.2455,-4.1698,-4.1437,-4.0486,-3.9068,-3.8391,-3.7563,-3.66,-3.5903,-3.5616,-3.5616,-3.5616,-3.5616,-3.5616,-3.5616,-3.5616,-3.5616,-3.5616,-3.5616,-3.5566,-3.5267,-3.4895,-3.4421,-3.3038,-3.2124,-3.1802,-3.1393,-3.119,-3.119,-3.119,-3.1041,-3.0743,-3.0353,-2.9454,-2.8047,-2.7675,-2.6707,-2.5152,-2.5148,-2.4945,-2.4508,-2.4508,-2.4508,-2.4508,-2.488,-2.5101,-2.5101,-2.5489,-2.5692,-2.5676,-2.6185,-2.6591,-2.6833,-2.6904,-2.7022,-2.7195,-2.6723,-2.6718,-2.7349,-2.7703,-2.8057,-2.8381,-2.8411,-2.8411,-2.8411,-2.8411,-2.8411,-2.8458,-2.8765,-2.9089,-2.9371,-2.971,-3.0186,-3.0859,-3.0936,-3.112,-3.1382,-3.1474,-3.1366,-3.1012,-3.0705,-3.0258,-2.9617,-2.9196,-2.8981,-2.8935,-2.8587,-2.8442,-2.8411,-2.8411,-2.8411,-2.8411,-2.8411,-2.8411,-2.8411,-2.8411,-2.8411,-2.8411,-2.8411,-2.8411,-2.8411,-2.8411,-2.842,-2.8431,-2.8301,-2.7829,-4.2901,-4.2938,-4.2919,-4.2919,-4.2919,-4.2919,-4.2919,-4.2919,-4.2919,-4.2692,-4.2338,-4.1973,-4.1297,-4.034,-3.9421,-3.8476,-3.7509,-3.6395,-3.5893,-3.5859,-3.5684,-3.5616,-3.5616,-3.5616,-3.5616,-3.5616,-3.5616,-3.5616,-3.5616,-3.5616,-3.5211,-3.4455,-3.3359,-3.2632,-3.2293,-3.1735,-3.136,-3.1207,-3.119,-3.1213,-3.1257,-3.0713,-3.0068,-2.9339,-2.8662,-2.7607,-2.6201,-2.5996,-2.5639,-2.5049,-2.4982,-2.4998,-2.5015,-2.5524,-2.5845,-2.5896,-2.6387,-2.6776,-2.6962,-2.7285,-2.7545,-2.7692,-2.7892,-2.8248,-2.8721,-2.821,-2.7783,-2.7837,-2.816,-2.8396,-2.8436,-2.8517,-2.8541,-2.842,-2.8501,-2.8597,-2.8635,-2.9153,-2.9723,-2.9953,-3.0468,-3.1057,-3.1599,-3.1678,-3.1797,-3.2213,-3.2398,-3.2151,-3.1747,-3.164,-3.1366,-3.0889,-3.0156,-2.9664,-2.9571,-2.9064,-2.8719,-2.8642,-2.8464,-2.8427,-2.8411,-2.8411,-2.8411,-2.8411,-2.8411,-2.8411,-2.8411,-2.8411,-2.8411,-2.8411,-2.8411,-2.842,-2.8501,-2.8573,-2.8389,-4.2975,-4.3049,-4.2957,-4.2919,-4.2919,-4.2919,-4.2919,-4.2919,-4.2919,-4.2882,-4.2806,-4.2769,-4.187,-4.0517,-4.0288,-3.9354,-3.7902,-3.7055,-3.6677,-3.6592,-3.5926,-3.5616,-3.5616,-3.5616,-3.5616,-3.5616,-3.5616,-3.5616,-3.5616,-3.5616,-3.5233,-3.4573,-3.4353,-3.3592,-3.2479,-3.2242,-3.187,-3.1207,-3.119,-3.1173,-3.121,-3.1142,-3.077,-3.0006,-2.9299,-2.8502,-2.7587,-2.6945,-2.6573,-2.6522,-2.6454,-2.6488,-2.6471,-2.6556,-2.659,-2.659,-2.6691,-2.6979,-2.7637,-2.8054,-2.8547,-2.9115,-2.8911,-2.8855,-2.908,-2.9009,-2.8949,-2.8887,-2.8606,-2.8444,-2.8444,-2.8795,-2.8873,-2.8597,-2.8873,-2.9044,-2.9186,-2.9682,-3.0498,-3.1572,-3.184,-3.2283,-3.2793,-3.2574,-3.2329,-3.2367,-3.2398,-3.2351,-3.2228,-3.2182,-3.2182,-3.1951,-3.114,-3.0417,-3.0248,-2.9766,-2.9325,-2.9258,-2.8796,-2.8535,-2.8458,-2.8411,-2.8411,-2.8411,-2.842,-2.842,-2.8436,-2.8411,-2.842,-2.8484,-2.846,-2.8411,-2.8436,-2.846,-2.8386,-4.3105,-4.316,-4.3087,-4.305,-4.3012,-4.2938,-4.2919,-4.2919,-4.2919,-4.2919,-4.2919,-4.2919,-4.2512,-4.1819,-4.0866,-4.001,-3.9264,-3.7598,-3.6812,-3.6728,-3.5977,-3.5616,-3.5616,-3.5616,-3.5616,-3.5616,-3.5616,-3.5616,-3.5616,-3.5616,-3.5447,-3.5109,-3.4726,-3.4189,-3.3558,-3.2733,-3.2141,-3.187,-3.143,-3.119,-3.119,-3.119,-3.0835,-3.0156,-2.9803,-2.9296,-2.8535,-2.7774,-2.7351,-2.7317,-2.6928,-2.6708,-2.6708,-2.6708,-2.6894,-2.7334,-2.7808,-2.8197,-2.8484,-2.9046,-2.9525,-2.9808,-3.0072,-3.0257,-3.0302,-3.0081,-2.993,-2.9843,-2.9257,-2.892,-2.9198,-2.9393,-2.9432,-2.936,-2.9806,-3.016,-3.016,-3.1156,-3.2088,-3.2522,-3.2974,-3.3329,-3.3508,-3.3198,-3.2761,-3.2492,-3.2425,-3.2425,-3.2425,-3.2398,-3.2398,-3.2336,-3.189,-3.1443,-3.1043,-3.0417,-2.991,-2.9479,-2.9187,-2.895,-2.8504,-2.8411,-2.8411,-2.8411,-2.8468,-2.8517,-2.8525,-2.8589,-2.8628,-2.8628,-2.8628,-2.8604,-2.8517,-2.8517,-2.8565,-4.3233,-4.3251,-4.3233,-4.3142,-4.3086,-4.3031,-4.2939,-4.2919,-4.2938,-4.2938,-4.2919,-4.2919,-4.2919,-4.2697,-4.1366,-4.0652,-4.0236,-3.8345,-3.7286,-3.7049,-3.6299,-3.5819,-3.5633,-3.5616,-3.5616,-3.5616,-3.5616,-3.5616,-3.5616,-3.5616,-3.5616,-3.5515,-3.5081,-3.4692,-3.4387,-3.3207,-3.2496,-3.2242,-3.1562,-3.119,-3.119,-3.119,-3.0937,-3.0446,-3.0209,-2.9837,-2.9313,-2.8552,-2.8128,-2.8111,-2.7604,-2.7334,-2.7317,-2.7317,-2.7571,-2.8112,-2.8873,-2.9297,-2.9297,-2.9989,-3.0393,-3.0446,-3.092,-3.1134,-3.1012,-3.0883,-3.0817,-3.0766,-3.0341,-3.0226,-3.0057,-3.0396,-3.0554,-3.0476,-3.0998,-3.1371,-3.1436,-3.253,-3.3246,-3.3423,-3.3689,-3.386,-3.3578,-3.3172,-3.2788,-3.2695,-3.2656,-3.2614,-3.2629,-3.2641,-3.2602,-3.2437,-3.2382,-3.2182,-3.1747,-3.1105,-3.0489,-3.0058,-2.9781,-2.9171,-2.8719,-2.8636,-2.8468,-2.8517,-2.8589,-2.8636,-2.866,-2.8747,-2.8794,-2.881,-2.8794,-2.8771,-2.866,-2.866,-2.8692,-4.3269,-4.3358,-4.3251,-4.316,-4.3104,-4.316,-4.3069,-4.2938,-4.303,-4.3012,-4.2919,-4.2919,-4.2919,-4.2844,-4.1845,-4.1206,-4.0659,-3.9423,-3.8454,-3.7804,-3.7043,-3.6315,-3.5633,-3.5616,-3.5616,-3.5616,-3.5616,-3.5616,-3.5616,-3.5616,-3.5616,-3.56,-3.5515,-3.5199,-3.4556,-3.3761,-3.3,-3.2378,-3.1667,-3.1207,-3.119,-3.119,-3.1173,-3.1038,-3.048,-3.0106,-2.9989,-2.9365,-2.8959,-2.8942,-2.884,-2.8824,-2.884,-2.8857,-2.8891,-2.901,-2.9651,-3.0057,-3.0142,-3.07,-3.1089,-3.1123,-3.1123,-3.1035,-3.0753,-3.1116,-3.1423,-3.1546,-3.2,-3.194,-3.1279,-3.1825,-3.2193,-3.1949,-3.2329,-3.2597,-3.2636,-3.3332,-3.3934,-3.4253,-3.4261,-3.3878,-3.2803,-3.2437,-3.2815,-3.3066,-3.3172,-3.3172,-3.3145,-3.3145,-3.2922,-3.2602,-3.2453,-3.2382,-3.2275,-3.1797,-3.1397,-3.0931,-3.0135,-2.9427,-2.9231,-2.9018,-2.8757,-2.8597,-2.8708,-2.8755,-2.8779,-2.8794,-2.8818,-2.8842,-2.8842,-2.8803,-2.8779,-2.8794,-2.8803,-4.341,-4.3445,-4.3376,-4.3305,-4.3287,-4.3233,-4.3142,-4.3087,-4.3086,-4.3086,-4.303,-4.2938,-4.2919,-4.2863,-4.2239,-4.1696,-4.1161,-4.0002,-3.9157,-3.8512,-3.7388,-3.6643,-3.6366,-3.5853,-3.5616,-3.5616,-3.5616,-3.5616,-3.5616,-3.5616,-3.5616,-3.5616,-3.5616,-3.5447,-3.5109,-3.4472,-3.3744,-3.3,-3.2273,-3.1701,-3.1258,-3.119,-3.119,-3.1173,-3.0954,-3.084,-3.0864,-3.0112,-2.9702,-2.9702,-2.9281,-2.8993,-2.9044,-2.9448,-2.9702,-2.977,-3.0395,-3.0801,-3.0835,-3.1038,-3.119,-3.119,-3.119,-3.1168,-3.1029,-3.1207,-3.1526,-3.2064,-3.2736,-3.3002,-3.3227,-3.3208,-3.3074,-3.3016,-3.3471,-3.3827,-3.3984,-3.4482,-3.502,-3.5138,-3.5067,-3.4745,-3.4061,-3.3919,-3.3853,-3.3742,-3.3716,-3.3691,-3.364,-3.3459,-3.3119,-3.2906,-3.2629,-3.2398,-3.2398,-3.2244,-3.1917,-3.1358,-3.0695,-3.0037,-2.9654,-2.918,-2.8863,-2.8723,-2.8803,-2.8881,-2.8881,-2.8928,-2.8944,-2.8967,-2.8967,-2.8905,-2.8865,-2.8881,-2.8905,-4.3479,-4.3497,-4.3445,-4.3429,-4.3394,-4.3322,-4.325,-4.3196,-4.3196,-4.3178,-4.3123,-4.3031,-4.2994,-4.2919,-4.2632,-4.2198,-4.1643,-4.0572,-3.9682,-3.8952,-3.798,-3.7269,-3.6761,-3.6248,-3.5859,-3.5633,-3.5616,-3.5616,-3.5616,-3.5616,-3.5616,-3.5616,-3.5616,-3.5616,-3.5481,-3.4878,-3.4218,-3.366,-3.2818,-3.2039,-3.1599,-3.1309,-3.121,-3.123,-3.1232,-3.1271,-3.1278,-3.0815,-3.054,-3.0436,-2.9995,-2.9722,-2.9771,-3.0176,-3.0463,-3.0514,-3.092,-3.119,-3.119,-3.119,-3.119,-3.119,-3.1207,-3.1275,-3.1515,-3.1765,-3.2276,-3.2949,-3.3677,-3.4353,-3.4607,-3.4421,-3.4117,-3.4167,-3.4573,-3.4844,-3.4878,-3.5278,-3.5442,-3.5305,-3.5253,-3.5045,-3.4673,-3.4529,-3.4407,-3.4219,-3.4136,-3.4011,-3.3919,-3.3563,-3.3119,-3.2949,-3.2614,-3.2453,-3.2425,-3.2376,-3.2302,-3.1821,-3.1299,-3.0639,-3.0039,-2.951,-2.9092,-2.8936,-2.8873,-2.8936,-2.899,-2.9052,-2.9075,-2.9114,-2.9068,-2.9006,-2.9006,-2.8967,-2.9059,-4.3479,-4.3479,-4.3479,-4.3445,-4.3411,-4.3464,-4.3375,-4.3269,-4.3359,-4.3305,-4.3214,-4.3196,-4.3142,-4.3104,-4.3012,-4.2729,-4.2077,-4.1273,-4.0253,-3.9229,-3.8928,-3.8149,-3.7009,-3.6795,-3.6265,-3.5633,-3.5616,-3.5616,-3.5616,-3.5616,-3.5616,-3.5616,-3.5616,-3.5616,-3.5583,-3.4962,-3.4539,-3.4167,-3.3139,-3.2429,-3.2209,-3.1667,-3.1331,-3.1361,-3.1346,-3.1315,-3.1332,-3.1372,-3.1321,-3.1247,-3.1193,-3.122,-3.1024,-3.1072,-3.114,-3.1106,-3.119,-3.119,-3.119,-3.119,-3.119,-3.119,-3.119,-3.1498,-3.2107,-3.2713,-3.3389,-3.4167,-3.4861,-3.543,-3.5464,-3.543,-3.538,-3.5549,-3.5447,-3.5464,-3.5532,-3.5566,-3.5407,-3.5045,-3.4998,-3.4625,-3.4235,-3.4317,-3.4512,-3.4721,-3.4456,-3.4161,-3.4136,-3.3665,-3.3029,-3.2683,-3.2508,-3.2425,-3.2468,-3.2496,-3.248,-3.2341,-3.1831,-3.1259,-3.068,-3.0133,-2.9586,-2.9352,-2.9038,-2.906,-2.9052,-2.9091,-2.9091,-2.9114,-2.9114,-2.9107,-2.9075,-2.9075,-2.9243,-4.3479,-4.3479,-4.3479,-4.3497,-4.3463,-4.3479,-4.3463,-4.3392,-4.3411,-4.3358,-4.3323,-4.3251,-4.3178,-4.316,-4.316,-4.2883,-4.2402,-4.1997,-4.131,-4.0264,-3.9421,-3.8792,-3.82,-3.7286,-3.6383,-3.5718,-3.5616,-3.5616,-3.5616,-3.5616,-3.5616,-3.5616,-3.5616,-3.5616,-3.56,-3.5346,-3.5064,-3.4489,-3.4087,-3.3592,-3.3051,-3.2344,-3.2029,-3.2077,-3.1694,-3.1464,-3.1504,-3.15,-3.1481,-3.1426,-3.1351,-3.1274,-3.123,-3.119,-3.119,-3.119,-3.119,-3.119,-3.119,-3.119,-3.119,-3.119,-3.119,-3.1546,-3.2175,-3.2564,-3.3271,-3.4286,-3.4742,-3.5013,-3.5464,-3.5616,-3.56,-3.5616,-3.5616,-3.5616,-3.5622,-3.5622,-3.5577,-3.5532,-3.5492,-3.5402,-3.5293,-3.5253,-3.5345,-3.5453,-3.5115,-3.4769,-3.4649,-3.3894,-3.3439,-3.3261,-3.2915,-3.2523,-3.2621,-3.2676,-3.2648,-3.2598,-3.2244,-3.1804,-3.1244,-3.0842,-3.0286,-2.9824,-2.9478,-2.9312,-2.9272,-2.9288,-2.9398,-2.9256,-2.9256,-2.9225,-2.9146,-2.931,-2.9623,-4.3479,-4.3479,-4.3479,-4.3479,-4.3479,-4.3479,-4.3479,-4.3497,-4.3445,-4.3446,-4.341,-4.3358,-4.3304,-4.3269,-4.3269,-4.3105,-4.2752,-4.2539,-4.2059,-4.1318,-4.0229,-3.9479,-3.8952,-3.7787,-3.6789,-3.618,-3.6045,-3.5893,-3.5616,-3.5616,-3.5616,-3.5616,-3.5616,-3.5616,-3.5616,-3.56,-3.5334,-3.4928,-3.4624,-3.4269,-3.3761,-3.3085,-3.2639,-3.2485,-3.2125,-3.181,-3.1631,-3.1596,-3.1576,-3.1538,-3.1408,-3.1329,-3.1252,-3.1232,-3.1213,-3.121,-3.119,-3.119,-3.119,-3.119,-3.119,-3.1224,-3.1444,-3.1935,-3.2598,-3.2886,-3.3694,-3.4658,-3.4962,-3.5115,-3.5498,-3.5644,-3.5667,-3.5667,-3.5622,-3.5639,-3.5644,-3.5667,-3.5689,-3.5751,-3.5817,-3.5839,-3.5839,-3.591,-3.5997,-3.5932,-3.5543,-3.5052,-3.4816,-3.407,-3.3764,-3.3435,-3.2973,-3.2773,-3.2843,-3.287,-3.2827,-3.2772,-3.2649,-3.2232,-3.1753,-3.1526,-3.1119,-3.0684,-3.0314,-3.0282,-3.0235,-3.0156,-3.0156,-2.9856,-2.9604,-2.9793,-2.9975,-3.0046,-3.022,-4.3479,-4.3479,-4.3479,-4.3479,-4.3479,-4.3479,-4.3479,-4.3479,-4.3479,-4.3497,-4.3497,-4.3462,-4.3445,-4.3411,-4.3394,-4.3323,-4.316,-4.2808,-4.2541,-4.2142,-4.127,-4.0236,-3.9105,-3.8316,-3.7499,-3.6795,-3.6711,-3.6315,-3.5633,-3.5616,-3.5616,-3.5616,-3.5616,-3.5616,-3.5616,-3.5616,-3.5583,-3.5414,-3.4912,-3.4607,-3.4544,-3.385,-3.3287,-3.2794,-3.2707,-3.2413,-3.1909,-3.1777,-3.1709,-3.1615,-3.1521,-3.1426,-3.1332,-3.1312,-3.1274,-3.121,-3.119,-3.119,-3.119,-3.1193,-3.121,-3.1244,-3.1856,-3.2615,-3.3228,-3.3872,-3.4561,-3.5413,-3.5526,-3.5577,-3.565,-3.5734,-3.58,-3.5795,-3.5734,-3.5728,-3.5817,-3.5817,-3.5839,-3.5861,-3.5927,-3.5975,-3.5883,-3.5954,-3.6019,-3.5975,-3.5594,-3.5144,-3.4704,-3.4194,-3.3543,-3.3235,-3.3081,-3.2951,-3.3005,-3.2978,-3.2962,-3.2996,-3.2924,-3.2651,-3.2264,-3.2069,-3.169,-3.1286,-3.1144,-3.1135,-3.1024,-3.0819,-3.0646,-3.0417,-3.0417,-3.067,-3.0749,-3.0709,-3.0677,-4.3479,-4.3479,-4.3479,-4.3479,-4.3479,-4.3479,-4.3479,-4.3479,-4.3479,-4.3479,-4.3479,-4.3479,-4.3497,-4.3498,-4.3463,-4.3427,-4.3357,-4.3232,-4.2939,-4.2559,-4.1969,-4.0839,-3.9698,-3.8986,-3.8041,-3.7032,-3.6931,-3.6383,-3.565,-3.569,-3.5633,-3.5616,-3.5622,-3.5639,-3.5616,-3.56,-3.5616,-3.56,-3.5447,-3.5345,-3.5292,-3.4737,-3.4385,-3.4329,-3.3822,-3.323,-3.2588,-3.2057,-3.1744,-3.1617,-3.1579,-3.1485,-3.1334,-3.1332,-3.1293,-3.123,-3.121,-3.119,-3.121,-3.1286,-3.1308,-3.1342,-3.212,-3.2788,-3.355,-3.4173,-3.4919,-3.5635,-3.58,-3.5795,-3.5866,-3.5932,-3.5954,-3.5949,-3.591,-3.5932,-3.6019,-3.6014,-3.5993,-3.6096,-3.6122,-3.6101,-3.6101,-3.6148,-3.6212,-3.6131,-3.5815,-3.5374,-3.4941,-3.439,-3.3758,-3.3601,-3.345,-3.3229,-3.3096,-3.3096,-3.3123,-3.3187,-3.3182,-3.3097,-3.2767,-3.2488,-3.1924,-3.1365,-3.1539,-3.1577,-3.134,-3.1103,-3.0986,-3.1049,-3.1144,-3.1334,-3.116,-3.1088,-3.1144,-4.3479,-4.3479,-4.3479,-4.3479,-4.3479,-4.3479,-4.3479,-4.3479,-4.3479,-4.3479,-4.3479,-4.3479,-4.3479,-4.3479,-4.3479,-4.3479,-4.3497,-4.3464,-4.3286,-4.2995,-4.2478,-4.141,-4.0239,-3.9649,-3.8909,-3.7838,-3.7709,-3.711,-3.6299,-3.6141,-3.5966,-3.5695,-3.5711,-3.5751,-3.5706,-3.5667,-3.5711,-3.5734,-3.5751,-3.5734,-3.5815,-3.5479,-3.5138,-3.5029,-3.4535,-3.4043,-3.3436,-3.299,-3.2488,-3.1915,-3.169,-3.1598,-3.143,-3.1447,-3.1389,-3.1327,-3.1308,-3.1308,-3.1395,-3.1623,-3.1847,-3.2051,-3.2781,-3.3584,-3.4188,-3.4712,-3.5426,-3.5868,-3.5893,-3.5932,-3.5975,-3.6041,-3.6084,-3.6127,-3.611,-3.6165,-3.6187,-3.6122,-3.6122,-3.6187,-3.6229,-3.6229,-3.6208,-3.6255,-3.6301,-3.6241,-3.6092,-3.5661,-3.523,-3.4601,-3.4061,-3.3841,-3.3633,-3.3361,-3.3229,-3.3229,-3.3309,-3.3346,-3.3266,-3.3256,-3.3114,-3.2846,-3.2588,-3.2155,-3.2108,-3.2029,-3.1918,-3.1855,-3.1934,-3.1981,-3.1981,-3.1887,-3.1776,-3.1776,-3.1776,-4.3479,-4.3479,-4.3479,-4.3479,-4.3479,-4.3479,-4.3479,-4.3479,-4.3479,-4.3479,-4.3479,-4.3479,-4.3479,-4.3479,-4.3479,-4.3479,-4.3479,-4.3497,-4.3445,-4.3178,-4.2713,-4.1757,-4.0597,-4.0387,-3.9766,-3.8991,-3.8986,-3.8079,-3.7068,-3.6831,-3.6435,-3.5903,-3.5905,-3.5927,-3.5839,-3.58,-3.5866,-3.5932,-3.5883,-3.5905,-3.5975,-3.5916,-3.5707,-3.5328,-3.5039,-3.4719,-3.4298,-3.3992,-3.3421,-3.211,-3.1972,-3.1829,-3.1701,-3.1632,-3.1713,-3.1773,-3.1837,-3.1905,-3.1891,-3.2454,-3.275,-3.2935,-3.3949,-3.4768,-3.4937,-3.5364,-3.5803,-3.6045,-3.6019,-3.6041,-3.6062,-3.6165,-3.6212,-3.6237,-3.628,-3.6276,-3.6229,-3.6208,-3.6208,-3.6208,-3.6255,-3.6255,-3.6272,-3.6255,-3.6284,-3.6284,-3.6178,-3.5963,-3.5571,-3.5144,-3.4464,-3.3892,-3.3668,-3.344,-3.3372,-3.3372,-3.345,-3.3503,-3.3346,-3.3282,-3.3282,-3.3156,-3.323,-3.3087,-3.2756,-3.274,-3.2898,-3.2882,-3.2787,-3.274,-3.2613,-3.2582,-3.2592,-3.2629,-3.2677,-4.3479,-4.3479,-4.3479,-4.3479,-4.3479,-4.3479,-4.3479,-4.3479,-4.3479,-4.3479,-4.3479,-4.3479,-4.3479,-4.3479,-4.3479,-4.3479,-4.3479,-4.3462,-4.3339,-4.2976,-4.2537,-4.1909,-4.1162,-4.1001,-4.0335,-3.957,-3.932,-3.8519,-3.7422,-3.7121,-3.67,-3.6085,-3.5988,-3.5975,-3.5954,-3.5971,-3.5954,-3.5997,-3.5971,-3.6036,-3.6122,-3.6144,-3.6084,-3.5893,-3.5466,-3.5159,-3.4887,-3.4407,-3.3921,-3.3524,-3.3024,-3.2504,-3.203,-3.2269,-3.2488,-3.2547,-3.2955,-3.3245,-3.3351,-3.3425,-3.3639,-3.3722,-3.4439,-3.4977,-3.5167,-3.5651,-3.6011,-3.617,-3.6208,-3.6187,-3.6195,-3.6259,-3.628,-3.6284,-3.6284,-3.628,-3.6297,-3.6276,-3.6259,-3.6259,-3.6297,-3.628,-3.6276,-3.628,-3.6284,-3.6284,-3.6241,-3.6178,-3.5881,-3.5509,-3.4934,-3.4226,-3.4018,-3.3848,-3.3607,-3.3617,-3.3771,-3.3873,-3.3704,-3.3591,-3.3591,-3.3487,-3.3565,-3.3435,-3.3245,-3.3293,-3.3293,-3.3293,-3.3098,-3.3135,-3.3229,-3.3222,-3.3268,-3.3403,-3.3523,-4.3479,-4.3479,-4.3479,-4.3479,-4.3479,-4.3479,-4.3479,-4.3479,-4.3479,-4.3479,-4.3479,-4.3479,-4.3479,-4.3479,-4.3479,-4.3479,-4.3479,-4.3479,-4.3392,-4.3178,-4.292,-4.2559,-4.2059,-4.1678,-4.1031,-4.0055,-3.9904,-3.9187,-3.8407,-3.7781,-3.7336,-3.6527,-3.6255,-3.6144,-3.6101,-3.6101,-3.6105,-3.6131,-3.6105,-3.6144,-3.6251,-3.6251,-3.6255,-3.6262,-3.5921,-3.5714,-3.5663,-3.5387,-3.4973,-3.4611,-3.4197,-3.3608,-3.2984,-3.3154,-3.3321,-3.3439,-3.3642,-3.3934,-3.3971,-3.4283,-3.4496,-3.4513,-3.516,-3.5511,-3.5725,-3.5998,-3.6135,-3.6255,-3.6276,-3.6259,-3.6284,-3.6284,-3.6284,-3.6284,-3.6284,-3.6284,-3.6284,-3.6284,-3.6284,-3.6284,-3.6284,-3.6284,-3.6284,-3.6284,-3.6284,-3.6284,-3.6284,-3.6216,-3.5854,-3.5504,-3.5253,-3.4785,-3.4545,-3.4292,-3.3924,-3.3924,-3.4134,-3.4267,-3.4325,-3.4251,-3.4243,-3.4068,-3.3892,-3.3704,-3.3487,-3.3293,-3.3293,-3.3309,-3.3503,-3.3636,-3.3732,-3.3806,-3.3933,-3.4093,-3.4202,-4.3479,-4.3479,-4.3479,-4.3479,-4.3479,-4.3479,-4.3479,-4.3479,-4.3479,-4.3479,-4.3479,-4.3479,-4.3479,-4.3479,-4.3479,-4.3479,-4.3479,-4.3479,-4.3444,-4.341,-4.3268,-4.3032,-4.2655,-4.2118,-4.1521,-4.0717,-4.0546,-4.0042,-3.9339,-3.8728,-3.7876,-3.7163,-3.6556,-3.6272,-3.6208,-3.6208,-3.6233,-3.6259,-3.6233,-3.6212,-3.6297,-3.628,-3.6301,-3.6266,-3.6232,-3.618,-3.6163,-3.6077,-3.5939,-3.5439,-3.537,-3.5045,-3.4631,-3.4283,-3.4249,-3.4266,-3.4453,-3.4642,-3.4763,-3.5039,-3.537,-3.5387,-3.5841,-3.6165,-3.6241,-3.6203,-3.6255,-3.6259,-3.6284,-3.6284,-3.6284,-3.6284,-3.6284,-3.6284,-3.6284,-3.6284,-3.6284,-3.6284,-3.6284,-3.6284,-3.6284,-3.6284,-3.6284,-3.6284,-3.6284,-3.6284,-3.6284,-3.6199,-3.5876,-3.5655,-3.5459,-3.5276,-3.5045,-3.4951,-3.4642,-3.4267,-3.4472,-3.4714,-3.4857,-3.4745,-3.4714,-3.4496,-3.4251,-3.3942,-3.3729,-3.3642,-3.3652,-3.3815,-3.3993,-3.4134,-3.4234,-3.4267,-3.4472,-3.4745,-3.4816,-4.3479,-4.3479,-4.3479,-4.3479,-4.3479,-4.3479,-4.3479,-4.3479,-4.3479,-4.3479,-4.3479,-4.3479,-4.3479,-4.3479,-4.3479,-4.3479,-4.3479,-4.3479,-4.3479,-4.3427,-4.3268,-4.3013,-4.2863,-4.2257,-4.1626,-4.1328,-4.1053,-4.0504,-3.9715,-3.8934,-3.8338,-3.7482,-3.6728,-3.6366,-3.6383,-3.628,-3.628,-3.6284,-3.628,-3.628,-3.6284,-3.6284,-3.6284,-3.6284,-3.6284,-3.6284,-3.6284,-3.6284,-3.6232,-3.6128,-3.6111,-3.6008,-3.5714,-3.5266,-3.5042,-3.5094,-3.5439,-3.5628,-3.5732,-3.5904,-3.6094,-3.6146,-3.6211,-3.6262,-3.6301,-3.628,-3.628,-3.628,-3.6284,-3.6284,-3.6284,-3.6284,-3.6284,-3.6284,-3.6284,-3.6284,-3.6284,-3.6284,-3.6284,-3.6284,-3.6284,-3.6284,-3.6284,-3.6284,-3.6284,-3.6284,-3.6284,-3.6284,-3.6135,-3.6006,-3.592,-3.5722,-3.5504,-3.5459,-3.5391,-3.4981,-3.484,-3.5184,-3.526,-3.5028,-3.4958,-3.4816,-3.4601,-3.4577,-3.4431,-3.4374,-3.4382,-3.4382,-3.4504,-3.4642,-3.469,-3.4697,-3.4981,-3.5214,-3.526,-4.3479,-4.3479,-4.3479,-4.3479,-4.3479,-4.3479,-4.3479,-4.3479,-4.3479,-4.3479,-4.3479,-4.3479,-4.3479,-4.3479,-4.3479,-4.3479,-4.3479,-4.3479,-4.3479,-4.3427,-4.3304,-4.3196,-4.316,-4.2498,-4.23,-4.2095,-4.176,-4.1103,-4.0296,-3.9543,-3.8962,-3.8474,-3.7525,-3.6922,-3.6801,-3.6508,-3.6335,-3.6301,-3.6284,-3.6284,-3.6284,-3.6284,-3.6284,-3.6284,-3.6284,-3.6284,-3.6284,-3.6284,-3.6284,-3.6266,-3.6284,-3.6284,-3.618,-3.6008,-3.5749,-3.5818,-3.6077,-3.6284,-3.6284,-3.6284,-3.6266,-3.6266,-3.6284,-3.6284,-3.6284,-3.6284,-3.6284,-3.6284,-3.6284,-3.6284,-3.6284,-3.6284,-3.6284,-3.6284,-3.6284,-3.6284,-3.6284,-3.6284,-3.6284,-3.6284,-3.6284,-3.6284,-3.6284,-3.6284,-3.6284,-3.6284,-3.6284,-3.6284,-3.6284,-3.6241,-3.6174,-3.6045,-3.581,-3.5771,-3.5771,-3.5509,-3.5283,-3.5571,-3.5705,-3.5487,-3.5425,-3.5402,-3.5509,-3.5577,-3.5419,-3.5028,-3.4793,-3.4649,-3.4887,-3.5121,-3.5207,-3.5299,-3.5487,-3.5644,-3.5666,-4.3479,-4.3479,-4.3479,-4.3479,-4.3479,-4.3479,-4.3479,-4.3479,-4.3479,-4.3479,-4.3479,-4.3479,-4.3479,-4.3479,-4.3479,-4.3479,-4.3479,-4.3479,-4.3479,-4.3479,-4.3462,-4.3479,-4.3392,-4.3142,-4.2806,-4.2653,-4.2297,-4.1842,-4.1106,-4.0231,-3.9875,-3.9356,-3.836,-3.7599,-3.7374,-3.6926,-3.6559,-3.6301,-3.6284,-3.6284,-3.6284,-3.6284,-3.6284,-3.6284,-3.6284,-3.6284,-3.6284,-3.6284,-3.6284,-3.6284,-3.6284,-3.6284,-3.6284,-3.6284,-3.6284,-3.6284,-3.6284,-3.6284,-3.6284,-3.6284,-3.6284,-3.6284,-3.6284,-3.6284,-3.6284,-3.6284,-3.6284,-3.6284,-3.6284,-3.6284,-3.6284,-3.6284,-3.6284,-3.6284,-3.6284,-3.6284,-3.6284,-3.6284,-3.6284,-3.6284,-3.6284,-3.6284,-3.6284,-3.6284,-3.6284,-3.6284,-3.6284,-3.6284,-3.6284,-3.6284,-3.622,-3.6178,-3.6071,-3.6049,-3.6006,-3.5963,-3.5837,-3.5985,-3.6071,-3.5946,-3.6032,-3.6118,-3.6178,-3.6054,-3.5815,-3.5419,-3.5168,-3.5098,-3.5419,-3.5661,-3.5722,-3.581,-3.5902,-3.5989,-3.6032,-4.3479,-4.3479,-4.3479,-4.3479,-4.3479,-4.3479,-4.3479,-4.3479,-4.3479,-4.3479,-4.3479,-4.3479,-4.3479,-4.3479,-4.3479,-4.3479,-4.3479,-4.3479,-4.3479,-4.3479,-4.3479,-4.3479,-4.3427,-4.3069,-4.2995,-4.2939,-4.2518,-4.2198,-4.1743,-4.0862,-4.0372,-4.008,-3.9136,-3.8185,-3.7668,-3.734,-3.6991,-3.6422,-3.6284,-3.6284,-3.6284,-3.6284,-3.6284,-3.6284,-3.6284,-3.6284,-3.6284,-3.6284,-3.6284,-3.6284,-3.6284,-3.6284,-3.6284,-3.6284,-3.6284,-3.6284,-3.6284,-3.6284,-3.6284,-3.6284,-3.6284,-3.6284,-3.6284,-3.6284,-3.6284,-3.6284,-3.6284,-3.6284,-3.6284,-3.6284,-3.6284,-3.6284,-3.6284,-3.6284,-3.6284,-3.6284,-3.6284,-3.6284,-3.6284,-3.6284,-3.6284,-3.6284,-3.6284,-3.6284,-3.6284,-3.6284,-3.6284,-3.6284,-3.6284,-3.6284,-3.6284,-3.622,-3.6199,-3.6178,-3.6156,-3.6114,-3.6156,-3.628,-3.6284,-3.6284,-3.6284,-3.6284,-3.6284,-3.6156,-3.5946,-3.5902,-3.5793,-3.5837,-3.6071,-3.6092,-3.6028,-3.6092,-3.622,-3.6284,-3.6284,-4.36,-4.3479,-4.3479,-4.3479,-4.3479,-4.3479,-4.3479,-4.3479,-4.3479,-4.3479,-4.3479,-4.3479,-4.3479,-4.3479,-4.3479,-4.3479,-4.3479,-4.3479,-4.3479,-4.3479,-4.3479,-4.3479,-4.3462,-4.3339,-4.3232,-4.316,-4.3032,-4.2845,-4.2336,-4.1661,-4.1042,-4.0819,-3.9849,-3.8853,-3.8134,-3.7702,-3.7064,-3.6508,-3.6284,-3.6284,-3.6284,-3.6284,-3.6284,-3.6284,-3.6284,-3.6284,-3.6284,-3.6284,-3.6284,-3.6284,-3.6284,-3.6284,-3.6284,-3.6284,-3.6284,-3.6284,-3.6284,-3.6284,-3.6284,-3.6284,-3.6284,-3.6284,-3.6284,-3.6284,-3.6284,-3.6284,-3.6284,-3.6284,-3.6284,-3.6284,-3.6284,-3.6284,-3.6284,-3.6284,-3.6284,-3.6284,-3.6284,-3.6284,-3.6284,-3.6284,-3.6284,-3.6284,-3.6284,-3.6284,-3.6284,-3.6284,-3.6284,-3.6284,-3.6284,-3.6284,-3.6284,-3.6284,-3.6262,-3.6262,-3.6262,-3.622,-3.6199,-3.6284,-3.6284,-3.6284,-3.6284,-3.6284,-3.6284,-3.6284,-3.6178,-3.6178,-3.6284,-3.6262,-3.6199,-3.6241,-3.6284,-3.6284,-3.6284,-3.6284,-3.6284,-4.3721,-4.3566,-4.3549,-4.3513,-4.3479,-4.3479,-4.3479,-4.3479,-4.3479,-4.3479,-4.3479,-4.3479,-4.3479,-4.3479,-4.3479,-4.3479,-4.3479,-4.3479,-4.3479,-4.3479,-4.3479,-4.3479,-4.3479,-4.3462,-4.3462,-4.3479,-4.341,-4.3268,-4.2845,-4.2165,-4.1599,-4.1477,-4.0504,-3.9623,-3.887,-3.8163,-3.7404,-3.637,-3.6284,-3.6284,-3.6284,-3.6284,-3.6284,-3.6284,-3.6284,-3.6284,-3.6284,-3.6284,-3.6284,-3.6284,-3.6284,-3.6284,-3.6284,-3.6284,-3.6284,-3.6284,-3.6284,-3.6284,-3.6284,-3.6284,-3.6284,-3.6284,-3.6284,-3.6284,-3.6284,-3.6284,-3.6284,-3.6284,-3.6284,-3.6284,-3.6284,-3.6284,-3.6284,-3.6284,-3.6284,-3.6284,-3.6284,-3.6284,-3.6284,-3.6284,-3.6284,-3.6284,-3.6284,-3.6284,-3.6284,-3.6284,-3.6284,-3.6284,-3.6284,-3.6284,-3.6284,-3.6284,-3.6284,-3.6284,-3.6284,-3.6284,-3.6284,-3.6284,-3.6284,-3.6284,-3.6284,-3.6284,-3.6284,-3.6284,-3.6284,-3.6284,-3.6284,-3.6284,-3.6284,-3.6284,-3.6284,-3.6284,-3.6284,-3.6284,-3.6284,-4.3788,-4.3771,-4.3651,-4.3548,-4.3496,-4.3479,-4.3479,-4.3479,-4.3479,-4.3479,-4.3479,-4.3479,-4.3479,-4.3479,-4.3479,-4.3479,-4.3479,-4.3479,-4.3479,-4.3479,-4.3479,-4.3479,-4.3479,-4.3479,-4.3479,-4.3479,-4.3479,-4.348,-4.325,-4.2557,-4.1969,-4.1459,-4.0909,-4.0326,-3.9543,-3.8686,-3.7806,-3.6887,-3.6646,-3.6508,-3.6456,-3.6404,-3.637,-3.6301,-3.6284,-3.6284,-3.6284,-3.6284,-3.6284,-3.6284,-3.6284,-3.6284,-3.6284,-3.6284,-3.6284,-3.6284,-3.6284,-3.6284,-3.6284,-3.6284,-3.6284,-3.6284,-3.6284,-3.6284,-3.6284,-3.6284,-3.6284,-3.6284,-3.6284,-3.6284,-3.6284,-3.6284,-3.6284,-3.6284,-3.6284,-3.6284,-3.6284,-3.6284,-3.6284,-3.6284,-3.6284,-3.6284,-3.6284,-3.6284,-3.6284,-3.6284,-3.6284,-3.6284,-3.6284,-3.6284,-3.6284,-3.6284,-3.6284,-3.6284,-3.6284,-3.6284,-3.6284,-3.6284,-3.6284,-3.6284,-3.6284,-3.6284,-3.6284,-3.6284,-3.6284,-3.6284,-3.6284,-3.6284,-3.6284,-3.6284,-3.6284,-3.6284,-3.6284,-3.6284,-3.6284,-4.3881,-4.3832,-4.38,-4.3701,-4.3548,-4.3513,-4.3479,-4.3479,-4.3479,-4.3479,-4.3479,-4.3479,-4.3479,-4.3479,-4.3479,-4.3479,-4.3479,-4.3479,-4.3479,-4.3479,-4.3479,-4.3479,-4.3479,-4.3479,-4.3479,-4.3479,-4.3479,-4.3322,-4.305,-4.2731,-4.2398,-4.1903,-4.1283,-4.0447,-3.9698,-3.9173,-3.8333,-3.7983,-3.7633,-3.7547,-3.7081,-3.7012,-3.6801,-3.6318,-3.6284,-3.6284,-3.6284,-3.6284,-3.6284,-3.6284,-3.6284,-3.6284,-3.6284,-3.6284,-3.6284,-3.6284,-3.6284,-3.6284,-3.6284,-3.6284,-3.6284,-3.6284,-3.6284,-3.6284,-3.6284,-3.6284,-3.6284,-3.6284,-3.6284,-3.6284,-3.6284,-3.6284,-3.6284,-3.6284,-3.6284,-3.6284,-3.6284,-3.6284,-3.6284,-3.6284,-3.6284,-3.6284,-3.6284,-3.6284,-3.6284,-3.6284,-3.6284,-3.6284,-3.6284,-3.6284,-3.6284,-3.6284,-3.6284,-3.6284,-3.6284,-3.6284,-3.6284,-3.6284,-3.6284,-3.6284,-3.6284,-3.6284,-3.6284,-3.6284,-3.6284,-3.6284,-3.6284,-3.6284,-3.6284,-3.6284,-3.6284,-3.6284,-3.6284,-3.6284,-3.6284,-4.3992,-4.3929,-4.3915,-4.38,-4.3669,-4.3566,-4.3531,-4.3532,-4.3515,-4.3479,-4.3479,-4.3479,-4.3479,-4.3479,-4.3479,-4.3479,-4.3479,-4.3479,-4.3479,-4.3479,-4.3479,-4.3479,-4.3479,-4.3479,-4.3479,-4.3479,-4.3462,-4.3339,-4.3178,-4.2994,-4.271,-4.2277,-4.1674,-4.1033,-4.0542,-3.9748,-3.9195,-3.8894,-3.8747,-3.8515,-3.7901,-3.7547,-3.7323,-3.6663,-3.6473,-3.6284,-3.6284,-3.6284,-3.6284,-3.6284,-3.6284,-3.6284,-3.6284,-3.6284,-3.6284,-3.6284,-3.6284,-3.6284,-3.6284,-3.6284,-3.6284,-3.6284,-3.6284,-3.6284,-3.6284,-3.6284,-3.6284,-3.6284,-3.6284,-3.6284,-3.6284,-3.6284,-3.6284,-3.6284,-3.6284,-3.6284,-3.6284,-3.6284,-3.6284,-3.6284,-3.6284,-3.6284,-3.6284,-3.6284,-3.6284,-3.6284,-3.6284,-3.6284,-3.6284,-3.6284,-3.6284,-3.6284,-3.6284,-3.6284,-3.6284,-3.6284,-3.6284,-3.6284,-3.6284,-3.6284,-3.6284,-3.6284,-3.6284,-3.6284,-3.6284,-3.6284,-3.6284,-3.6284,-3.6284,-3.6284,-3.6284,-3.6284,-3.6284,-3.6284,-3.6284,-4.4005,-4.3989,-4.3929,-4.3867,-4.3769,-4.3651,-4.3599,-4.3617,-4.3549,-4.3532,-4.3532,-4.3515,-4.3496,-4.3496,-4.3496,-4.3479,-4.3479,-4.3479,-4.3479,-4.3479,-4.3479,-4.3479,-4.3479,-4.3479,-4.3479,-4.3479,-4.3479,-4.3462,-4.3427,-4.316,-4.2939,-4.2807,-4.242,-4.2041,-4.2032,-4.1393,-4.0461,-3.9529,-3.9466,-3.9215,-3.876,-3.8283,-3.7987,-3.7499,-3.6928,-3.6672,-3.6563,-3.6335,-3.6301,-3.6284,-3.6284,-3.6284,-3.6284,-3.6284,-3.6284,-3.6284,-3.6284,-3.6284,-3.6284,-3.6284,-3.6284,-3.6284,-3.6284,-3.6284,-3.6284,-3.6284,-3.6284,-3.6284,-3.6284,-3.6284,-3.6284,-3.6284,-3.6284,-3.6284,-3.6284,-3.6284,-3.6284,-3.6284,-3.6284,-3.6284,-3.6284,-3.6284,-3.6284,-3.6284,-3.6284,-3.6284,-3.6284,-3.6284,-3.6284,-3.6284,-3.6284,-3.6284,-3.6284,-3.6284,-3.6284,-3.6284,-3.6284,-3.6284,-3.6284,-3.6284,-3.6284,-3.6284,-3.6284,-3.6284,-3.6284,-3.6284,-3.6284,-3.6284,-3.6284,-3.6284,-3.6284,-3.6284,-3.6284,-3.6284,-3.6284,-4.4005,-4.4005,-4.3974,-4.3942,-4.3913,-4.3783,-4.3736,-4.3736,-4.3703,-4.3686,-4.3686,-4.3617,-4.3565,-4.3548,-4.3513,-4.3515,-4.3496,-4.3479,-4.3479,-4.3515,-4.3515,-4.3479,-4.3496,-4.3513,-4.3496,-4.3496,-4.3496,-4.3496,-4.3462,-4.3322,-4.3304,-4.3214,-4.305,-4.2732,-4.2286,-4.1877,-4.1525,-4.1301,-4.1189,-4.0949,-4.0294,-3.99,-3.9423,-3.8713,-3.7906,-3.7419,-3.7136,-3.6842,-3.6488,-3.6437,-3.6437,-3.6305,-3.6305,-3.6305,-3.6284,-3.6284,-3.6284,-3.6284,-3.6284,-3.6284,-3.6284,-3.6284,-3.6284,-3.6284,-3.6284,-3.6284,-3.6284,-3.6284,-3.6284,-3.6284,-3.6284,-3.6284,-3.6284,-3.6284,-3.6284,-3.6284,-3.6284,-3.6284,-3.6284,-3.6284,-3.6284,-3.6284,-3.6284,-3.6284,-3.6284,-3.6284,-3.6284,-3.6284,-3.6284,-3.6284,-3.6284,-3.6284,-3.6284,-3.6284,-3.6284,-3.6284,-3.6284,-3.6284,-3.6284,-3.6284,-3.6284,-3.6284,-3.6284,-3.6284,-3.6284,-3.6284,-3.6284,-3.6284,-3.6284,-3.6284,-3.6284,-3.6284,-3.6284,-3.6284,-3.6284,-4.4005,-4.4005,-4.4005,-4.4005,-4.3974,-4.3883,-4.382,-4.3804,-4.3788,-4.3788,-4.3788,-4.3703,-4.3667,-4.3651,-4.3617,-4.3618,-4.36,-4.36,-4.36,-4.3618,-4.3618,-4.3635,-4.36,-4.36,-4.3617,-4.36,-4.36,-4.36,-4.3635,-4.36,-4.3583,-4.3583,-4.3583,-4.3286,-4.2903,-4.2735,-4.2564,-4.2397,-4.2209,-4.198,-4.1469,-4.1049,-4.0613,-3.9901,-3.9217,-3.8604,-3.8184,-3.7599,-3.6977,-3.6945,-3.6703,-3.6461,-3.6447,-3.6406,-3.6326,-3.6284,-3.6284,-3.6284,-3.6284,-3.6284,-3.6284,-3.6284,-3.6284,-3.6284,-3.6284,-3.6284,-3.6284,-3.6284,-3.6284,-3.6284,-3.6284,-3.6284,-3.6284,-3.6284,-3.6284,-3.6284,-3.6284,-3.6284,-3.6284,-3.6284,-3.6284,-3.6284,-3.6284,-3.6284,-3.6284,-3.6284,-3.6284,-3.6284,-3.6284,-3.6284,-3.6284,-3.6284,-3.6284,-3.6284,-3.6284,-3.6284,-3.6284,-3.6284,-3.6284,-3.6284,-3.6284,-3.6284,-3.6284,-3.6284,-3.6284,-3.6284,-3.6284,-3.6284,-3.6284,-3.6284,-3.6284,-3.6284,-3.6284,-3.6284,-3.6284,-4.4005,-4.4005,-4.4005,-4.4005,-4.3989,-4.3929,-4.3867,-4.382,-4.382,-4.382,-4.382,-4.382,-4.3786,-4.3786,-4.3769,-4.3753,-4.3771,-4.3771,-4.3771,-4.3771,-4.3754,-4.3771,-4.3771,-4.3753,-4.3736,-4.3753,-4.3771,-4.3719,-4.3788,-4.3754,-4.3754,-4.3788,-4.3736,-4.3634,-4.3548,-4.3427,-4.3232,-4.3069,-4.2958,-4.2718,-4.2349,-4.1797,-4.1526,-4.0981,-4.0438,-3.9969,-3.9451,-3.8795,-3.8481,-3.8082,-3.7454,-3.7041,-3.6766,-3.6588,-3.6444,-3.6326,-3.6346,-3.6367,-3.6284,-3.6284,-3.6284,-3.6284,-3.6284,-3.6284,-3.6284,-3.6284,-3.6284,-3.6284,-3.6284,-3.6284,-3.6284,-3.6284,-3.6284,-3.6284,-3.6284,-3.6284,-3.6284,-3.6284,-3.6284,-3.6284,-3.6284,-3.6284,-3.6284,-3.6284,-3.6284,-3.6284,-3.6284,-3.6284,-3.6284,-3.6284,-3.6284,-3.6284,-3.6284,-3.6284,-3.6284,-3.6284,-3.6284,-3.6284,-3.6284,-3.6284,-3.6284,-3.6284,-3.6284,-3.6284,-3.6284,-3.6284,-3.6284,-3.6284,-3.6284,-3.6284,-3.6284,-3.6284,-3.6284,-3.6284,-3.6284,-4.4005,-4.4005,-4.4005,-4.4005,-4.4005,-4.3974,-4.3976,-4.3926,-4.3945,-4.3945,-4.3926,-4.3899,-4.3849,-4.3867,-4.382,-4.3804,-4.3804,-4.3788,-4.3788,-4.3804,-4.382,-4.3804,-4.3804,-4.3804,-4.3804,-4.3804,-4.3804,-4.382,-4.3804,-4.3804,-4.3835,-4.3851,-4.3835,-4.3849,-4.3849,-4.3802,-4.3651,-4.3548,-4.3462,-4.3339,-4.3268,-4.2904,-4.265,-4.225,-4.165,-4.1196,-4.0678,-3.9914,-3.9594,-3.9321,-3.9118,-3.8777,-3.8118,-3.8026,-3.7821,-3.6794,-3.6719,-3.6638,-3.6367,-3.6284,-3.6326,-3.6326,-3.6305,-3.6284,-3.6284,-3.6284,-3.6284,-3.6284,-3.6284,-3.6284,-3.6284,-3.6284,-3.6284,-3.6284,-3.6284,-3.6284,-3.6284,-3.6284,-3.6284,-3.6284,-3.6284,-3.6284,-3.6284,-3.6284,-3.6284,-3.6284,-3.6284,-3.6284,-3.6284,-3.6284,-3.6284,-3.6284,-3.6284,-3.6284,-3.6284,-3.6284,-3.6284,-3.6284,-3.6284,-3.6284,-3.6284,-3.6284,-3.6284,-3.6284,-3.6284,-3.6284,-3.6284,-3.6284,-3.6284,-3.6284,-3.6284,-3.6284,-3.6284,-3.6284,-3.6284,-4.4005,-4.4005,-4.4005,-4.4005,-4.4005,-4.4005,-4.4005,-4.4005,-4.4005,-4.4005,-4.4005,-4.3976,-4.3926,-4.3945,-4.3897,-4.3881,-4.3881,-4.3881,-4.3881,-4.3899,-4.3867,-4.3881,-4.3865,-4.3883,-4.3881,-4.3883,-4.3883,-4.3881,-4.3883,-4.3883,-4.3913,-4.3929,-4.3881,-4.3929,-4.3961,-4.3913,-4.3899,-4.3851,-4.3802,-4.3804,-4.3804,-4.3804,-4.3566,-4.3282,-4.2663,-4.2323,-4.1939,-4.1141,-4.0742,-4.0598,-4.0489,-3.9817,-3.919,-3.8992,-3.8272,-3.7347,-3.7132,-3.7055,-3.688,-3.6638,-3.6594,-3.6492,-3.6388,-3.6284,-3.6284,-3.6284,-3.6284,-3.6284,-3.6284,-3.6284,-3.6284,-3.6284,-3.6284,-3.6284,-3.6284,-3.6284,-3.6284,-3.6284,-3.6284,-3.6284,-3.6284,-3.6284,-3.6284,-3.6284,-3.6284,-3.6284,-3.6284,-3.6284,-3.6284,-3.6284,-3.6284,-3.6284,-3.6284,-3.6284,-3.6284,-3.6284,-3.6284,-3.6284,-3.6284,-3.6284,-3.6284,-3.6284,-3.6284,-3.6284,-3.6284,-3.6284,-3.6284,-3.6284,-3.6284,-3.6284,-3.6284,-3.6284,-3.6284,-3.6284,-3.6284,-4.4005,-4.4005,-4.4005,-4.4005,-4.4005,-4.4005,-4.4005,-4.4005,-4.4005,-4.4005,-4.4005,-4.4005,-4.3989,-4.3974,-4.3958,-4.3974,-4.3976,-4.3958,-4.3958,-4.4005,-4.3992,-4.3958,-4.3974,-4.3989,-4.3976,-4.3989,-4.3989,-4.3976,-4.3989,-4.3992,-4.3976,-4.4005,-4.3989,-4.3989,-4.3989,-4.3974,-4.3976,-4.3961,-4.3881,-4.3835,-4.3853,-4.3837,-4.3802,-4.3753,-4.3594,-4.3456,-4.3205,-4.2663,-4.1994,-4.174,-4.136,-4.0654,-4.0239,-3.9481,-3.8564,-3.7935,-3.7703,-3.745,-3.7265,-3.6978,-3.686,-3.6719,-3.6553,-3.6346,-3.6284,-3.6284,-3.6284,-3.6284,-3.6284,-3.6284,-3.6284,-3.6284,-3.6284,-3.6284,-3.6284,-3.6284,-3.6284,-3.6284,-3.6284,-3.6284,-3.6284,-3.6284,-3.6284,-3.6284,-3.6284,-3.6284,-3.6284,-3.6284,-3.6301,-3.6301,-3.6301,-3.6301,-3.6284,-3.6284,-3.6284,-3.6284,-3.6284,-3.6284,-3.6284,-3.6284,-3.6284,-3.6284,-3.6284,-3.6284,-3.6284,-3.6284,-3.6284,-3.6284,-3.6284,-3.6284,-3.6284,-3.6284,-3.6284,-3.6284,-3.6284,-4.4005,-4.4005,-4.4005,-4.4005,-4.4005,-4.4005,-4.4005,-4.4005,-4.4005,-4.4005,-4.4005,-4.4005,-4.4005,-4.4005,-4.4005,-4.4005,-4.4005,-4.4005,-4.4005,-4.4005,-4.4005,-4.4005,-4.4005,-4.4005,-4.4005,-4.4005,-4.4005,-4.4005,-4.4005,-4.4005,-4.4005,-4.4005,-4.4005,-4.4005,-4.4005,-4.4005,-4.4005,-4.4005,-4.3976,-4.3929,-4.3929,-4.3945,-4.3926,-4.3881,-4.3816,-4.3734,-4.354,-4.3365,-4.3114,-4.3025,-4.2899,-4.2426,-4.1876,-4.042,-3.9487,-3.89,-3.8272,-3.788,-3.7523,-3.7209,-3.6997,-3.6781,-3.6577,-3.6388,-3.6284,-3.6284,-3.6284,-3.6305,-3.6284,-3.6284,-3.6284,-3.6284,-3.6284,-3.6284,-3.6284,-3.6284,-3.6284,-3.6284,-3.6284,-3.6305,-3.6305,-3.6374,-3.6391,-3.6408,-3.6284,-3.6284,-3.6284,-3.6301,-3.6335,-3.6353,-3.6353,-3.6353,-3.6301,-3.6284,-3.6284,-3.6284,-3.6284,-3.6284,-3.6284,-3.6284,-3.6284,-3.6284,-3.6284,-3.6284,-3.6284,-3.6284,-3.6284,-3.6284,-3.6284,-3.6284,-3.6284,-3.6284,-3.6284,-3.6284,-3.6284,-4.4005,-4.4005,-4.4005,-4.4005,-4.4005,-4.4005,-4.4005,-4.4005,-4.4005,-4.4005,-4.4005,-4.4005,-4.4005,-4.4005,-4.4005,-4.4005,-4.4005,-4.4005,-4.4005,-4.4005,-4.4005,-4.4005,-4.4005,-4.4005,-4.4005,-4.4005,-4.4005,-4.4005,-4.4005,-4.4005,-4.4005,-4.4005,-4.4005,-4.4005,-4.4005,-4.4005,-4.4005,-4.4005,-4.4005,-4.4005,-4.4005,-4.3989,-4.3989,-4.3961,-4.3897,-4.3832,-4.3767,-4.3666,-4.3582,-4.3531,-4.3369,-4.2913,-4.2161,-4.1064,-4.0209,-3.9508,-3.8828,-3.8185,-3.7791,-3.745,-3.7132,-3.6919,-3.6557,-3.6346,-3.6618,-3.6618,-3.6433,-3.6412,-3.6305,-3.6284,-3.6284,-3.6284,-3.6284,-3.6284,-3.6284,-3.6284,-3.6284,-3.6284,-3.6343,-3.6423,-3.6651,-3.7105,-3.7244,-3.762,-3.7478,-3.7162,-3.702,-3.6684,-3.6628,-3.6715,-3.6646,-3.6559,-3.6611,-3.6404,-3.6284,-3.6284,-3.6284,-3.6284,-3.6284,-3.6284,-3.6284,-3.6284,-3.6284,-3.6284,-3.6284,-3.6284,-3.6284,-3.6284,-3.6284,-3.6284,-3.6284,-3.6284,-3.6284,-3.6284,-3.6284,-4.4005,-4.4005,-4.4005,-4.4005,-4.4005,-4.4005,-4.4005,-4.4005,-4.4005,-4.4005,-4.4005,-4.4005,-4.4005,-4.4005,-4.4005,-4.4005,-4.4005,-4.4005,-4.4005,-4.4005,-4.4005,-4.4005,-4.4005,-4.4005,-4.4005,-4.4005,-4.4005,-4.4005,-4.4005,-4.4005,-4.4005,-4.4005,-4.4005,-4.4005,-4.4005,-4.4005,-4.4005,-4.4005,-4.4005,-4.4005,-4.4005,-4.4005,-4.4008,-4.3992,-4.3942,-4.3931,-4.3849,-4.3767,-4.3667,-4.3582,-4.3546,-4.32,-4.2633,-4.177,-4.0965,-4.0185,-3.9397,-3.8759,-3.8241,-3.7844,-3.7487,-3.7132,-3.6678,-3.6618,-3.6919,-3.6919,-3.6761,-3.6676,-3.6553,-3.6367,-3.6367,-3.6346,-3.6346,-3.6398,-3.6398,-3.6416,-3.6416,-3.6485,-3.6634,-3.6749,-3.7241,-3.7804,-3.8148,-3.8543,-3.8469,-3.8148,-3.7863,-3.7469,-3.7254,-3.7443,-3.7473,-3.7335,-3.7249,-3.6956,-3.6456,-3.6525,-3.6594,-3.6284,-3.6284,-3.6284,-3.6284,-3.6284,-3.6284,-3.6284,-3.6284,-3.6284,-3.6284,-3.6284,-3.6284,-3.6284,-3.6284,-3.6284,-3.6284,-3.6284,-3.6284,-4.4005,-4.4005,-4.4005,-4.4005,-4.4005,-4.4005,-4.4005,-4.4005,-4.4005,-4.4005,-4.4005,-4.4005,-4.4005,-4.4005,-4.4005,-4.4005,-4.4005,-4.4005,-4.4005,-4.4005,-4.4005,-4.4005,-4.4005,-4.4005,-4.4005,-4.4005,-4.4005,-4.4005,-4.4005,-4.4005,-4.4005,-4.4005,-4.4005,-4.4005,-4.4005,-4.4005,-4.4005,-4.4005,-4.4005,-4.4005,-4.4005,-4.4005,-4.4005,-4.3989,-4.3989,-4.3961,-4.3878,-4.3865,-4.3818,-4.3753,-4.3632,-4.347,-4.3068,-4.2445,-4.1656,-4.0903,-4.0126,-3.9316,-3.8763,-3.8241,-3.7844,-3.7649,-3.734,-3.7229,-3.7415,-3.7469,-3.7376,-3.739,-3.72,-3.6751,-3.667,-3.6594,-3.6612,-3.6748,-3.68,-3.689,-3.6925,-3.7252,-3.7547,-3.7812,-3.8216,-3.8585,-3.885,-3.909,-3.9121,-3.8881,-3.8846,-3.8473,-3.8135,-3.8229,-3.8323,-3.8112,-3.7944,-3.7232,-3.6628,-3.7008,-3.706,-3.6628,-3.6284,-3.6284,-3.6284,-3.6284,-3.6284,-3.6284,-3.6284,-3.6284,-3.6284,-3.6284,-3.6284,-3.6284,-3.6284,-3.6284,-3.6284,-3.6284,-3.6305]},{"header":{"parameterUnit":"m.s-1","parameterCategory":1,"la1":31.0,"la2":29.5877,"lo1":-88.7671,"lo2":-86.6584,"dy":0.0162,"dx":0.0185,"nx":115,"ny":88,"refTime":"2024-07-04T06:00:00:Z","depth":0,"parameterNumber":3,"parameterNumberName":"V-component_of_WINDS"},"data":[0.0,0.0,0.0,0.0,0.0,0.0,0.0,0.0,0.0,0.0,0.0,0.0,0.0,0.0,0.0,0.0,0.0,0.0,0.0,0.0,0.0,0.0,0.0,0.0,0.0,0.0,0.0,0.0,0.0,0.0,0.0,0.0,0.0,0.0,0.0,0.0,0.0,0.0,0.0,0.0,0.0,0.0,0.0,0.0,0.0,0.0,0.0,0.0,0.0,0.0,0.0,0.0,0.0,0.0,0.0,0.0,0.0,0.0,0.0,0.0,0.0,0.0,0.0,0.0,0.0,0.0,0.0,0.0,0.0,0.0,0.0,0.0,0.0,0.0,0.0,0.0,0.0,0.0,0.0,0.0,0.0,0.0,0.0,0.0,0.0,0.0,0.0,0.0,0.0,0.0,0.0,0.0,0.0,0.0,0.0,0.0,0.0,0.0,0.0,0.0,0.0,0.0,0.0,0.0,0.0,0.0,0.0,0.0,0.0,0.0,0.0,0.0,0.0,0.0,0.0,0.0,0.0,0.0,0.0,0.0,0.0,0.0,0.0,0.0,0.0,0.0,0.0,0.0,0.0,0.0,0.0,0.0,0.0,0.0,0.0,0.0,0.0,0.0,0.0,0.0,0.0,0.0,0.0,0.0,0.0,0.0,0.0,0.0,0.0,0.0,0.0,0.0,0.0,0.0,0.0,0.0,0.0,0.0,0.0,0.0,0.0,0.0,0.0,0.0,0.0,0.0,0.0,0.0,0.0,0.0,0.0,0.0,0.0,0.0,0.0,0.0,0.0,0.0,0.0,0.0,0.0,0.0,0.0,0.0,0.0,0.0,0.0,0.0,0.0,0.0,0.0,0.0,0.0,0.0,0.0,0.0,0.0,0.0,0.0,0.0,0.0,0.0,0.0,0.0,0.0,0.0,0.0,0.0,0.0,0.0,0.0,0.0,0.0,0.0,0.0,0.0,0.0,0.0,0.0,0.0,0.0,0.0,0.0,0.0,0.0,0.0,0.0,0.0,0.0,0.0,0.0,0.0,0.0,0.0,0.0,0.0,0.0,0.0,0.0,0.0,0.0,0.0,0.0,0.0,0.0,0.0,0.0,0.0,0.0,0.0,0.0,0.0,0.0,0.0,0.0,0.0,0.0,0.0,0.0,0.0,0.0,0.0,0.0,0.0,0.0,0.0,0.0,0.0,0.0,0.0,0.0,0.0,0.0,0.0,0.0,0.0,0.0,0.0,0.0,0.0,0.0,0.0,0.0,0.0,0.0,0.0,0.0,0.0,0.0,0.0,0.0,0.0,0.0,0.0,0.0,0.0,0.0,0.0,0.0,0.0,0.0,0.0,0.0,0.0,0.0,0.0,0.0,0.0,0.0,0.0,0.0,0.0,0.0,0.0,0.0,0.0,0.0,0.0,0.0,0.0,0.0,0.0,0.0,0.0,0.0,0.0,0.0,0.0,0.0,0.0,0.0,0.0,0.0,0.0,0.0,0.0,0.0,0.0,0.0,0.0,0.0,0.0,0.0,0.0,0.0,0.0,0.0,0.0,0.0,0.0,0.0,0.0,0.0,0.0,0.0,0.0,0.0,0.0,0.0,0.0,0.0,0.0,0.0,0.0,0.0,0.0,0.0,0.0,0.0,0.0,0.0,0.0,0.0,0.0,0.0,0.0,0.0,0.0,0.0,0.0,0.0,0.0,0.0,0.0,0.0,0.0,0.0,0.0,0.0,0.0,0.0,0.0,0.0,0.0,0.0,0.0,0.0,0.0,0.0,0.0,0.0,0.0,0.0,0.0,0.0,0.0,0.0,0.0,0.0,0.0,0.0,0.0,0.0,0.0,0.0,0.0,0.0,0.0,0.0,0.0,0.0,0.0,0.0,0.0,0.0,0.0,0.0,0.0,0.0,0.0,0.0,0.0,0.0,0.0,0.0,0.0,0.0,0.0,0.0,0.0,0.0,0.0,0.0,0.0,0.0,0.0,0.0,0.0,0.0,0.0,0.0,0.0,0.0,0.0,0.0,0.0,0.0,0.0,0.0,0.0,0.0,0.0,0.0,0.0,0.0,0.0,0.0,0.0,0.0,0.0,0.0,0.0,0.0,0.0,0.0,0.0,0.0,0.0,0.0,0.0,0.0,0.0,0.0,0.0,0.0,0.0,0.0,0.0,0.0,0.0,0.0,0.0,0.0,0.0,0.0,0.0,0.0,0.0,0.0,0.0,0.0,0.0,0.0,0.0,0.0,0.0,0.0,0.0,0.0,0.0,0.0,0.0,0.0,0.0,0.0,0.0,0.0,0.0,0.0,0.0,0.0,0.0,0.0,0.0,0.0,0.0,0.0,0.0,0.0,0.0,0.0,0.0,0.0,0.0,0.0,0.0,0.0,0.0,0.0,0.0,0.0,0.0,0.0,0.0,0.0,0.0,0.0,0.0,0.0,0.0,0.0,0.0,0.0,0.0,0.0,0.0,0.0,0.0,0.0,0.0,0.0,0.0,0.0,0.0,0.0,0.0,0.0,0.0,0.0,0.0,0.0,0.0,0.0,0.0,0.0,0.0,0.0,0.0,0.0,0.0,0.0,0.0,0.0,0.0,0.0,0.0,0.0,0.0,0.0,0.0,0.0,0.0,0.0,0.0,0.0,0.0,0.0,0.0,0.0,0.0,0.0,0.0,0.0,0.0,0.0,0.0,0.0,0.0,0.0,0.0,0.0,0.0,0.0,0.0,0.0,0.0,0.0,0.0,0.0,0.0,0.0,0.0,0.0,0.0,0.0,0.0,0.0,0.0,0.0,0.0,0.0,0.0,0.0,0.0,0.0,0.0,0.0,0.0,0.0,0.0,0.0,0.0,0.0,0.0,0.0,0.0,0.0,0.0,0.0,0.0,0.0,0.0,0.0,0.0,0.0,0.0,0.0,0.0,0.0,0.0,0.0,0.0,0.0,0.0,0.0,0.0,0.0,0.0,0.0,0.0,0.0,0.0,0.0,0.0,0.0,0.0,0.0,0.0,0.0,0.0,0.0,0.0,0.0,0.0,0.0,0.0,0.0,0.0,0.0,0.0,0.0,0.0,0.0,0.0,0.0,0.0,0.0,0.0,0.0,0.0,0.0,0.0,0.0,0.0,0.0,0.0,0.0,0.0,0.0,0.0,0.0,0.0,0.0,0.0,0.0,0.0,0.0,0.0,0.0,0.0,0.0,0.0,0.0,0.0,0.0,0.0,0.0,0.0,0.0,0.0,0.0,0.0,0.0,0.0,0.0,0.0,0.0,0.0,0.0,0.0,0.0,0.0,0.0,0.0,0.0,0.0,0.0,0.0,0.0,0.0,0.0,0.0,0.0,0.0,0.0,0.0,0.0,0.0,0.0,0.0,0.0,0.0,0.0,0.0,0.0,0.0,0.0,0.0,0.0,0.0,0.0,0.0,0.0,0.0,0.0,0.0,0.0,0.0,0.0,0.0,0.0,0.0,0.0,0.0,0.0,0.0,0.0,0.0,0.0,0.0,0.0,0.0,0.0,0.0,0.0,0.0,0.0,0.0,0.0,0.0,0.0,0.0,0.0,0.0,0.0,0.0,0.0,0.0,0.0,0.0,0.0,0.0,0.0,0.0,0.0,0.0,0.0,0.0,0.0,0.0,0.0,0.0,0.0,0.0,0.0,0.0,0.0,0.0,0.0,0.0,0.0,0.0,0.0,0.0,0.0,0.0,0.0,0.0,0.0,0.0,0.0,0.0,0.0,0.0,0.0,0.0,0.0,0.0,0.0,0.0,0.0,0.0,0.0,0.0,0.0,0.0,0.0,0.0,0.0,0.0,0.0,0.0,0.0,0.0,0.0,0.0,0.0,0.0,0.0,0.0,0.0,0.0,0.0,0.0,0.0,0.0,0.0,0.0,0.0,0.0,0.0,0.0,0.0,0.0,0.0,0.0,0.0,0.0,0.0,0.0,0.0,0.0,0.0,0.0,0.0,0.0,0.0,0.0,0.0,0.0,0.0,0.0,0.0,0.0,0.0,0.0,0.0,0.0,0.0,0.0,0.0,0.0,0.0,0.0,0.0,0.0,0.0,0.0,0.0,0.0,0.0,0.0,0.0,0.0,0.0,0.0,0.0,0.0,0.0,0.0,0.0,0.0,0.0,0.0,0.0,0.0,0.0,0.0,0.0,0.0,0.0,0.0,0.0,0.0,0.0,0.0,0.0,0.0,0.0,0.0,0.0,0.0,0.0,0.0,0.0,0.0,0.0,0.0,0.0,0.0,0.0,0.0,0.0,0.0,0.0,0.0,-0.3681,0.0,0.0,0.0,0.0,0.0,0.0,0.0,0.0,0.0,0.0,0.0,0.0,0.0,0.0,0.0,0.0,0.0,0.0,0.0,0.0,0.0,0.0,0.0,0.0,0.0,0.0,0.0,0.0,0.0,0.0,0.0,0.0,0.0,0.0,0.0,0.0,0.0,0.0,0.0,0.0,0.0,0.0,0.0,0.0,0.0,0.0,0.0,0.0,0.0,0.0,0.0,0.0,0.0,0.0,0.0,0.0,0.0,0.0,0.0,0.0,0.0,0.0,0.0,0.0,0.0,0.0,0.0,0.0,0.0,0.0,0.0,0.0,0.0,0.0,0.0,0.0,0.0,0.0,0.0,0.0,0.0,0.0,0.0,0.0,0.0,0.0,0.0,0.0,0.0,0.0,0.0,0.0,0.0,0.0,0.0,0.0,0.0,0.0,0.0,0.0,0.0,0.0,0.0,0.0,0.0,0.0,0.0,0.0,0.0,0.0,-0.5054,-0.4924,-0.4433,-0.4081,-0.3917,0.0,0.0,0.0,0.0,0.0,0.0,0.0,0.0,0.0,0.0,0.0,0.0,0.0,0.0,0.0,0.0,0.0,0.0,0.0,0.0,0.0,0.0,0.0,0.0,0.0,0.0,0.0,0.0,0.0,0.0,0.0,0.0,0.0,0.0,0.0,0.0,0.0,0.0,0.0,0.0,0.0,0.0,0.0,0.0,0.0,0.0,0.0,0.0,0.0,0.0,0.0,0.0,0.0,0.0,0.0,0.0,0.0,0.0,0.0,0.0,0.0,0.0,0.0,0.0,0.0,0.0,0.0,0.0,0.0,0.0,0.0,0.0,0.0,0.0,0.0,0.0,0.0,0.0,0.0,0.0,0.0,0.0,0.0,0.0,0.0,0.0,0.0,0.0,0.0,0.0,0.0,0.0,0.0,0.0,0.0,0.0,0.0,0.0,0.0,0.0,0.0,0.0,0.0,0.0,0.0,0.0,0.0,0.0,0.0,0.0,0.0,0.0,-0.4863,-0.4413,-0.4218,0.0,0.0,0.0,0.0,0.0,0.0,0.0,0.0,0.0,0.0,0.0,0.0,0.0,0.0,0.0,0.0,0.0,0.0,0.0,0.0,0.0,0.0,0.0,0.0,0.0,0.0,0.0,0.0,0.0,0.0,0.0,0.0,0.0,0.0,0.0,0.0,0.0,0.0,0.0,0.0,0.0,0.0,0.0,0.0,0.0,0.0,0.0,0.0,0.0,0.0,0.0,0.0,0.0,0.0,0.0,0.0,0.0,0.0,0.0,0.0,0.0,0.0,0.0,0.0,0.0,0.0,0.0,0.0,0.0,0.0,0.0,0.0,0.0,0.0,0.0,0.0,0.0,0.0,0.0,0.0,0.0,0.0,0.0,0.0,0.0,0.0,0.0,0.0,0.0,0.0,0.0,0.0,0.0,0.0,0.0,0.0,0.0,0.0,0.0,0.0,0.0,0.0,0.0,0.0,0.0,0.0,0.0,0.0,0.0,0.0,-0.5944,-0.6351,-0.5789,0.0,-0.46,0.0,0.0,0.0,0.0,0.0,0.0,0.0,0.0,0.0,0.0,0.0,0.0,0.0,0.0,0.0,0.0,0.0,0.0,0.0,0.0,0.0,0.0,0.0,0.0,0.0,0.0,0.0,0.0,0.0,0.0,0.0,0.0,0.0,0.0,0.0,0.0,0.0,0.0,0.0,0.0,0.0,0.0,0.0,0.0,0.0,0.0,0.0,0.0,0.0,0.0,0.0,0.0,0.0,0.0,0.0,0.0,0.0,0.0,0.0,0.0,0.0,0.0,0.0,0.0,0.0,0.0,0.0,0.0,0.0,0.0,0.0,0.0,0.0,0.0,0.0,0.0,0.0,0.0,0.0,0.0,0.0,0.0,0.0,0.0,0.0,0.0,0.0,0.0,0.0,0.0,0.0,0.0,0.0,0.0,0.0,0.0,0.0,0.0,0.0,0.0,0.0,0.0,0.0,0.0,0.0,0.0,0.0,0.0,0.0,0.0,0.0,-0.7088,-0.6277,-0.5634,0.0,0.0,0.0,0.0,0.0,0.0,0.0,0.0,0.0,0.0,0.0,0.0,0.0,0.0,0.0,0.0,0.0,0.0,0.0,0.0,0.0,0.0,0.0,0.0,0.0,0.0,0.0,0.0,0.0,0.0,0.0,0.0,0.0,0.0,0.0,0.0,0.0,0.0,0.0,0.0,0.0,0.0,0.0,0.0,0.0,0.0,0.0,0.0,0.0,0.0,0.0,0.0,0.0,0.0,0.0,0.0,0.0,0.0,0.0,0.0,0.0,0.0,0.0,0.0,0.0,0.0,0.0,0.0,0.0,0.0,0.0,0.0,0.0,0.0,0.0,0.0,0.0,0.0,0.0,0.0,0.0,0.0,0.0,0.0,0.0,0.0,0.0,0.0,0.0,0.0,0.0,0.0,0.0,0.0,0.0,0.0,0.0,0.0,0.0,0.0,0.0,0.0,0.0,0.0,0.0,0.0,0.0,0.0,0.0,0.0,-0.7628,0.0,-0.7531,-0.6779,-0.6075,-0.5483,0.0,0.0,0.0,0.0,0.0,0.0,0.0,0.0,0.0,0.0,0.0,0.0,0.0,0.0,0.0,0.0,0.0,0.0,0.0,0.0,0.0,0.0,0.0,0.0,0.0,0.0,0.0,0.0,0.0,0.0,0.0,0.0,0.0,0.0,0.0,0.0,0.0,0.0,0.0,0.0,0.0,0.0,0.0,0.0,0.0,0.0,0.0,0.0,0.0,0.0,0.0,0.0,0.0,0.0,0.0,0.0,0.0,0.0,0.0,0.0,0.0,0.0,0.0,0.0,0.0,0.0,0.0,0.0,0.0,0.0,0.0,0.0,0.0,0.0,0.0,0.0,0.0,0.0,0.0,0.0,0.0,0.0,0.0,0.0,0.0,0.0,0.0,0.0,0.0,0.0,0.0,0.0,0.0,0.0,0.0,0.0,0.0,0.0,0.0,0.0,0.0,0.0,0.0,0.0,0.0,0.0,0.0,0.0,0.0,-0.8503,-0.7886,-0.7755,-0.7389,-0.6584,0.0,0.0,0.0,0.0,0.0,0.0,0.0,0.0,0.0,0.0,0.0,0.0,0.0,0.0,0.0,0.0,0.0,0.0,0.0,0.0,0.0,0.0,0.0,0.0,0.0,0.0,0.0,0.0,0.0,0.0,0.0,0.0,0.0,0.0,0.0,0.0,0.0,0.0,0.0,0.0,0.0,0.0,0.0,0.0,0.0,0.0,0.0,0.0,0.0,0.0,0.0,0.0,0.0,0.0,0.0,0.0,0.0,0.0,0.0,0.0,0.0,0.0,0.0,0.0,0.0,0.0,0.0,0.0,0.0,0.0,0.0,0.0,0.0,0.0,0.0,0.0,0.0,0.0,0.0,0.0,0.0,0.0,0.0,0.0,0.0,0.0,0.0,0.0,0.0,0.0,0.0,0.0,0.0,0.0,0.0,0.0,0.0,0.0,0.0,0.0,0.0,0.0,0.0,0.0,0.0,0.0,0.0,0.0,0.0,-0.8071,-0.8223,-0.8791,0.0,-0.7997,-0.7047,0.0,0.0,0.0,0.0,0.0,0.0,0.0,0.0,0.0,0.0,0.0,0.0,0.0,0.0,0.0,0.0,0.0,0.0,0.0,0.0,0.0,0.0,0.0,0.0,0.0,0.0,0.0,0.0,0.0,0.0,0.0,0.0,0.0,0.0,0.0,0.0,0.0,0.0,0.0,0.0,0.0,0.0,0.0,0.0,0.0,0.0,0.0,0.0,0.0,0.0,0.0,0.0,0.0,0.0,0.0,0.0,0.0,0.0,0.0,0.0,0.0,0.0,0.0,0.0,0.0,0.0,0.0,0.0,0.0,0.0,0.0,0.0,0.0,0.0,0.0,0.0,0.0,0.0,0.0,0.0,0.0,0.0,0.0,0.0,0.0,0.0,0.0,0.0,0.0,0.0,0.0,0.0,0.0,0.0,0.0,0.0,0.0,0.0,0.0,0.0,0.0,0.0,0.0,0.0,0.0,0.0,0.0,0.0,0.0,-0.7998,0.0,-0.9483,0.0,-0.8441,-0.7333,0.0,0.0,0.0,0.0,0.0,0.0,0.0,0.0,0.0,0.0,0.0,0.0,0.0,0.0,0.0,0.0,0.0,0.0,0.0,0.0,0.0,0.0,0.0,0.0,0.0,0.0,0.0,0.0,0.0,0.0,0.0,0.0,0.0,0.0,0.0,0.0,0.0,0.0,0.0,0.0,0.0,0.0,0.0,0.0,0.0,0.0,0.0,0.0,0.0,0.0,0.0,0.0,0.0,0.0,0.0,0.0,0.0,0.0,0.0,0.0,0.0,0.0,0.0,0.0,0.0,0.0,0.0,0.0,0.0,0.0,0.0,0.0,0.0,0.0,0.0,0.0,0.0,0.0,0.0,0.0,0.0,0.0,0.0,0.0,0.0,0.0,0.0,0.0,0.0,0.0,0.0,0.0,0.0,0.0,0.0,0.0,0.0,0.0,0.0,0.0,0.0,0.0,0.0,0.0,0.0,0.0,0.0,0.0,-0.8042,-0.9583,-1.0024,-0.9907,-0.917,-0.871,-0.7442,0.0,0.0,0.0,0.0,0.0,0.0,0.0,0.0,0.0,0.0,0.0,0.0,0.0,0.0,0.0,0.0,0.0,0.0,0.0,0.0,0.0,0.0,0.0,0.0,0.0,0.0,0.0,0.0,0.0,0.0,0.0,0.0,0.0,0.0,0.0,0.0,0.0,0.0,0.0,0.0,0.0,0.0,0.0,0.0,0.0,0.0,0.0,0.0,0.0,0.0,0.0,0.0,0.0,0.0,0.0,0.0,0.0,0.0,0.0,0.0,0.0,0.0,0.0,0.0,0.0,0.0,0.0,0.0,0.0,0.0,0.0,0.0,0.0,0.0,0.0,0.0,0.0,0.0,0.0,0.0,0.0,0.0,0.0,0.0,0.0,0.0,0.0,0.0,0.0,0.0,0.0,0.0,0.0,0.0,0.0,0.0,0.0,0.0,0.0,0.0,0.0,0.0,0.0,0.0,0.0,0.0,0.0,0.0,0.0,-0.8948,-0.9567,-1.0065,-1.041,-0.8866,-0.7828,0.0,0.0,0.0,0.0,0.0,0.0,0.0,0.0,0.0,0.0,0.0,0.0,0.0,0.0,0.0,0.0,0.0,0.0,0.0,0.0,0.0,0.0,0.0,0.0,0.0,0.0,0.0,0.0,0.0,0.0,0.0,0.0,0.0,0.0,0.0,0.0,0.0,0.0,0.0,0.0,0.0,0.0,0.0,0.0,0.0,0.0,0.0,0.0,0.0,0.0,0.0,0.0,0.0,0.0,0.0,0.0,0.0,0.0,0.0,0.0,0.0,0.0,0.0,0.0,0.0,0.0,0.0,0.0,0.0,0.0,0.0,0.0,0.0,0.0,0.0,0.0,0.0,0.0,0.0,0.0,0.0,0.0,0.0,0.0,0.0,0.0,0.0,0.0,0.0,0.0,0.0,0.0,0.0,0.0,0.0,0.0,0.0,0.0,0.0,0.0,0.0,0.0,0.0,0.0,0.0,0.0,0.0,0.0,0.0,-0.9943,-1.0604,-1.1084,-1.1303,-0.969,-0.8627,-0.8225,0.0,0.0,0.0,0.0,0.0,0.0,0.0,0.0,0.0,0.0,0.0,0.0,0.0,0.0,0.0,0.0,0.0,0.0,0.0,0.0,0.0,0.0,0.0,0.0,0.0,0.0,0.0,0.0,0.0,0.0,0.0,0.0,0.0,0.0,0.0,0.0,0.0,0.0,0.0,0.0,0.0,0.0,0.0,0.0,0.0,0.0,0.0,0.0,0.0,0.0,0.0,0.0,0.0,0.0,0.0,0.0,0.0,0.0,0.0,0.0,0.0,0.0,0.0,0.0,0.0,0.0,0.0,0.0,0.0,0.0,0.0,0.0,0.0,0.0,0.0,0.0,0.0,0.0,0.0,0.0,0.0,0.0,0.0,0.0,0.0,0.0,0.0,0.0,0.0,0.0,0.0,0.0,0.0,0.0,0.0,0.0,0.0,0.0,0.0,0.0,0.0,0.0,0.0,0.0,0.0,0.0,0.0,0.0,-1.2121,-1.2832,-1.2745,-1.1818,-1.096,-0.9691,0.0,0.0,0.0,0.0,0.0,0.0,0.0,0.0,0.0,0.0,0.0,0.0,0.0,0.0,0.0,0.0,0.0,0.0,0.0,0.0,0.0,0.0,0.0,0.0,0.0,0.0,0.0,0.0,0.0,0.0,0.0,0.0,0.0,0.0,0.0,0.0,0.0,0.0,0.0,0.0,0.0,0.0,0.0,0.0,0.0,0.0,0.0,0.0,0.0,0.0,0.0,0.0,0.0,0.0,0.0,0.0,0.0,0.0,0.0,0.0,0.0,0.0,0.0,0.0,0.0,0.0,0.0,0.0,0.0,0.0,0.0,0.0,0.0,0.0,0.0,0.0,0.0,0.0,0.0,0.0,0.0,0.0,0.0,0.0,0.0,0.0,0.0,0.0,0.0,0.0,0.0,0.0,0.0,0.0,0.0,0.0,0.0,0.0,0.0,0.0,0.0,0.0,0.0,0.0,0.0,0.0,0.0,0.0,0.0,-1.2671,-1.3769,-1.3883,-1.2899,-1.161,-1.0293,0.0,0.0,0.0,0.0,0.0,0.0,0.0,0.0,0.0,0.0,0.0,0.0,0.0,0.0,0.0,0.0,0.0,0.0,0.0,0.0,0.0,0.0,0.0,0.0,0.0,0.0,0.0,0.0,0.0,0.0,0.0,0.0,0.0,0.0,0.0,0.0,0.0,0.0,0.0,0.0,0.0,0.0,0.0,0.0,0.0,0.0,0.0,0.0,0.0,0.0,0.0,0.0,0.0,0.0,0.0,0.0,0.0,0.0,0.0,0.0,0.0,0.0,0.0,0.0,0.0,0.0,0.0,0.0,0.0,0.0,0.0,0.0,0.0,0.0,0.0,0.0,0.0,0.0,0.0,0.0,0.0,0.0,0.0,0.0,0.0,0.0,0.0,0.0,0.0,0.0,0.0,0.0,0.0,0.0,0.0,0.0,0.0,0.0,0.0,0.0,0.0,0.0,0.0,0.0,0.0,0.0,0.0,0.0,-1.2394,-1.3688,-1.457,-1.4777,-1.4208,-1.2931,-1.1554,0.0,0.0,0.0,0.0,0.0,0.0,0.0,0.0,0.0,0.0,0.0,0.0,0.0,0.0,0.0,0.0,0.0,0.0,0.0,0.0,0.0,0.0,0.0,0.0,0.0,0.0,0.0,0.0,0.0,0.0,0.0,0.0,0.0,0.0,0.0,0.0,0.0,0.0,0.0,0.0,0.0,0.0,0.0,0.0,0.0,0.0,0.0,0.0,0.0,0.0,0.0,0.0,0.0,0.0,0.0,0.0,0.0,0.0,0.0,0.0,0.0,0.0,0.0,0.0,0.0,0.0,0.0,0.0,0.0,0.0,0.0,0.0,0.0,0.0,0.0,0.0,0.0,0.0,0.0,0.0,0.0,0.0,0.0,0.0,0.0,0.0,0.0,0.0,0.0,0.0,0.0,0.0,0.0,0.0,0.0,0.0,0.0,0.0,0.0,0.0,0.0,0.0,0.0,0.0,0.0,0.0,0.0,0.0,-1.306,-1.4736,-1.5195,-1.543,-1.542,-1.4349,-1.2913,0.0,0.0,0.0,0.0,0.0,0.0,0.0,0.0,0.0,0.0,0.0,0.0,0.0,0.0,0.0,0.0,0.0,0.0,0.0,0.0,0.0,0.0,0.0,0.0,0.0,0.0,0.0,0.0,0.0,0.0,0.0,0.0,0.0,0.0,0.0,0.0,0.0,0.0,0.0,0.0,0.0,0.0,0.0,0.0,0.0,0.0,0.0,0.0,0.0,0.0,0.0,0.0,0.0,0.0,0.0,0.0,0.0,0.0,0.0,0.0,0.0,0.0,0.0,0.0,0.0,0.0,0.0,0.0,0.0,0.0,0.0,0.0,0.0,0.0,0.0,0.0,0.0,0.0,0.0,0.0,0.0,0.0,0.0,0.0,0.0,0.0,0.0,0.0,0.0,0.0,0.0,0.0,0.0,0.0,0.0,0.0,0.0,0.0,0.0,0.0,0.0,0.0,0.0,0.0,0.0,0.0,0.0,0.0,-1.3679,-1.4607,-1.5138,-1.5576,-1.5938,-1.4307,-1.2742,0.0,0.0,0.0,0.0,0.0,0.0,0.0,0.0,0.0,0.0,0.0,0.0,0.0,0.0,0.0,0.0,0.0,0.0,0.0,0.0,0.0,0.0,0.0,0.0,0.0,0.0,0.0,0.0,0.0,0.0,0.0,0.0,0.0,0.0,0.0,0.0,0.0,0.0,0.0,0.0,0.0,0.0,0.0,0.0,0.0,0.0,0.0,0.0,-0.7556,0.0,0.0,0.0,0.0,0.0,0.0,0.0,0.0,0.0,0.0,0.0,0.0,0.0,0.0,0.0,0.0,0.0,0.0,0.0,0.0,0.0,0.0,0.0,0.0,0.0,0.0,0.0,0.0,0.0,0.0,0.0,0.0,0.0,0.0,0.0,0.0,0.0,0.0,0.0,0.0,0.0,0.0,0.0,0.0,0.0,0.0,0.0,0.0,0.0,0.0,0.0,0.0,0.0,0.0,0.0,0.0,0.0,0.0,0.0,-1.3917,-1.4944,-1.5264,-1.5566,-1.5875,-1.4434,-1.309,0.0,0.0,0.0,0.0,0.0,0.0,0.0,0.0,0.0,0.0,0.0,0.0,0.0,0.0,0.0,0.0,0.0,0.0,0.0,0.0,0.0,0.0,0.0,0.0,0.0,0.0,0.0,0.0,0.0,0.0,0.0,0.0,0.0,0.0,0.0,0.0,0.0,0.0,0.0,0.0,0.0,0.0,0.0,0.0,0.0,0.0,0.0,0.0,0.0,0.0,0.0,0.0,0.0,0.0,0.0,0.0,0.0,0.0,0.0,0.0,0.0,0.0,0.0,0.0,0.0,0.0,0.0,0.0,0.0,0.0,0.0,0.0,0.0,0.0,0.0,0.0,0.0,0.0,0.0,0.0,0.0,0.0,0.0,0.0,0.0,0.0,0.0,0.0,0.0,0.0,0.0,0.0,0.0,0.0,0.0,0.0,0.0,0.0,0.0,0.0,0.0,0.0,0.0,0.0,0.0,0.0,0.0,-1.2609,-1.4026,-1.5391,-1.542,-1.5536,-1.5771,-1.4628,-1.3522,-1.2486,0.0,0.0,0.0,0.0,0.0,0.0,0.0,0.0,0.0,0.0,0.0,0.0,0.0,0.0,0.0,0.0,0.0,0.0,0.0,0.0,0.0,0.0,0.0,0.0,0.0,0.0,0.0,0.0,0.0,0.0,0.0,0.0,0.0,0.0,0.0,0.0,0.0,0.0,-0.7452,-0.8945,0.0,0.0,0.0,0.0,0.0,0.0,0.0,0.0,-0.9574,0.0,0.0,0.0,0.0,0.0,0.0,0.0,0.0,0.0,0.0,0.0,0.0,0.0,0.0,0.0,0.0,0.0,0.0,0.0,0.0,0.0,0.0,0.0,0.0,0.0,0.0,0.0,0.0,0.0,0.0,0.0,0.0,0.0,0.0,0.0,0.0,0.0,0.0,0.0,0.0,0.0,0.0,0.0,0.0,0.0,0.0,0.0,0.0,0.0,0.0,0.0,0.0,0.0,0.0,0.0,0.0,-1.2532,-1.3182,-1.4198,-1.5697,-1.5517,-1.5536,-1.5752,-1.4628,-1.3489,-1.2363,0.0,0.0,0.0,0.0,0.0,0.0,0.0,0.0,0.0,0.0,0.0,0.0,0.0,0.0,0.0,0.0,0.0,0.0,0.0,0.0,0.0,0.0,0.0,0.0,0.0,0.0,0.0,0.0,0.0,0.0,0.0,0.0,0.0,0.0,0.0,0.0,0.0,0.0,0.0,-1.095,-1.1757,0.0,0.0,0.0,0.0,0.0,0.0,0.0,0.0,-0.9435,0.0,0.0,0.0,0.0,0.0,0.0,0.0,0.0,0.0,0.0,0.0,0.0,0.0,0.0,0.0,0.0,0.0,0.0,0.0,0.0,0.0,0.0,0.0,0.0,0.0,0.0,0.0,0.0,0.0,0.0,0.0,0.0,0.0,0.0,0.0,0.0,0.0,0.0,0.0,0.0,0.0,0.0,0.0,0.0,0.0,0.0,0.0,0.0,0.0,0.0,0.0,0.0,0.0,0.0,0.0,-1.242,-1.3317,-1.4344,-1.5555,-1.5459,-1.543,-1.5435,-1.4007,-1.2938,0.0,0.0,0.0,0.0,0.0,0.0,0.0,0.0,0.0,0.0,0.0,0.0,0.0,0.0,0.0,0.0,0.0,0.0,0.0,0.0,0.0,0.0,0.0,0.0,0.0,0.0,0.0,0.0,0.0,0.0,0.0,0.0,0.0,0.0,0.0,0.0,0.0,0.0,0.0,0.0,-1.1759,-1.2429,-1.2666,0.0,0.0,0.0,0.0,0.0,0.0,-1.1335,-1.0691,0.0,0.0,0.0,0.0,0.0,0.0,0.0,0.0,0.0,0.0,0.0,0.0,0.0,0.0,0.0,0.0,0.0,0.0,0.0,0.0,0.0,0.0,0.0,0.0,0.0,0.0,0.0,0.0,0.0,0.0,0.0,0.0,0.0,0.0,0.0,0.0,0.0,0.0,0.0,0.0,0.0,0.0,0.0,0.0,0.0,0.0,0.0,0.0,0.0,0.0,0.0,0.0,0.0,0.0,0.0,-1.2175,-1.3295,-1.4345,-1.5274,-1.5352,-1.5313,-1.5128,-1.3618,-1.2613,0.0,0.0,0.0,0.0,0.0,0.0,0.0,0.0,0.0,0.0,0.0,0.0,0.0,0.0,0.0,0.0,0.0,0.0,0.0,0.0,0.0,0.0,0.0,0.0,0.0,0.0,0.0,0.0,0.0,0.0,0.0,0.0,0.0,0.0,0.0,0.0,0.0,0.0,0.0,0.0,0.0,-1.3123,-1.3574,-1.2931,0.0,0.0,0.0,0.0,-1.3096,-1.2586,0.0,0.0,0.0,0.0,0.0,0.0,0.0,0.0,0.0,0.0,0.0,0.0,0.0,0.0,0.0,0.0,0.0,0.0,0.0,0.0,0.0,0.0,0.0,0.0,0.0,0.0,0.0,0.0,0.0,0.0,0.0,0.0,0.0,0.0,0.0,0.0,0.0,0.0,0.0,0.0,0.0,0.0,0.0,0.0,0.0,0.0,0.0,0.0,0.0,0.0,0.0,0.0,0.0,0.0,0.0,0.0,-1.2411,-1.3058,-1.3911,-1.4982,-1.5156,-1.5156,-1.502,-1.4264,-1.3176,0.0,0.0,0.0,0.0,0.0,0.0,0.0,0.0,0.0,0.0,0.0,0.0,0.0,0.0,0.0,0.0,0.0,0.0,0.0,0.0,0.0,0.0,0.0,0.0,0.0,0.0,0.0,0.0,0.0,0.0,0.0,0.0,0.0,0.0,0.0,0.0,0.0,0.0,0.0,0.0,0.0,-1.4657,-1.3365,-1.3332,-1.3452,0.0,0.0,0.0,-1.4096,-1.3409,0.0,0.0,0.0,0.0,0.0,0.0,0.0,0.0,0.0,0.0,0.0,0.0,0.0,0.0,0.0,0.0,0.0,0.0,0.0,0.0,0.0,0.0,0.0,0.0,0.0,0.0,0.0,0.0,0.0,0.0,0.0,0.0,0.0,0.0,0.0,0.0,0.0,0.0,0.0,0.0,0.0,0.0,0.0,0.0,0.0,0.0,0.0,0.0,0.0,0.0,0.0,0.0,0.0,0.0,0.0,-1.045,-1.2444,-1.3218,-1.4103,-1.5167,-1.5284,-1.5139,-1.4783,-1.3719,-1.2592,0.0,0.0,0.0,0.0,0.0,0.0,0.0,0.0,0.0,0.0,0.0,0.0,0.0,0.0,0.0,0.0,0.0,0.0,0.0,0.0,0.0,0.0,0.0,0.0,0.0,0.0,0.0,0.0,0.0,0.0,0.0,0.0,0.0,0.0,0.0,0.0,0.0,0.0,0.0,0.0,0.0,0.0,-1.4481,-1.4327,0.0,0.0,0.0,-1.4032,-1.4705,0.0,0.0,0.0,0.0,0.0,0.0,0.0,0.0,0.0,0.0,0.0,0.0,0.0,0.0,0.0,0.0,0.0,0.0,0.0,0.0,0.0,0.0,0.0,0.0,0.0,0.0,0.0,0.0,0.0,0.0,0.0,0.0,0.0,0.0,0.0,0.0,0.0,0.0,0.0,0.0,0.0,0.0,0.0,0.0,0.0,0.0,0.0,0.0,0.0,0.0,0.0,0.0,0.0,0.0,0.0,0.0,0.0,-1.2477,-1.3389,-1.4312,-1.5235,-1.5332,-1.51,-1.4608,-1.3487,0.0,0.0,0.0,0.0,0.0,0.0,0.0,0.0,0.0,0.0,0.0,0.0,0.0,0.0,0.0,0.0,0.0,0.0,0.0,0.0,0.0,0.0,0.0,0.0,0.0,0.0,0.0,-0.5454,0.0,0.0,0.0,0.0,0.0,0.0,0.0,0.0,0.0,0.0,0.0,0.0,0.0,0.0,-1.4568,-1.524,-1.5101,-1.4957,0.0,0.0,-1.4836,-1.5084,-1.4854,-1.4393,0.0,0.0,0.0,0.0,0.0,0.0,0.0,0.0,0.0,0.0,0.0,0.0,0.0,0.0,0.0,0.0,0.0,0.0,0.0,0.0,0.0,0.0,0.0,0.0,0.0,0.0,0.0,0.0,0.0,0.0,0.0,0.0,0.0,0.0,0.0,0.0,0.0,0.0,0.0,0.0,0.0,0.0,0.0,0.0,0.0,0.0,0.0,0.0,0.0,0.0,0.0,0.0,0.0,0.0,0.0,-1.255,-1.3458,-1.4247,-1.5001,-1.5156,-1.4994,-1.4617,-1.4154,-1.2912,0.0,0.0,0.0,0.0,0.0,0.0,0.0,0.0,0.0,0.0,0.0,0.0,0.0,0.0,0.0,0.0,0.0,0.0,0.0,0.0,0.0,0.0,0.0,0.0,0.0,0.0,0.0,0.0,0.0,0.0,0.0,0.0,0.0,0.0,0.0,0.0,0.0,0.0,0.0,0.0,0.0,-1.4883,-1.4934,-1.5227,-1.5444,0.0,0.0,-1.5389,-1.53,-1.5266,-1.4873,-1.3774,0.0,0.0,0.0,0.0,0.0,0.0,0.0,0.0,0.0,0.0,0.0,0.0,0.0,0.0,0.0,0.0,0.0,0.0,0.0,0.0,0.0,0.0,0.0,0.0,0.0,0.0,0.0,0.0,0.0,0.0,0.0,0.0,0.0,0.0,0.0,0.0,0.0,0.0,0.0,0.0,0.0,0.0,0.0,0.0,0.0,0.0,0.0,0.0,0.0,0.0,0.0,0.0,0.0,-1.0511,-1.2638,-1.3406,-1.422,-1.5089,-1.5156,-1.4955,-1.4468,-1.4167,-1.3086,0.0,0.0,0.0,0.0,0.0,0.0,0.0,0.0,0.0,0.0,0.0,0.0,0.0,0.0,0.0,0.0,0.0,0.0,0.0,0.0,0.0,0.0,0.0,0.0,0.0,0.0,0.0,0.0,-0.5879,-0.6142,-0.6357,0.0,0.0,0.0,0.0,0.0,0.0,0.0,0.0,0.0,0.0,-1.5547,-1.579,-1.6335,0.0,0.0,-1.6444,-1.6268,-1.5858,-1.5718,-1.5314,-1.4268,-1.3946,0.0,0.0,0.0,0.0,0.0,0.0,0.0,0.0,0.0,0.0,0.0,0.0,0.0,0.0,0.0,0.0,0.0,0.0,0.0,0.0,0.0,0.0,0.0,0.0,0.0,0.0,0.0,0.0,0.0,0.0,0.0,0.0,0.0,0.0,0.0,0.0,0.0,0.0,0.0,0.0,0.0,0.0,0.0,0.0,0.0,0.0,0.0,0.0,0.0,0.0,0.0,0.0,-1.0511,-1.274,-1.3441,-1.4247,-1.5235,-1.5264,-1.5013,-1.4477,-1.4139,-1.3135,0.0,0.0,0.0,0.0,0.0,0.0,0.0,0.0,0.0,0.0,0.0,0.0,0.0,0.0,0.0,0.0,0.0,0.0,0.0,0.0,0.0,0.0,0.0,0.0,0.0,0.0,0.0,0.0,-0.6227,-0.639,-0.6319,0.0,0.0,0.0,0.0,0.0,0.0,0.0,0.0,0.0,0.0,-1.5962,-1.6383,-1.7003,-1.7339,-1.7216,-1.7025,-1.6716,-1.6256,-1.6067,-1.5614,-1.4599,0.0,0.0,0.0,0.0,0.0,0.0,0.0,0.0,0.0,0.0,0.0,0.0,0.0,0.0,0.0,0.0,0.0,0.0,0.0,0.0,0.0,0.0,0.0,0.0,0.0,0.0,0.0,0.0,0.0,0.0,-0.5352,0.0,0.0,0.0,0.0,0.0,0.0,0.0,0.0,0.0,0.0,0.0,0.0,0.0,0.0,0.0,0.0,0.0,0.0,0.0,0.0,0.0,0.0,0.0,-1.2861,-1.3636,-1.446,-1.5352,-1.5381,-1.5128,-1.4608,-1.4103,-1.3176,-1.1808,0.0,0.0,0.0,0.0,0.0,0.0,0.0,0.0,0.0,0.0,0.0,0.0,0.0,0.0,0.0,0.0,0.0,0.0,0.0,0.0,0.0,0.0,0.0,0.0,0.0,0.0,-0.574,-0.6369,-0.6675,0.0,0.0,0.0,0.0,0.0,0.0,0.0,0.0,0.0,0.0,-1.5175,-1.6008,-1.6536,-1.7063,-1.7435,-1.7423,-1.6967,-1.6573,-1.6456,-1.6315,-1.5823,0.0,0.0,0.0,0.0,0.0,0.0,0.0,0.0,0.0,0.0,0.0,0.0,0.0,0.0,0.0,0.0,0.0,0.0,0.0,0.0,0.0,0.0,0.0,0.0,0.0,0.0,0.0,-0.6995,-0.6888,0.0,0.0,0.0,0.0,0.0,0.0,0.0,0.0,0.0,0.0,0.0,-1.2648,-1.3317,0.0,0.0,0.0,0.0,0.0,0.0,0.0,0.0,0.0,0.0,0.0,0.0,-1.1677,-1.3252,-1.4034,-1.4685,-1.5245,-1.5254,-1.5167,-1.4984,-1.4357,-1.3221,-1.1586,0.0,0.0,0.0,0.0,0.0,0.0,0.0,0.0,0.0,0.0,0.0,0.0,0.0,0.0,0.0,0.0,0.0,0.0,0.0,0.0,0.0,0.0,0.0,0.0,0.0,-0.6494,0.0,0.0,0.0,0.0,0.0,0.0,0.0,0.0,0.0,0.0,0.0,-1.4626,-1.5692,-1.6738,-1.7472,-1.7627,-1.8121,-1.847,0.0,0.0,0.0,0.0,0.0,0.0,0.0,0.0,0.0,0.0,0.0,0.0,0.0,0.0,-1.4583,-1.2605,-1.2094,-1.2054,-1.2318,0.0,0.0,0.0,0.0,0.0,0.0,0.0,0.0,0.0,0.0,0.0,0.0,0.0,0.0,-0.8083,0.0,-0.7852,0.0,0.0,0.0,0.0,0.0,0.0,0.0,0.0,-1.329,-1.4012,-1.4449,-1.5115,-1.5047,0.0,-1.4344,-1.3065,0.0,0.0,0.0,0.0,0.0,0.0,0.0,0.0,-1.2307,-1.3461,-1.4192,-1.4773,-1.5235,-1.5244,-1.5205,-1.5167,-1.4396,-1.3195,-1.1559,-1.097,-1.0189,0.0,0.0,0.0,0.0,0.0,0.0,0.0,0.0,0.0,0.0,0.0,0.0,0.0,0.0,0.0,0.0,0.0,0.0,0.0,0.0,0.0,0.0,0.0,-0.7238,0.0,0.0,0.0,0.0,0.0,0.0,0.0,0.0,0.0,-1.3997,-1.4914,-1.5948,-1.7015,-1.776,-1.8265,-1.8446,0.0,0.0,0.0,0.0,0.0,0.0,0.0,-1.7753,-1.7301,-1.7075,-1.6956,-1.6822,-1.6872,-1.6897,-1.6822,0.0,0.0,-1.4176,-1.3526,-1.3426,-1.39,-1.3955,-1.4038,-1.4362,-1.4775,-1.505,0.0,0.0,0.0,0.0,0.0,0.0,0.0,0.0,-0.9304,-0.9284,0.0,-0.9018,0.0,0.0,0.0,0.0,0.0,0.0,0.0,0.0,-1.5448,-1.6015,-1.5692,-1.6072,-1.6043,-1.5692,-1.6024,-1.5642,-1.4501,-1.2165,0.0,0.0,0.0,0.0,0.0,0.0,-1.2551,-1.3529,-1.4131,-1.4744,-1.5371,-1.5264,-1.5196,-1.5138,-1.4201,-1.3098,-1.1827,-1.1851,-1.1315,-1.0014,-0.9241,0.0,0.0,0.0,0.0,0.0,0.0,0.0,0.0,0.0,0.0,0.0,0.0,0.0,0.0,0.0,0.0,0.0,0.0,0.0,0.0,-0.7648,0.0,0.0,0.0,0.0,0.0,0.0,0.0,0.0,0.0,0.0,-1.5241,-1.6044,-1.7063,-1.8121,0.0,0.0,0.0,0.0,-1.9239,-1.976,-1.9411,-1.9227,-1.9748,-1.967,-1.9229,-1.8253,0.0,0.0,-1.7429,-1.7201,-1.7175,-1.7228,-1.7225,-1.7041,-1.6685,-1.5798,-1.5499,-1.6463,-1.5951,-1.5788,-1.6762,-1.6906,-1.6883,-1.2407,0.0,0.0,0.0,0.0,-1.0951,-1.1362,-1.2333,-1.1407,-1.1099,-1.1233,-1.0796,0.0,0.0,0.0,0.0,0.0,0.0,-1.473,-1.5449,-1.6224,-1.6657,-1.6883,-1.73,-1.7247,-1.6893,-1.6999,-1.6575,-1.5664,-1.4923,-1.3603,-1.1697,0.0,0.0,0.0,0.0,-1.3815,-1.4414,-1.4876,-1.5206,-1.541,-1.5362,-1.5041,-1.4449,-1.4133,-1.3474,-1.2469,-1.2455,-1.2014,-1.1013,-1.0164,0.0,0.0,0.0,0.0,0.0,0.0,0.0,0.0,0.0,0.0,0.0,0.0,0.0,0.0,0.0,0.0,0.0,0.0,0.0,-0.8669,-0.8958,-0.9355,0.0,0.0,0.0,0.0,0.0,0.0,0.0,0.0,0.0,-1.7832,-1.8121,-1.8566,0.0,0.0,-1.9829,-1.9615,-1.9889,-2.0213,-2.0346,0.0,0.0,0.0,-2.0033,-1.9733,-1.9722,-1.9293,-1.8896,-1.8802,-1.8369,-1.8058,-1.8154,-1.8166,-1.8151,-1.8002,-1.7242,-1.6787,-1.7121,-1.6907,-1.6764,-1.7085,-1.7192,-1.7156,-1.4535,-1.3375,-1.2745,-1.2586,-1.2717,-1.2347,-1.2705,-1.3516,-1.2731,-1.2742,-1.3293,-1.2834,-1.2704,-1.2827,-1.3421,0.0,0.0,0.0,-1.6436,-1.7109,-1.7539,-1.7891,-1.8135,-1.8223,-1.8135,-1.7881,-1.7715,-1.7353,-1.6836,-1.6701,-1.5723,-1.4026,0.0,0.0,-1.349,-1.4065,-1.46,-1.5019,-1.5206,-1.5332,-1.542,-1.542,-1.4972,-1.4099,-1.4077,-1.3662,-1.2739,-1.2749,-1.2517,-1.1935,-1.1132,-1.0157,0.0,0.0,0.0,0.0,0.0,0.0,0.0,0.0,0.0,0.0,0.0,-0.6826,-0.6301,0.0,0.0,0.0,-0.783,-0.8796,-1.0327,-1.0834,0.0,0.0,0.0,0.0,0.0,0.0,0.0,-1.6967,-1.8313,-1.9275,-1.9576,-1.9805,-2.0069,-2.0382,-2.0538,-2.0574,-2.047,0.0,-2.0694,-2.0899,-2.0911,-2.1,-2.1205,-2.0976,-2.075,-2.077,-2.0167,-1.9656,-1.9539,-1.9215,-1.8927,-1.8807,-1.8747,-1.8747,-1.8706,-1.8251,-1.7924,-1.7936,-1.7718,-1.7622,-1.7851,-1.7911,-1.7875,-1.6228,-1.5818,-1.4348,-1.3623,-1.3409,-1.3636,-1.3682,-1.3589,-1.3529,-1.4132,-1.5142,-1.485,-1.5393,-1.6621,-1.6666,0.0,0.0,-1.7726,-1.8301,-1.8666,-1.9102,-1.9277,-1.9258,-1.8877,-1.8627,-1.8588,-1.8217,-1.8037,-1.7978,-1.7617,-1.7236,-1.6785,-1.5605,-1.5146,-1.543,-1.5117,-1.5127,-1.5488,-1.5361,-1.5322,-1.542,-1.542,-1.4953,-1.4019,-1.406,-1.3653,-1.2783,-1.2832,-1.2832,-1.2696,-1.2025,-1.1209,-1.0233,0.0,0.0,0.0,0.0,0.0,0.0,0.0,0.0,0.0,0.0,0.0,0.0,0.0,0.0,0.0,-1.0011,0.0,-1.1993,-1.2987,0.0,0.0,0.0,-1.5624,-1.6739,-1.7736,-1.853,-1.9059,0.0,0.0,0.0,0.0,-2.1476,-2.1464,-2.1014,-2.087,-2.1344,-2.1031,-2.0923,-2.1392,-2.1464,-2.1632,-2.2005,-2.2065,-2.1909,-2.1524,-2.1031,-2.0457,-2.0081,-1.9821,-1.9633,-1.9249,-1.9131,-1.9066,-1.8908,-1.8967,-1.902,-1.8815,-1.8396,-1.8231,-1.8768,-1.8876,-1.8744,-1.6602,-1.6279,-1.5883,-1.5367,-1.4834,-1.4379,-1.4444,-1.4887,-1.4495,-1.4551,-1.4961,-1.4682,-1.5393,-1.6852,-1.687,-1.7532,-1.866,-1.89,-1.9043,-1.9131,-1.9238,-1.9277,-1.9277,-1.918,-1.8919,-1.8607,-1.85,-1.8286,-1.8018,-1.791,-1.7812,-1.7676,-1.707,-1.6515,-1.5968,-1.6143,-1.6287,-1.6385,-1.6054,-1.5722,-1.543,-1.542,-1.4981,-1.4107,-1.4043,-1.3662,-1.2871,-1.2783,-1.2783,-1.2847,-1.234,-1.1804,-1.1194,-0.9594,0.0,0.0,0.0,0.0,0.0,0.0,0.0,0.0,0.0,-1.0061,-0.8926,0.0,-1.1404,0.0,-1.1179,-1.2114,-1.3577,-1.3963,0.0,0.0,-1.6751,-1.7424,-1.8867,-1.9251,-1.9612,-2.0165,-2.0803,-2.1211,-2.1211,-2.1668,-2.2005,-2.2005,-2.1897,-2.1716,-2.1464,-2.1668,-2.1861,-2.1969,-2.1981,-2.2041,-2.2161,-2.2197,-2.2161,-2.2029,-2.147,-2.1033,-2.1014,-2.0497,-2.0101,-2.0185,-2.0117,-1.9945,-1.9617,-1.9588,-1.9432,-1.9042,-1.8759,-1.8684,-1.8936,-1.8946,-1.883,-1.696,-1.6784,-1.6645,-1.6382,-1.6038,-1.5461,-1.5467,-1.5826,-1.5523,-1.5614,-1.5947,-1.6405,-1.7117,-1.797,-1.8346,-1.9042,-1.9853,-1.9853,-1.9891,-1.9891,-1.9891,-1.9891,-1.9891,-1.9658,-1.9443,-1.9163,-1.8978,-1.8711,-1.8276,-1.8256,-1.8193,-1.8008,-1.7773,-1.7412,-1.6975,-1.6797,-1.6794,-1.7012,-1.6418,-1.5977,-1.5743,-1.5508,-1.4972,-1.4153,-1.406,-1.3698,-1.2944,-1.2832,-1.2832,-1.2905,-1.2646,-1.2291,-1.182,-1.0566,-0.9551,0.0,0.0,0.0,0.0,0.0,0.0,0.0,0.0,0.0,0.0,0.0,-1.2839,0.0,-1.3203,0.0,-1.5883,-1.6266,-1.7051,-1.8662,-1.8816,-1.9275,-2.0394,-2.0531,-2.0718,-2.1247,-2.1572,-2.1753,-2.1765,-2.2005,-2.2197,-2.2197,-2.2197,-2.2077,-2.1849,-2.2029,-2.2197,-2.2197,-2.2197,-2.2197,-2.2197,-2.2197,-2.2197,-2.2173,-2.1884,-2.1608,-2.144,-2.1045,-2.0711,-2.0617,-2.0541,-2.0399,-2.0129,-2.0125,-2.0005,-1.9725,-1.9422,-1.9195,-1.9035,-1.8946,-1.8919,-1.7286,-1.7304,-1.7033,-1.6954,-1.6939,-1.6608,-1.6492,-1.6411,-1.6411,-1.67,-1.7291,-1.8504,-1.9149,-1.9341,-2.0089,-2.0479,-2.0615,-2.0615,-2.0615,-2.0615,-2.0615,-2.0615,-2.0595,-2.0176,-1.9971,-1.9902,-1.9541,-1.915,-1.8685,-1.8637,-1.8412,-1.8105,-1.8037,-1.8008,-1.7978,-1.7233,-1.7061,-1.7406,-1.6652,-1.6202,-1.6085,-1.5693,-1.5059,-1.4172,-1.4114,-1.3714,-1.2954,-1.2881,-1.2881,-1.2915,-1.2915,-1.2715,-1.2301,-1.1453,-1.0811,0.0,-0.9609,0.0,0.0,0.0,0.0,0.0,0.0,0.0,0.0,-1.3755,-1.4213,-1.4742,-1.5596,-1.6739,-1.8265,-1.8819,-1.9528,-2.0545,-2.0689,-2.0894,-2.1416,-2.1512,-2.168,-2.2149,-2.2197,-2.2197,-2.2173,-2.2197,-2.2197,-2.2197,-2.2197,-2.2173,-2.2185,-2.2185,-2.2197,-2.2197,-2.2197,-2.2197,-2.2197,-2.2197,-2.2197,-2.2197,-2.2173,-2.2029,-2.1596,-2.1524,-2.1356,-2.0942,-2.0899,-2.0768,-2.0573,-2.0608,-2.0625,-2.0423,-2.0109,-1.972,-1.929,-1.9047,-1.9013,-1.7286,-1.7326,-1.726,-1.7238,-1.723,-1.7172,-1.685,-1.6411,-1.6411,-1.67,-1.7223,-1.7495,-1.8247,-1.9271,-1.946,-1.9932,-2.0615,-2.0615,-2.0615,-2.0615,-2.0615,-2.0615,-2.0605,-2.0517,-2.0254,-1.9922,-1.9824,-1.958,-1.915,-1.8773,-1.8559,-1.8471,-1.8174,-1.8008,-1.7998,0.0,0.0,0.0,-1.7217,-1.6819,-1.6124,-1.6016,-1.539,-1.4163,-1.406,0.0,-1.2939,-1.2798,-1.2783,-1.2881,-1.2915,0.0,0.0,0.0,0.0,0.0,0.0,0.0,0.0,0.0,0.0,0.0,-1.3843,-1.4271,-1.4157,-1.5667,-1.6884,-1.7412,-1.764,-1.8229,-1.9399,-1.9591,-2.0069,-2.1103,-2.123,-2.1464,-2.1969,-2.2041,-2.2101,-2.2173,-2.2197,-2.2197,-2.2209,-2.2197,-2.2209,-2.2258,-2.2197,-2.2197,-2.2221,-2.2221,-2.2197,-2.2197,-2.2197,-2.2197,-2.2197,-2.2197,-2.2197,-2.2197,-2.2197,-2.2149,-2.2041,-2.2017,-2.2029,-2.1849,-2.1909,-2.1728,-2.1302,-2.1247,-2.1098,-2.0649,-2.0514,-2.029,-1.9732,-1.9314,-1.9013,-1.7286,0.0,-1.7286,-1.7286,0.0,-1.7286,-1.7143,-1.6843,-1.6843,-1.719,-1.7818,-1.854,-1.9129,-1.9635,-2.0045,-2.0378,-2.0615,-2.0615,-2.0615,-2.0615,-2.0615,-2.0615,-2.0615,-2.0615,-2.0488,-2.0234,-2.0244,-2.001,-1.96,-1.9329,-1.9017,-1.8598,-1.8393,-1.8178,-1.8018,-1.8008,-1.791,-1.7695,-1.749,-1.7126,-1.6614,-1.6197,-1.5536,-1.4674,0.0,0.0,0.0,0.0,0.0,0.0,0.0,0.0,0.0,0.0,0.0,-1.2207,-1.2164,-1.2178,-1.2207,-1.2588,-1.3263,-1.4217,-1.5534,-1.6181,-1.5857,-1.7277,-1.8301,-1.8578,-1.9071,-1.972,-2.0478,-2.0586,-2.0911,-2.168,-2.1801,-2.1909,-2.2137,-2.2197,-2.2197,-2.2197,-2.2197,-2.227,-2.2546,-2.2614,-2.2702,-2.2963,-2.2999,-2.2955,-2.2939,-2.251,-2.2197,-2.2197,-2.2197,-2.2197,-2.2197,-2.2197,-2.2197,-2.2197,-2.2197,-2.2197,-2.2197,-2.2197,-2.2197,-2.2197,-2.2197,-2.2089,-2.1885,-2.1789,-2.1716,-2.144,-2.1163,-2.0894,-2.0488,-1.9881,-1.9399,-1.7286,-1.7286,-1.7286,-1.7286,-1.7286,-1.7286,-1.7286,-1.7286,0.0,0.0,0.0,-1.9618,-2.0078,-1.9947,-2.0647,-2.0827,-2.0615,-2.0615,-2.0615,-2.0615,-2.0615,-2.0615,-2.0615,-2.0615,-2.0615,-2.0615,-2.0615,-2.0429,-2.0029,-1.9951,-1.9524,-1.887,-1.8685,-1.8393,-1.8037,-1.8008,-1.8008,-1.7988,-1.7676,-1.7385,-1.7147,-1.6449,-1.5813,-1.5254,-1.4754,-1.4199,-1.3627,-1.352,-1.332,-1.3125,-1.313,-1.3096,-1.314,-1.3428,-1.3623,-1.3633,-1.3909,-1.4114,-1.4114,-1.4182,-1.4603,-1.5484,-1.6897,-1.7763,-1.7832,-1.8626,-1.9215,-1.9396,-2.0237,-2.0959,-2.1488,-2.1548,-2.1716,-2.2149,-2.2197,-2.2185,-2.2197,-2.2197,-2.2234,-2.2306,-2.2366,-2.2534,-2.3039,-2.3111,-2.33,-2.3685,-2.371,-2.3806,-2.3685,-2.2975,-2.233,-2.2221,-2.2197,-2.2197,-2.2197,-2.2197,-2.2197,-2.2197,-2.2197,-2.2197,-2.2197,-2.2197,-2.2197,-2.2197,-2.2197,-2.2185,-2.2185,-2.2149,-2.2197,-2.2197,-2.1849,-2.1476,-2.1272,-2.0638,-2.0081,-1.7286,-1.7286,-1.7286,-1.7286,-1.7286,-1.7286,-1.7286,-1.7286,-1.7286,-1.7643,-1.8234,-1.8447,-1.9015,-1.9816,-1.9947,-2.0219,-2.0576,-2.0615,-2.0615,0.0,-2.0615,-2.0615,-2.0615,-2.0615,-2.0615,-2.0615,-2.0615,-2.0566,-2.0478,-2.0098,-1.9834,-1.9648,-1.8968,-1.8403,-1.8047,-1.8008,-1.8008,-1.8008,-1.7959,-1.7744,-1.736,-1.7233,-1.6599,-1.543,-1.5303,-1.4856,-1.4038,-1.4,-1.3961,-1.3929,-1.3929,-1.3929,-1.3938,-1.3977,-1.4016,-1.4026,-1.4075,-1.4114,-1.4124,-1.4473,-1.5535,-1.7377,-1.8278,-1.8915,-1.9401,-1.9603,-2.0085,-2.0935,-2.1187,-2.1512,-2.2005,-2.2065,-2.2077,-2.2185,-2.2197,-2.2197,-2.2197,-2.2221,-2.2378,-2.2806,-2.2903,-2.3095,-2.3577,-2.3697,-2.3722,-2.3806,-2.3962,-2.3842,-2.377,-2.3288,-2.2746,-2.2318,-2.2197,-2.2197,-2.2246,-2.2197,-2.2197,-2.2197,-2.2197,-2.2197,-2.2197,-2.2197,-2.2197,-2.2197,-2.2197,-2.2197,-2.2197,-2.2197,-2.2197,-2.2185,-2.2065,-2.1998,-2.1944,-2.1464,-2.0919,-1.7286,-1.7286,-1.7286,-1.7286,-1.7286,-1.7286,-1.7286,-1.7286,-1.7286,-1.7748,-1.8565,-1.9048,-1.9419,-1.9692,-1.9985,-2.0131,-2.0184,-2.0468,-2.0615,-2.0615,-2.0615,-2.0615,-2.0615,-2.0615,-2.0615,-2.0615,-2.0615,-2.0615,-2.0586,-2.0361,-2.0146,-1.9873,-1.9026,-1.85,-1.8315,-1.8125,-1.8008,-1.8008,-1.8008,-1.7876,-1.7571,-1.7348,-1.6834,-1.599,-1.5657,-1.5187,-1.4521,-1.441,-1.4293,-1.4114,-1.4114,-1.4114,-1.4114,-1.4328,-1.4492,-1.4492,-1.4679,-1.4796,-1.4824,-1.554,-1.6415,-1.7384,-1.8232,-1.8921,-1.9488,-2.0229,-2.0875,-2.1368,-2.1644,-2.1921,-2.2173,-2.2197,-2.2197,-2.2197,-2.2197,-2.2197,-2.2234,-2.2474,-2.2727,-2.2999,-2.3264,-2.3637,-2.4109,-2.4169,-2.4314,-2.4518,-2.459,-2.4506,-2.423,-2.3989,-2.364,-2.3192,-2.2811,-2.2642,-2.2606,-2.2385,-2.2221,-2.2197,-2.2197,-2.2197,-2.2197,-2.2197,-2.2197,-2.2197,-2.2197,-2.2197,-2.2197,-2.2197,-2.2197,-2.2197,-2.2197,-2.2154,-2.2013,-2.1766,-2.1258,-1.7279,-1.7239,-1.7286,-1.7286,-1.7286,-1.7286,-1.7286,-1.7286,-1.7286,-1.7738,-1.8519,-1.9239,-1.9532,-1.9675,-2.0032,-2.0243,-2.0313,-2.0591,-2.0723,-2.0703,-2.0654,-2.0615,-2.0615,-2.0615,-2.0615,-2.0615,-2.0615,-2.0615,-2.0615,-2.0615,-2.038,-1.9893,-1.9212,-1.8792,-1.8598,-1.8276,-1.8105,-1.8018,-1.8008,-1.793,-1.7774,-1.7465,-1.7098,-1.6642,-1.6134,-1.5619,-1.5127,-1.4895,-1.4654,-1.4426,-1.4387,-1.4397,-1.4406,-1.4736,-1.4922,-1.4951,-1.5234,-1.5459,-1.5606,-1.6516,-1.7212,-1.7346,-1.8157,-1.8964,-1.9693,-2.0684,-2.1318,-2.1408,-2.1853,-2.2185,-2.2166,-2.203,-2.1999,-2.2154,-2.2018,-2.1894,-2.1972,-2.242,-2.2704,-2.2725,-2.3273,-2.3885,-2.4302,-2.4583,-2.4843,-2.5168,-2.5312,-2.5119,-2.4748,-2.4664,-2.4506,-2.4133,-2.3613,-2.3228,-2.3156,-2.2758,-2.2438,-2.2378,-2.2289,-2.2209,-2.2197,-2.2197,-2.2197,-2.2197,-2.2197,-2.2197,-2.2197,-2.2197,-2.2197,-2.2197,-2.2197,-2.2154,-2.2018,-2.1925,-2.1587,-1.72,-1.7066,-1.7192,-1.7286,-1.7286,-1.7286,-1.7286,-1.7286,-1.7286,-1.7326,-1.7512,-1.7552,-1.8369,-1.9489,-1.965,-2.0377,-2.1498,-2.1286,-2.1122,-2.1073,-2.0742,-2.0615,-2.0615,-2.0615,-2.0615,-2.0615,-2.0615,-2.0615,-2.0615,-2.0615,-2.0342,-1.9961,-1.9834,-1.9394,-1.8705,-1.8568,-1.8354,-1.8018,-1.8008,-1.7998,-1.7974,-1.7935,-1.772,-1.7324,-1.6831,-1.6414,-1.5968,-1.5557,-1.5303,-1.5274,-1.5273,-1.5254,-1.5283,-1.5332,-1.5352,-1.5352,-1.541,-1.5576,-1.6037,-1.6981,-1.7709,-1.8237,-1.8775,-1.9601,-2.0647,-2.098,-2.1129,-2.1181,-2.1753,-2.2123,-2.2123,-2.16,-2.1463,-2.1894,-2.1561,-2.1198,-2.1302,-2.1615,-2.1854,-2.1648,-2.2764,-2.3617,-2.4045,-2.4602,-2.5145,-2.5288,-2.5312,-2.5276,-2.518,-2.5143,-2.5143,-2.4963,-2.4384,-2.3818,-2.3685,-2.3256,-2.2963,-2.2859,-2.2498,-2.2294,-2.2234,-2.2197,-2.2197,-2.2197,-2.2154,-2.2154,-2.2166,-2.2197,-2.2154,-2.2104,-2.2135,-2.2197,-2.2166,-2.2135,-2.188,-1.6817,-1.6784,-1.6864,-1.6958,-1.7106,-1.7239,-1.7286,-1.7286,-1.7286,-1.7286,-1.7286,-1.7286,-1.7663,-1.8292,-1.9165,-1.9948,-2.0549,-2.1002,-2.12,-2.1151,-2.0771,-2.0615,-2.0615,-2.0615,-2.0615,-2.0615,-2.0615,-2.0615,-2.0615,-2.0615,-2.0517,-2.0321,-2.0049,-1.9689,-1.9375,-1.8851,-1.851,-1.8354,-1.81,-1.8008,-1.8008,-1.8008,-1.7803,-1.7455,-1.7207,-1.6914,-1.6475,-1.6035,-1.5791,-1.5811,-1.5547,-1.542,-1.542,-1.542,-1.5527,-1.5781,-1.6015,-1.6239,-1.6445,-1.711,-1.7566,-1.7778,-1.8248,-1.8769,-1.9212,-1.9628,-1.9857,-1.9987,-2.0869,-2.14,-2.1019,-2.0677,-2.0656,-2.0894,-2.0871,-2.0874,-2.0874,-2.1564,-2.2002,-2.1988,-2.2609,-2.3229,-2.3517,-2.412,-2.4743,-2.5158,-2.5276,-2.5276,-2.5276,-2.5312,-2.5312,-2.5264,-2.4915,-2.4566,-2.4254,-2.3818,-2.3421,-2.3083,-2.2855,-2.2618,-2.227,-2.2197,-2.2197,-2.2197,-2.2092,-2.203,-2.1987,-2.1937,-2.1917,-2.1917,-2.1917,-2.1949,-2.203,-2.203,-2.1968,-1.6541,-1.6494,-1.6541,-1.6777,-1.7026,-1.7059,-1.7185,-1.7286,-1.7239,-1.7239,-1.7286,-1.7286,-1.7286,-1.7522,-1.9015,-1.9882,-2.0281,-2.1146,-2.1473,-2.1337,-2.0957,-2.0732,-2.0625,-2.0615,-2.0615,-2.0615,-2.0615,-2.0615,-2.0615,-2.0615,-2.0615,-2.0556,-2.0254,-2.0029,-1.9853,-1.9124,-1.8715,-1.8568,-1.8223,-1.8008,-1.8008,-1.8008,-1.7861,-1.7578,-1.7441,-1.7227,-1.6924,-1.6484,-1.6281,-1.6271,-1.5937,-1.5742,-1.5771,-1.5771,-1.5918,-1.623,-1.667,-1.6872,-1.6872,-1.7314,-1.7592,-1.7578,-1.7852,-1.8066,-1.8313,-1.8832,-1.9163,-1.9318,-2.0226,-2.0676,-2.0369,-2.0214,-2.0223,-2.0411,-2.0614,-2.0617,-2.066,-2.1378,-2.1746,-2.1653,-2.2351,-2.3217,-2.3621,-2.4156,-2.4707,-2.4862,-2.4945,-2.4969,-2.4981,-2.4933,-2.5016,-2.5229,-2.53,-2.5143,-2.4748,-2.4302,-2.3821,-2.3484,-2.3268,-2.2843,-2.2438,-2.2323,-2.2092,-2.203,-2.1937,-2.1874,-2.1843,-2.1761,-2.1698,-2.171,-2.1698,-2.173,-2.1843,-2.1843,-2.1769,-1.6447,-1.6265,-1.6494,-1.673,-1.6979,-1.673,-1.6857,-1.7239,-1.7113,-1.7106,-1.7286,-1.7286,-1.7286,-1.7419,-1.9236,-2.0657,-2.1505,-2.2021,-2.2146,-2.1826,-2.1387,-2.0967,-2.0625,-2.0615,-2.0615,-2.0615,-2.0615,-2.0615,-2.0615,-2.0615,-2.0615,-2.0605,-2.0556,-2.0322,-1.9951,-1.9492,-1.9053,-1.8646,-1.8237,-1.8018,-1.8008,-1.8008,-1.7998,-1.792,-1.7598,-1.7425,-1.7314,-1.6911,-1.6677,-1.6668,-1.6609,-1.6599,-1.6609,-1.6619,-1.6638,-1.6707,-1.7119,-1.7353,-1.7402,-1.7725,-1.7949,-1.7969,-1.7969,-1.8236,-1.8707,-1.9162,-1.9445,-1.9617,-1.9996,-2.0348,-2.0507,-2.0275,-2.046,-2.0946,-2.0646,-2.0369,-2.0343,-2.0777,-2.0693,-2.0581,-2.1722,-2.3121,-2.4719,-2.5229,-2.4671,-2.4301,-2.4156,-2.4156,-2.4192,-2.4192,-2.4528,-2.5016,-2.5241,-2.53,-2.5216,-2.4843,-2.453,-2.4112,-2.3544,-2.2991,-2.2735,-2.2468,-2.2166,-2.1894,-2.1781,-2.1718,-2.1686,-2.1698,-2.1667,-2.1635,-2.1635,-2.1655,-2.1686,-2.1698,-2.1655,-1.6015,-1.5974,-1.6218,-1.6407,-1.6508,-1.6595,-1.6723,-1.6864,-1.6972,-1.7026,-1.7113,-1.7239,-1.7286,-1.7372,-1.8696,-1.9832,-2.0747,-2.1326,-2.1817,-2.2123,-2.1531,-2.1103,-2.0996,-2.0752,-2.0615,-2.0615,-2.0615,-2.0615,-2.0615,-2.0615,-2.0615,-2.0615,-2.0615,-2.0517,-2.0321,-1.9902,-1.9482,-1.9053,-1.8633,-1.8256,-1.8047,-1.8008,-1.8008,-1.7998,-1.7871,-1.7716,-1.7596,-1.7298,-1.7148,-1.7148,-1.6863,-1.6697,-1.6726,-1.7002,-1.7148,-1.7187,-1.7549,-1.7783,-1.7803,-1.792,-1.8008,-1.8008,-1.8008,-1.8086,-1.8323,-1.852,-1.871,-1.9029,-1.9427,-1.9781,-2.0014,-1.9855,-1.9775,-1.9985,-2.0062,-2.0075,-2.0118,-2.0464,-2.0629,-2.0543,-2.1123,-2.1869,-2.292,-2.3095,-2.3158,-2.3353,-2.339,-2.3427,-2.35,-2.3756,-2.4228,-2.4516,-2.4981,-2.5312,-2.5312,-2.5192,-2.488,-2.439,-2.3874,-2.3257,-2.2858,-2.2289,-2.1899,-2.1792,-2.1655,-2.1517,-2.1517,-2.1454,-2.1466,-2.1434,-2.1434,-2.1486,-2.1506,-2.1517,-2.1486,-1.5825,-1.5832,-1.5974,-1.613,-1.6224,-1.6305,-1.644,-1.6581,-1.669,-1.6791,-1.6878,-1.7005,-1.7099,-1.7286,-1.7932,-1.8788,-1.9807,-2.0784,-2.1714,-2.2376,-2.1873,-2.1463,-2.1171,-2.0928,-2.0703,-2.0625,-2.0615,-2.0615,-2.0615,-2.0615,-2.0615,-2.0615,-2.0615,-2.0615,-2.0537,-2.0137,-1.9756,-1.9434,-1.89,-1.8451,-1.8198,-1.8076,-1.7974,-1.794,-1.7896,-1.7828,-1.7696,-1.7523,-1.7455,-1.744,-1.7187,-1.7074,-1.7145,-1.7422,-1.7588,-1.7617,-1.7852,-1.8008,-1.8008,-1.8008,-1.8008,-1.8008,-1.8018,-1.8057,-1.8149,-1.834,-1.8588,-1.9023,-1.9443,-1.9834,-1.998,-1.9873,-1.9697,-1.9727,-1.9961,-2.0117,-2.0137,-2.0419,-2.0721,-2.0952,-2.1078,-2.1423,-2.1983,-2.2209,-2.2397,-2.2649,-2.2809,-2.2995,-2.3095,-2.361,-2.4228,-2.4492,-2.4969,-2.5241,-2.5276,-2.5181,-2.518,-2.4749,-2.4179,-2.3563,-2.2998,-2.2339,-2.1823,-2.1706,-2.1561,-2.1411,-2.1305,-2.1253,-2.1221,-2.1201,-2.1265,-2.1316,-2.1316,-2.1336,-2.121,-1.5825,-1.5825,-1.5825,-1.5974,-1.6123,-1.5981,-1.6109,-1.6447,-1.6319,-1.6407,-1.6588,-1.6636,-1.6777,-1.6979,-1.7106,-1.7699,-1.901,-2.0522,-2.1685,-2.2364,-2.2418,-2.197,-2.1367,-2.119,-2.0937,-2.0625,-2.0615,-2.0615,-2.0615,-2.0615,-2.0615,-2.0615,-2.0615,-2.0615,-2.0595,-2.0185,-1.9941,-1.9727,-1.9085,-1.8676,-1.8549,-1.8237,-1.7998,-1.7788,-1.7735,-1.7672,-1.7681,-1.7569,-1.7541,-1.7634,-1.7648,-1.7799,-1.7867,-1.7939,-1.7978,-1.7959,-1.8008,-1.8008,-1.8008,-1.8008,-1.8008,-1.8008,-1.8008,-1.8139,-1.849,-1.8887,-1.9277,-1.9727,-2.0127,-2.0507,-2.0527,-2.0507,-2.0478,-2.0576,-2.0517,-2.0527,-2.0566,-2.0586,-2.0857,-2.1423,-2.1499,-2.2059,-2.266,-2.2499,-2.2199,-2.1907,-2.2322,-2.2771,-2.2809,-2.3463,-2.4384,-2.4909,-2.517,-2.5276,-2.5253,-2.5218,-2.5206,-2.5098,-2.448,-2.3878,-2.3382,-2.281,-2.2043,-2.1769,-2.1438,-2.1308,-2.1253,-2.1233,-2.1233,-2.1201,-2.1201,-2.1244,-2.1221,-2.1221,-2.0955,-1.5825,-1.5825,-1.5825,-1.5832,-1.5927,-1.5825,-1.5927,-1.6062,-1.6123,-1.6265,-1.6359,-1.6494,-1.6629,-1.673,-1.673,-1.7271,-1.8272,-1.9139,-2.0316,-2.1748,-2.2303,-2.234,-2.1999,-2.1473,-2.1006,-2.0674,-2.0615,-2.0615,-2.0615,-2.0615,-2.0615,-2.0615,-2.0615,-2.0615,-2.0605,-2.0458,-2.0244,-1.9912,-1.9631,-1.9394,-1.9082,-1.8627,-1.8352,-1.8148,-1.7795,-1.7486,-1.7373,-1.7461,-1.7495,-1.7554,-1.7647,-1.7784,-1.794,-1.8008,-1.8008,-1.8008,-1.8008,-1.8008,-1.8008,-1.8008,-1.8008,-1.8008,-1.8008,-1.8213,-1.8529,-1.8754,-1.9209,-1.9795,-2.0059,-2.0215,-2.0527,-2.0615,-2.0605,-2.0615,-2.0615,-2.0615,-2.0566,-2.0566,-2.0644,-2.0722,-2.075,-2.0905,-2.1049,-2.1078,-2.0924,-2.0779,-2.1308,-2.1832,-2.2021,-2.3132,-2.3852,-2.4166,-2.4635,-2.5182,-2.5087,-2.5016,-2.5052,-2.4957,-2.4519,-2.413,-2.3705,-2.3136,-2.241,-2.1918,-2.1564,-2.1394,-2.1316,-2.1328,-2.1408,-2.1305,-2.1305,-2.1282,-2.1224,-2.1197,-2.113,-1.5825,-1.5825,-1.5825,-1.5825,-1.5825,-1.5825,-1.5825,-1.5832,-1.5974,-1.6028,-1.6069,-1.6211,-1.6353,-1.6447,-1.6447,-1.6817,-1.749,-1.8002,-1.9001,-2.0432,-2.1729,-2.2279,-2.2376,-2.1816,-2.124,-2.0889,-2.081,-2.0723,-2.0615,-2.0615,-2.0615,-2.0615,-2.0615,-2.0615,-2.0615,-2.0605,-2.04,-2.0166,-1.999,-1.9785,-1.9492,-1.9102,-1.8702,-1.8379,-1.7945,-1.7587,-1.7263,-1.7245,-1.7323,-1.7392,-1.7545,-1.7725,-1.7862,-1.7896,-1.793,-1.7974,-1.8008,-1.8008,-1.8008,-1.8008,-1.8008,-1.8027,-1.8154,-1.8437,-1.8773,-1.8939,-1.9453,-2.001,-2.0185,-2.0273,-2.0546,-2.0527,-2.0489,-2.0489,-2.0566,-2.0576,-2.0527,-2.0489,-2.045,-2.0381,-2.0264,-2.0225,-2.0225,-2.0059,-1.9902,-2.002,-2.0624,-2.1375,-2.1756,-2.2872,-2.3423,-2.3959,-2.4622,-2.4921,-2.4861,-2.4825,-2.4849,-2.4696,-2.4436,-2.4179,-2.3873,-2.3328,-2.2661,-2.2396,-2.2075,-2.2052,-2.2017,-2.196,-2.196,-2.1742,-2.1558,-2.1696,-2.1778,-2.188,-2.1805,-1.5825,-1.5825,-1.5825,-1.5825,-1.5825,-1.5825,-1.5825,-1.5825,-1.5825,-1.5832,-1.5832,-1.5872,-1.5974,-1.6123,-1.617,-1.6359,-1.6676,-1.7404,-1.7948,-1.8818,-2.0352,-2.1676,-2.2068,-2.1955,-2.165,-2.119,-2.1142,-2.0967,-2.0625,-2.0615,-2.0615,-2.0615,-2.0615,-2.0615,-2.0615,-2.0615,-2.0595,-2.0498,-2.0156,-1.998,-1.9894,-1.9494,-1.9025,-1.8507,-1.8223,-1.7828,-1.7325,-1.7075,-1.7038,-1.721,-1.7382,-1.7554,-1.7681,-1.7716,-1.7784,-1.7974,-1.8008,-1.8008,-1.8008,-1.7964,-1.7974,-1.7993,-1.83,-1.8783,-1.9088,-1.9457,-1.9904,-2.0343,-2.0459,-2.0489,-2.0479,-2.0372,-2.0255,-2.0303,-2.0372,-2.042,-2.0264,-2.0264,-2.0225,-2.0186,-2.0069,-1.9942,-2.0147,-1.9981,-1.9863,-1.9942,-2.0498,-2.1221,-2.1897,-2.2686,-2.3706,-2.4202,-2.4478,-2.4718,-2.4646,-2.4682,-2.467,-2.4527,-2.4362,-2.4271,-2.4038,-2.3514,-2.2972,-2.2731,-2.2627,-2.2673,-2.2592,-2.2443,-2.2316,-2.2099,-2.2099,-2.2283,-2.234,-2.2362,-2.2339,-1.5825,-1.5825,-1.5825,-1.5825,-1.5825,-1.5825,-1.5825,-1.5825,-1.5825,-1.5825,-1.5825,-1.5825,-1.5832,-1.5886,-1.5927,-1.5967,-1.6157,-1.6487,-1.7131,-1.7956,-1.9293,-2.0473,-2.1275,-2.2001,-2.1963,-2.1327,-2.1268,-2.1006,-2.0635,-2.0605,-2.0625,-2.0615,-2.0566,-2.0576,-2.0615,-2.0605,-2.0615,-2.0605,-2.0517,-2.0304,-2.012,-1.9753,-1.9306,-1.8882,-1.8507,-1.8043,-1.7464,-1.709,-1.7012,-1.7166,-1.7235,-1.7407,-1.7638,-1.7681,-1.775,-1.794,-1.7974,-1.8008,-1.7974,-1.7881,-1.7803,-1.7823,-1.8311,-1.8598,-1.8837,-1.9482,-1.9907,-2.011,-2.0255,-2.0303,-2.0137,-2.002,-1.9981,-2.0029,-2.0059,-2.002,-1.9863,-1.9912,-1.9951,-1.9803,-1.9715,-1.9754,-1.9754,-1.9627,-1.9508,-1.9618,-2.0109,-2.0837,-2.1517,-2.2387,-2.3364,-2.3692,-2.397,-2.4309,-2.449,-2.449,-2.4454,-2.4334,-2.4274,-2.4324,-2.4081,-2.3767,-2.3248,-2.2788,-2.2914,-2.2995,-2.2822,-2.265,-2.2513,-2.2559,-2.2627,-2.2765,-2.2639,-2.2638,-2.2627,-1.5825,-1.5825,-1.5825,-1.5825,-1.5825,-1.5825,-1.5825,-1.5825,-1.5825,-1.5825,-1.5825,-1.5825,-1.5825,-1.5825,-1.5825,-1.5825,-1.5832,-1.5981,-1.6346,-1.699,-1.8195,-1.9751,-2.1339,-2.2375,-2.2295,-2.1846,-2.1717,-2.1426,-2.0957,-2.0761,-2.0713,-2.0557,-2.0411,-2.0381,-2.0459,-2.0489,-2.0411,-2.0372,-2.0381,-2.0372,-2.0109,-1.9869,-1.9478,-1.9069,-1.8751,-1.8388,-1.7825,-1.7541,-1.732,-1.7149,-1.7072,-1.7201,-1.7467,-1.7476,-1.7579,-1.7769,-1.7803,-1.7803,-1.7808,-1.7801,-1.7881,-1.7996,-1.8452,-1.8856,-1.9097,-1.9639,-2.0043,-1.9933,-2.005,-2.002,-1.9942,-1.9824,-1.9745,-1.9666,-1.9657,-1.9636,-1.9597,-1.9715,-1.9715,-1.9597,-1.9518,-1.9518,-1.9557,-1.9429,-1.9301,-1.9371,-1.9648,-2.0382,-2.1116,-2.2096,-2.292,-2.3313,-2.3714,-2.4127,-2.4309,-2.4309,-2.42,-2.4116,-2.4225,-2.4273,-2.4169,-2.3973,-2.3731,-2.3362,-2.3328,-2.327,-2.319,-2.3144,-2.3201,-2.3236,-2.3236,-2.3167,-2.3087,-2.3087,-2.3087,-1.5825,-1.5825,-1.5825,-1.5825,-1.5825,-1.5825,-1.5825,-1.5825,-1.5825,-1.5825,-1.5825,-1.5825,-1.5825,-1.5825,-1.5825,-1.5825,-1.5825,-1.5832,-1.5974,-1.6574,-1.7638,-1.9472,-2.1871,-2.2215,-2.2327,-2.2229,-2.2395,-2.1819,-2.1186,-2.0891,-2.0719,-2.0468,-2.0108,-2.0069,-2.0225,-2.0255,-2.0137,-2.002,-2.0147,-2.0108,-1.9942,-1.9806,-1.9539,-1.9132,-1.8926,-1.8655,-1.8284,-1.8027,-1.777,-1.7073,-1.7,-1.7102,-1.7257,-1.722,-1.7398,-1.7612,-1.7738,-1.7777,-1.7723,-1.8036,-1.8107,-1.8256,-1.8964,-1.9421,-1.9316,-1.9754,-2.0051,-1.9775,-1.9863,-1.9824,-1.9784,-1.9636,-1.9508,-1.942,-1.9341,-1.939,-1.9518,-1.9557,-1.9557,-1.9557,-1.9429,-1.9429,-1.9439,-1.9429,-1.9292,-1.9292,-1.949,-1.9883,-2.0537,-2.1221,-2.2274,-2.3239,-2.3629,-2.4018,-2.408,-2.408,-2.397,-2.3897,-2.4116,-2.4236,-2.4236,-2.4145,-2.4143,-2.4039,-2.3798,-2.3787,-2.3902,-2.389,-2.3821,-2.3787,-2.3695,-2.3672,-2.3625,-2.3707,-2.3741,-1.5825,-1.5825,-1.5825,-1.5825,-1.5825,-1.5825,-1.5825,-1.5825,-1.5825,-1.5825,-1.5825,-1.5825,-1.5825,-1.5825,-1.5825,-1.5825,-1.5825,-1.5872,-1.615,-1.7091,-1.8056,-1.9376,-2.0917,-2.123,-2.1616,-2.1877,-2.1964,-2.1516,-2.0957,-2.0735,-2.0448,-2.0106,-2.0,-1.9942,-1.9981,-1.999,-1.9981,-1.9902,-1.999,-1.9872,-1.9715,-1.9676,-1.9541,-1.9236,-1.8957,-1.8744,-1.855,-1.8246,-1.8036,-1.7825,-1.7559,-1.7374,-1.7346,-1.7521,-1.7731,-1.7948,-1.822,-1.8381,-1.8392,-1.8338,-1.8312,-1.8405,-1.8845,-1.9041,-1.8896,-1.9559,-1.9756,-1.9587,-1.9557,-1.9597,-1.9499,-1.9381,-1.9341,-1.9292,-1.9292,-1.9341,-1.935,-1.939,-1.9381,-1.9381,-1.935,-1.9341,-1.939,-1.9341,-1.9292,-1.9292,-1.9371,-1.949,-1.9991,-2.0605,-2.1565,-2.2708,-2.3054,-2.3372,-2.3751,-2.3703,-2.3482,-2.3335,-2.3545,-2.374,-2.374,-2.3886,-2.3776,-2.3959,-2.4154,-2.4189,-2.4189,-2.4189,-2.3992,-2.4074,-2.3977,-2.3752,-2.3621,-2.3936,-2.3801,-1.5825,-1.5825,-1.5825,-1.5825,-1.5825,-1.5825,-1.5825,-1.5825,-1.5825,-1.5825,-1.5825,-1.5825,-1.5825,-1.5825,-1.5825,-1.5825,-1.5825,-1.5825,-1.6062,-1.6574,-1.7178,-1.7956,-1.9001,-1.9824,-2.0569,-2.1805,-2.2119,-2.1722,-2.1235,-2.0834,-2.0589,-2.0195,-1.9839,-1.9676,-1.9754,-1.9754,-1.9706,-1.9618,-1.9706,-1.9676,-1.9478,-1.9478,-1.9429,-1.9332,-1.91,-1.899,-1.8962,-1.8815,-1.8595,-1.8403,-1.8183,-1.7917,-1.7676,-1.7814,-1.7998,-1.8109,-1.8266,-1.8425,-1.8397,-1.8518,-1.8535,-1.8544,-1.8991,-1.9081,-1.9095,-1.9494,-1.9569,-1.9429,-1.939,-1.9381,-1.9292,-1.9292,-1.9292,-1.9292,-1.9292,-1.9292,-1.9292,-1.9292,-1.9292,-1.9292,-1.9292,-1.9292,-1.9292,-1.9292,-1.9292,-1.9292,-1.9292,-1.946,-2.0079,-2.0653,-2.1078,-2.1842,-2.222,-2.2644,-2.3261,-2.3261,-2.2916,-2.2681,-2.2558,-2.267,-2.2718,-2.2979,-2.3239,-2.3545,-2.3886,-2.4189,-2.4189,-2.42,-2.3897,-2.3607,-2.3401,-2.3398,-2.3213,-2.2942,-2.2745,-1.5825,-1.5825,-1.5825,-1.5825,-1.5825,-1.5825,-1.5825,-1.5825,-1.5825,-1.5825,-1.5825,-1.5825,-1.5825,-1.5825,-1.5825,-1.5825,-1.5825,-1.5825,-1.592,-1.6015,-1.6393,-1.6951,-1.7777,-1.8918,-2.0195,-2.1935,-2.2129,-2.1911,-2.1526,-2.1137,-2.0619,-2.0336,-1.9694,-1.9439,-1.9557,-1.9557,-1.9469,-1.9381,-1.9469,-1.9508,-1.935,-1.9341,-1.9301,-1.9283,-1.9265,-1.9237,-1.9228,-1.9182,-1.9109,-1.8843,-1.8806,-1.8585,-1.8365,-1.8229,-1.821,-1.8219,-1.8367,-1.8468,-1.8533,-1.868,-1.8806,-1.8815,-1.9208,-1.9432,-1.9371,-1.9402,-1.9429,-1.9381,-1.9292,-1.9292,-1.9292,-1.9292,-1.9292,-1.9292,-1.9292,-1.9292,-1.9292,-1.9292,-1.9292,-1.9292,-1.9292,-1.9292,-1.9292,-1.9292,-1.9292,-1.9292,-1.9292,-1.945,-2.004,-2.043,-2.0731,-2.1039,-2.1423,-2.1576,-2.2069,-2.2681,-2.2333,-2.1956,-2.1728,-2.1869,-2.1956,-2.2295,-2.267,-2.3165,-2.3508,-2.3666,-2.3618,-2.335,-2.3091,-2.2916,-2.2767,-2.2681,-2.2333,-2.1869,-2.1756,-1.5825,-1.5825,-1.5825,-1.5825,-1.5825,-1.5825,-1.5825,-1.5825,-1.5825,-1.5825,-1.5825,-1.5825,-1.5825,-1.5825,-1.5825,-1.5825,-1.5825,-1.5825,-1.5825,-1.5967,-1.6393,-1.7052,-1.7372,-1.8703,-2.0022,-2.0718,-2.1257,-2.1423,-2.1284,-2.0756,-2.0546,-2.0034,-1.958,-1.9387,-1.9396,-1.9341,-1.9341,-1.9292,-1.9341,-1.9341,-1.9292,-1.9292,-1.9292,-1.9292,-1.9292,-1.9292,-1.9292,-1.9292,-1.9265,-1.921,-1.9201,-1.9146,-1.899,-1.8751,-1.8632,-1.866,-1.8843,-1.8944,-1.8999,-1.9091,-1.9191,-1.9219,-1.9304,-1.9332,-1.9301,-1.9341,-1.9341,-1.9341,-1.9292,-1.9292,-1.9292,-1.9292,-1.9292,-1.9292,-1.9292,-1.9292,-1.9292,-1.9292,-1.9292,-1.9292,-1.9292,-1.9292,-1.9292,-1.9292,-1.9292,-1.9292,-1.9292,-1.9292,-1.9569,-1.9805,-1.9962,-2.0313,-2.0653,-2.0731,-2.0847,-2.1489,-2.1718,-2.1193,-2.1029,-2.1413,-2.1527,-2.1756,-2.2096,-2.2134,-2.236,-2.2483,-2.2435,-2.2435,-2.2247,-2.2069,-2.1993,-2.1945,-2.1489,-2.1106,-2.1029,-1.5825,-1.5825,-1.5825,-1.5825,-1.5825,-1.5825,-1.5825,-1.5825,-1.5825,-1.5825,-1.5825,-1.5825,-1.5825,-1.5825,-1.5825,-1.5825,-1.5825,-1.5825,-1.5825,-1.5967,-1.6298,-1.6527,-1.6676,-1.8149,-1.8557,-1.9018,-1.9695,-2.0774,-2.1313,-2.1025,-2.0662,-2.0457,-1.9952,-1.9632,-1.9567,-1.9412,-1.932,-1.9301,-1.9292,-1.9292,-1.9292,-1.9292,-1.9292,-1.9292,-1.9292,-1.9292,-1.9292,-1.9292,-1.9292,-1.9283,-1.9292,-1.9292,-1.9237,-1.9146,-1.9008,-1.9045,-1.9182,-1.9292,-1.9292,-1.9292,-1.9283,-1.9283,-1.9292,-1.9292,-1.9292,-1.9292,-1.9292,-1.9292,-1.9292,-1.9292,-1.9292,-1.9292,-1.9292,-1.9292,-1.9292,-1.9292,-1.9292,-1.9292,-1.9292,-1.9292,-1.9292,-1.9292,-1.9292,-1.9292,-1.9292,-1.9292,-1.9292,-1.9292,-1.9292,-1.9371,-1.9539,-1.9775,-2.0157,-2.0187,-2.0187,-2.0605,-2.0991,-2.0537,-2.0304,-2.0644,-2.0711,-2.075,-2.0605,-2.0489,-2.076,-2.1413,-2.1794,-2.2021,-2.1642,-2.126,-2.1155,-2.1001,-2.0644,-2.0372,-2.0333,-1.5825,-1.5825,-1.5825,-1.5825,-1.5825,-1.5825,-1.5825,-1.5825,-1.5825,-1.5825,-1.5825,-1.5825,-1.5825,-1.5825,-1.5825,-1.5825,-1.5825,-1.5825,-1.5825,-1.5825,-1.5872,-1.5825,-1.6062,-1.6723,-1.7512,-1.7831,-1.8611,-1.9567,-2.0551,-2.0721,-2.0813,-2.0542,-2.0129,-1.9939,-1.982,-1.9582,-1.9439,-1.9301,-1.9292,-1.9292,-1.9292,-1.9292,-1.9292,-1.9292,-1.9292,-1.9292,-1.9292,-1.9292,-1.9292,-1.9292,-1.9292,-1.9292,-1.9292,-1.9292,-1.9292,-1.9292,-1.9292,-1.9292,-1.9292,-1.9292,-1.9292,-1.9292,-1.9292,-1.9292,-1.9292,-1.9292,-1.9292,-1.9292,-1.9292,-1.9292,-1.9292,-1.9292,-1.9292,-1.9292,-1.9292,-1.9292,-1.9292,-1.9292,-1.9292,-1.9292,-1.9292,-1.9292,-1.9292,-1.9292,-1.9292,-1.9292,-1.9292,-1.9292,-1.9292,-1.9292,-1.9411,-1.949,-1.9687,-1.9726,-1.9805,-1.9883,-2.007,-1.9844,-1.9687,-1.9874,-1.9717,-1.9559,-1.949,-1.9678,-2.0109,-2.076,-2.1183,-2.1298,-2.076,-2.0382,-2.0313,-2.0157,-1.9952,-1.9795,-1.9717,-1.5825,-1.5825,-1.5825,-1.5825,-1.5825,-1.5825,-1.5825,-1.5825,-1.5825,-1.5825,-1.5825,-1.5825,-1.5825,-1.5825,-1.5825,-1.5825,-1.5825,-1.5825,-1.5825,-1.5825,-1.5825,-1.5825,-1.5967,-1.6857,-1.7044,-1.7185,-1.8102,-1.8788,-1.941,-1.9764,-1.9964,-1.9983,-2.0373,-2.025,-1.9976,-1.9802,-1.9668,-1.9366,-1.9292,-1.9292,-1.9292,-1.9292,-1.9292,-1.9292,-1.9292,-1.9292,-1.9292,-1.9292,-1.9292,-1.9292,-1.9292,-1.9292,-1.9292,-1.9292,-1.9292,-1.9292,-1.9292,-1.9292,-1.9292,-1.9292,-1.9292,-1.9292,-1.9292,-1.9292,-1.9292,-1.9292,-1.9292,-1.9292,-1.9292,-1.9292,-1.9292,-1.9292,-1.9292,-1.9292,-1.9292,-1.9292,-1.9292,-1.9292,-1.9292,-1.9292,-1.9292,-1.9292,-1.9292,-1.9292,-1.9292,-1.9292,-1.9292,-1.9292,-1.9292,-1.9292,-1.9292,-1.9411,-1.945,-1.949,-1.9529,-1.9608,-1.9529,-1.9341,-1.9292,-1.9292,-1.9292,-1.9292,-1.9292,-1.9529,-1.9874,-1.9952,-2.0148,-2.007,-1.9687,-1.9648,-1.9766,-1.9648,-1.9411,-1.9292,-1.9292,-1.5547,-1.5825,-1.5825,-1.5825,-1.5825,-1.5825,-1.5825,-1.5825,-1.5825,-1.5825,-1.5825,-1.5825,-1.5825,-1.5825,-1.5825,-1.5825,-1.5825,-1.5825,-1.5825,-1.5825,-1.5825,-1.5825,-1.5872,-1.6204,-1.6433,-1.6622,-1.6897,-1.7365,-1.808,-1.9261,-2.0018,-2.0074,-2.0524,-2.0659,-2.0223,-1.9994,-1.9655,-1.9412,-1.9292,-1.9292,-1.9292,-1.9292,-1.9292,-1.9292,-1.9292,-1.9292,-1.9292,-1.9292,-1.9292,-1.9292,-1.9292,-1.9292,-1.9292,-1.9292,-1.9292,-1.9292,-1.9292,-1.9292,-1.9292,-1.9292,-1.9292,-1.9292,-1.9292,-1.9292,-1.9292,-1.9292,-1.9292,-1.9292,-1.9292,-1.9292,-1.9292,-1.9292,-1.9292,-1.9292,-1.9292,-1.9292,-1.9292,-1.9292,-1.9292,-1.9292,-1.9292,-1.9292,-1.9292,-1.9292,-1.9292,-1.9292,-1.9292,-1.9292,-1.9292,-1.9292,-1.9292,-1.9292,-1.9332,-1.9332,-1.9332,-1.9411,-1.945,-1.9292,-1.9292,-1.9292,-1.9292,-1.9292,-1.9292,-1.9292,-1.949,-1.949,-1.9292,-1.9332,-1.945,-1.9371,-1.9292,-1.9292,-1.9292,-1.9292,-1.9292,-1.5322,-1.5642,-1.5689,-1.573,-1.5825,-1.5825,-1.5825,-1.5825,-1.5825,-1.5825,-1.5825,-1.5825,-1.5825,-1.5825,-1.5825,-1.5825,-1.5825,-1.5825,-1.5825,-1.5825,-1.5825,-1.5825,-1.5825,-1.5872,-1.5872,-1.5825,-1.6015,-1.6393,-1.7365,-1.8718,-1.9898,-2.0286,-2.0917,-2.0957,-2.0668,-2.0292,-1.9888,-1.9338,-1.9292,-1.9292,-1.9292,-1.9292,-1.9292,-1.9292,-1.9292,-1.9292,-1.9292,-1.9292,-1.9292,-1.9292,-1.9292,-1.9292,-1.9292,-1.9292,-1.9292,-1.9292,-1.9292,-1.9292,-1.9292,-1.9292,-1.9292,-1.9292,-1.9292,-1.9292,-1.9292,-1.9292,-1.9292,-1.9292,-1.9292,-1.9292,-1.9292,-1.9292,-1.9292,-1.9292,-1.9292,-1.9292,-1.9292,-1.9292,-1.9292,-1.9292,-1.9292,-1.9292,-1.9292,-1.9292,-1.9292,-1.9292,-1.9292,-1.9292,-1.9292,-1.9292,-1.9292,-1.9292,-1.9292,-1.9292,-1.9292,-1.9292,-1.9292,-1.9292,-1.9292,-1.9292,-1.9292,-1.9292,-1.9292,-1.9292,-1.9292,-1.9292,-1.9292,-1.9292,-1.9292,-1.9292,-1.9292,-1.9292,-1.9292,-1.9292,-1.9292,-1.5131,-1.5178,-1.5404,-1.5635,-1.5778,-1.5825,-1.5825,-1.5825,-1.5825,-1.5825,-1.5825,-1.5825,-1.5825,-1.5825,-1.5825,-1.5825,-1.5825,-1.5825,-1.5825,-1.5825,-1.5825,-1.5825,-1.5825,-1.5825,-1.5825,-1.5825,-1.5825,-1.5879,-1.6386,-1.801,-1.9293,-2.0277,-2.1069,-2.1216,-2.1025,-2.0515,-2.0049,-1.9613,-1.9485,-1.9412,-1.9384,-1.9356,-1.9338,-1.9301,-1.9292,-1.9292,-1.9292,-1.9292,-1.9292,-1.9292,-1.9292,-1.9292,-1.9292,-1.9292,-1.9292,-1.9292,-1.9292,-1.9292,-1.9292,-1.9292,-1.9292,-1.9292,-1.9292,-1.9292,-1.9292,-1.9292,-1.9292,-1.9292,-1.9292,-1.9292,-1.9292,-1.9292,-1.9292,-1.9292,-1.9292,-1.9292,-1.9292,-1.9292,-1.9292,-1.9292,-1.9292,-1.9292,-1.9292,-1.9292,-1.9292,-1.9292,-1.9292,-1.9292,-1.9292,-1.9292,-1.9292,-1.9292,-1.9292,-1.9292,-1.9292,-1.9292,-1.9292,-1.9292,-1.9292,-1.9292,-1.9292,-1.9292,-1.9292,-1.9292,-1.9292,-1.9292,-1.9292,-1.9292,-1.9292,-1.9292,-1.9292,-1.9292,-1.9292,-1.9292,-1.9292,-1.4736,-1.4879,-1.4975,-1.5261,-1.5635,-1.573,-1.5825,-1.5825,-1.5825,-1.5825,-1.5825,-1.5825,-1.5825,-1.5825,-1.5825,-1.5825,-1.5825,-1.5825,-1.5825,-1.5825,-1.5825,-1.5825,-1.5825,-1.5825,-1.5825,-1.5825,-1.5825,-1.6251,-1.6904,-1.7645,-1.838,-1.9484,-2.0808,-2.128,-2.1108,-2.0555,-2.0221,-2.009,-1.9957,-1.9912,-1.9664,-1.9628,-1.9567,-1.9311,-1.9292,-1.9292,-1.9292,-1.9292,-1.9292,-1.9292,-1.9292,-1.9292,-1.9292,-1.9292,-1.9292,-1.9292,-1.9292,-1.9292,-1.9292,-1.9292,-1.9292,-1.9292,-1.9292,-1.9292,-1.9292,-1.9292,-1.9292,-1.9292,-1.9292,-1.9292,-1.9292,-1.9292,-1.9292,-1.9292,-1.9292,-1.9292,-1.9292,-1.9292,-1.9292,-1.9292,-1.9292,-1.9292,-1.9292,-1.9292,-1.9292,-1.9292,-1.9292,-1.9292,-1.9292,-1.9292,-1.9292,-1.9292,-1.9292,-1.9292,-1.9292,-1.9292,-1.9292,-1.9292,-1.9292,-1.9292,-1.9292,-1.9292,-1.9292,-1.9292,-1.9292,-1.9292,-1.9292,-1.9292,-1.9292,-1.9292,-1.9292,-1.9292,-1.9292,-1.9292,-1.9292,-1.44,-1.4592,-1.4694,-1.4975,-1.541,-1.5642,-1.5683,-1.5737,-1.5784,-1.5825,-1.5825,-1.5825,-1.5825,-1.5825,-1.5825,-1.5825,-1.5825,-1.5825,-1.5825,-1.5825,-1.5825,-1.5825,-1.5825,-1.5825,-1.5825,-1.5825,-1.5872,-1.6204,-1.6629,-1.7099,-1.7746,-1.8657,-1.9877,-2.0347,-2.0324,-2.0035,-1.9917,-2.0032,-2.0063,-2.021,-1.9994,-1.9912,-1.9793,-1.9494,-1.9393,-1.9292,-1.9292,-1.9292,-1.9292,-1.9292,-1.9292,-1.9292,-1.9292,-1.9292,-1.9292,-1.9292,-1.9292,-1.9292,-1.9292,-1.9292,-1.9292,-1.9292,-1.9292,-1.9292,-1.9292,-1.9292,-1.9292,-1.9292,-1.9292,-1.9292,-1.9292,-1.9292,-1.9292,-1.9292,-1.9292,-1.9292,-1.9292,-1.9292,-1.9292,-1.9292,-1.9292,-1.9292,-1.9292,-1.9292,-1.9292,-1.9292,-1.9292,-1.9292,-1.9292,-1.9292,-1.9292,-1.9292,-1.9292,-1.9292,-1.9292,-1.9292,-1.9292,-1.9292,-1.9292,-1.9292,-1.9292,-1.9292,-1.9292,-1.9292,-1.9292,-1.9292,-1.9292,-1.9292,-1.9292,-1.9292,-1.9292,-1.9292,-1.9292,-1.9292,-1.9292,-1.4298,-1.4346,-1.4592,-1.4838,-1.5124,-1.5404,-1.5493,-1.5499,-1.5689,-1.5737,-1.5737,-1.5784,-1.5778,-1.5778,-1.5778,-1.5825,-1.5825,-1.5825,-1.5825,-1.5825,-1.5825,-1.5825,-1.5825,-1.5825,-1.5825,-1.5825,-1.5825,-1.5872,-1.5967,-1.6676,-1.7185,-1.7458,-1.828,-1.8993,-1.8824,-1.8483,-1.8599,-1.9066,-1.9196,-1.9659,-1.9909,-1.977,-1.9617,-1.9625,-1.9326,-1.9141,-1.939,-1.932,-1.9301,-1.9292,-1.9292,-1.9292,-1.9292,-1.9292,-1.9292,-1.9292,-1.9292,-1.9292,-1.9292,-1.9292,-1.9292,-1.9292,-1.9292,-1.9292,-1.9292,-1.9292,-1.9292,-1.9292,-1.9292,-1.9292,-1.9292,-1.9292,-1.9292,-1.9292,-1.9292,-1.9292,-1.9292,-1.9292,-1.9292,-1.9292,-1.9292,-1.9292,-1.9292,-1.9292,-1.9292,-1.9292,-1.9292,-1.9292,-1.9292,-1.9292,-1.9292,-1.9292,-1.9292,-1.9292,-1.9292,-1.9292,-1.9292,-1.9292,-1.9292,-1.9292,-1.9292,-1.9292,-1.9292,-1.9292,-1.9292,-1.9292,-1.9292,-1.9292,-1.9292,-1.9292,-1.9292,-1.9292,-1.9292,-1.9292,-1.9292,-1.4298,-1.4298,-1.4394,-1.449,-1.464,-1.5022,-1.522,-1.522,-1.5315,-1.5363,-1.5363,-1.5499,-1.5588,-1.5635,-1.573,-1.5784,-1.5778,-1.5825,-1.5825,-1.5784,-1.5784,-1.5825,-1.5778,-1.573,-1.5778,-1.5778,-1.5778,-1.5778,-1.5872,-1.6251,-1.6298,-1.648,-1.685,-1.7591,-1.8442,-1.8645,-1.876,-1.8876,-1.8934,-1.8986,-1.9004,-1.8924,-1.9015,-1.9354,-1.9003,-1.9014,-1.9435,-1.9281,-1.9197,-1.917,-1.917,-1.9253,-1.9253,-1.9253,-1.9292,-1.9292,-1.9292,-1.9292,-1.9292,-1.9292,-1.9292,-1.9292,-1.9292,-1.9292,-1.9292,-1.9292,-1.9292,-1.9292,-1.9292,-1.9292,-1.9292,-1.9292,-1.9292,-1.9292,-1.9292,-1.9292,-1.9292,-1.9292,-1.9292,-1.9292,-1.9292,-1.9292,-1.9292,-1.9292,-1.9292,-1.9292,-1.9292,-1.9292,-1.9292,-1.9292,-1.9292,-1.9292,-1.9292,-1.9292,-1.9292,-1.9292,-1.9292,-1.9292,-1.9292,-1.9292,-1.9292,-1.9292,-1.9292,-1.9292,-1.9292,-1.9292,-1.9292,-1.9292,-1.9292,-1.9292,-1.9292,-1.9292,-1.9292,-1.9292,-1.9292,-1.4298,-1.4298,-1.4298,-1.4298,-1.4394,-1.479,-1.5035,-1.5083,-1.5131,-1.5131,-1.5131,-1.5315,-1.5356,-1.5404,-1.5499,-1.5553,-1.5547,-1.5547,-1.5547,-1.5553,-1.5553,-1.5506,-1.5547,-1.5547,-1.5499,-1.5547,-1.5547,-1.5547,-1.5506,-1.5547,-1.5594,-1.5594,-1.5594,-1.6292,-1.7117,-1.7429,-1.774,-1.7887,-1.808,-1.8362,-1.8409,-1.8438,-1.8455,-1.8553,-1.8496,-1.8465,-1.8882,-1.9003,-1.8892,-1.8825,-1.8954,-1.9082,-1.9024,-1.9103,-1.9213,-1.9292,-1.9292,-1.9292,-1.9292,-1.9292,-1.9292,-1.9292,-1.9292,-1.9292,-1.9292,-1.9292,-1.9292,-1.9292,-1.9292,-1.9292,-1.9292,-1.9292,-1.9292,-1.9292,-1.9292,-1.9292,-1.9292,-1.9292,-1.9292,-1.9292,-1.9292,-1.9292,-1.9292,-1.9292,-1.9292,-1.9292,-1.9292,-1.9292,-1.9292,-1.9292,-1.9292,-1.9292,-1.9292,-1.9292,-1.9292,-1.9292,-1.9292,-1.9292,-1.9292,-1.9292,-1.9292,-1.9292,-1.9292,-1.9292,-1.9292,-1.9292,-1.9292,-1.9292,-1.9292,-1.9292,-1.9292,-1.9292,-1.9292,-1.9292,-1.9292,-1.4298,-1.4298,-1.4298,-1.4298,-1.4346,-1.4592,-1.4838,-1.5035,-1.5035,-1.5035,-1.5035,-1.5035,-1.5077,-1.5077,-1.5124,-1.5172,-1.5178,-1.5178,-1.5178,-1.5178,-1.5226,-1.5178,-1.5178,-1.5172,-1.522,-1.5172,-1.5178,-1.5267,-1.5131,-1.5226,-1.5226,-1.5131,-1.522,-1.5452,-1.5635,-1.5967,-1.6379,-1.6803,-1.703,-1.7368,-1.7596,-1.785,-1.7788,-1.7819,-1.7793,-1.7743,-1.8083,-1.8245,-1.7995,-1.8062,-1.8419,-1.8418,-1.8531,-1.8794,-1.9073,-1.9213,-1.9173,-1.9134,-1.9292,-1.9292,-1.9292,-1.9292,-1.9292,-1.9292,-1.9292,-1.9292,-1.9292,-1.9292,-1.9292,-1.9292,-1.9292,-1.9292,-1.9292,-1.9292,-1.9292,-1.9292,-1.9292,-1.9292,-1.9292,-1.9292,-1.9292,-1.9292,-1.9292,-1.9292,-1.9292,-1.9292,-1.9292,-1.9292,-1.9292,-1.9292,-1.9292,-1.9292,-1.9292,-1.9292,-1.9292,-1.9292,-1.9292,-1.9292,-1.9292,-1.9292,-1.9292,-1.9292,-1.9292,-1.9292,-1.9292,-1.9292,-1.9292,-1.9292,-1.9292,-1.9292,-1.9292,-1.9292,-1.9292,-1.9292,-1.9292,-1.4298,-1.4298,-1.4298,-1.4298,-1.4298,-1.4394,-1.4448,-1.4538,-1.4544,-1.4544,-1.4538,-1.4742,-1.4831,-1.4838,-1.5035,-1.5083,-1.5083,-1.5131,-1.5131,-1.5083,-1.5035,-1.5083,-1.5083,-1.5083,-1.5083,-1.5083,-1.5083,-1.5035,-1.5083,-1.5083,-1.4933,-1.4885,-1.4933,-1.4831,-1.4831,-1.5029,-1.5404,-1.5635,-1.5872,-1.615,-1.6339,-1.6362,-1.6586,-1.6909,-1.6934,-1.7064,-1.7635,-1.7771,-1.7577,-1.7661,-1.7827,-1.7774,-1.7522,-1.7631,-1.7838,-1.8345,-1.8407,-1.8567,-1.9134,-1.9292,-1.9213,-1.9213,-1.9253,-1.9292,-1.9292,-1.9292,-1.9292,-1.9292,-1.9292,-1.9292,-1.9292,-1.9292,-1.9292,-1.9292,-1.9292,-1.9292,-1.9292,-1.9292,-1.9292,-1.9292,-1.9292,-1.9292,-1.9292,-1.9292,-1.9292,-1.9292,-1.9292,-1.9292,-1.9292,-1.9292,-1.9292,-1.9292,-1.9292,-1.9292,-1.9292,-1.9292,-1.9292,-1.9292,-1.9292,-1.9292,-1.9292,-1.9292,-1.9292,-1.9292,-1.9292,-1.9292,-1.9292,-1.9292,-1.9292,-1.9292,-1.9292,-1.9292,-1.9292,-1.9292,-1.9292,-1.4298,-1.4298,-1.4298,-1.4298,-1.4298,-1.4298,-1.4298,-1.4298,-1.4298,-1.4298,-1.4298,-1.4448,-1.4538,-1.4544,-1.4688,-1.4736,-1.4736,-1.4736,-1.4736,-1.4742,-1.4838,-1.4736,-1.4783,-1.479,-1.4736,-1.479,-1.479,-1.4736,-1.479,-1.479,-1.464,-1.4592,-1.4736,-1.4592,-1.4496,-1.464,-1.4742,-1.4885,-1.5029,-1.5083,-1.5083,-1.5083,-1.5642,-1.6021,-1.6004,-1.6565,-1.7104,-1.7094,-1.7137,-1.7024,-1.7082,-1.7313,-1.704,-1.7005,-1.709,-1.7514,-1.7513,-1.7674,-1.8037,-1.8567,-1.8696,-1.8895,-1.9094,-1.9292,-1.9292,-1.9292,-1.9292,-1.9292,-1.9292,-1.9292,-1.9292,-1.9292,-1.9292,-1.9292,-1.9292,-1.9292,-1.9292,-1.9292,-1.9292,-1.9292,-1.9292,-1.9292,-1.9292,-1.9292,-1.9292,-1.9292,-1.9292,-1.9292,-1.9292,-1.9292,-1.9292,-1.9292,-1.9292,-1.9292,-1.9292,-1.9292,-1.9292,-1.9292,-1.9292,-1.9292,-1.9292,-1.9292,-1.9292,-1.9292,-1.9292,-1.9292,-1.9292,-1.9292,-1.9292,-1.9292,-1.9292,-1.9292,-1.9292,-1.9292,-1.9292,-1.4298,-1.4298,-1.4298,-1.4298,-1.4298,-1.4298,-1.4298,-1.4298,-1.4298,-1.4298,-1.4298,-1.4298,-1.4346,-1.4394,-1.4442,-1.4394,-1.4448,-1.4442,-1.4442,-1.4298,-1.44,-1.4442,-1.4394,-1.4346,-1.4448,-1.4346,-1.4346,-1.4448,-1.4346,-1.44,-1.4448,-1.4298,-1.4346,-1.4346,-1.4346,-1.4394,-1.4448,-1.4496,-1.4736,-1.4933,-1.4939,-1.4987,-1.5029,-1.5172,-1.533,-1.5602,-1.5779,-1.6004,-1.6278,-1.6232,-1.6344,-1.684,-1.6616,-1.6404,-1.6519,-1.6692,-1.6639,-1.6821,-1.7229,-1.7836,-1.8078,-1.8407,-1.8776,-1.9173,-1.9292,-1.9292,-1.9292,-1.9292,-1.9292,-1.9292,-1.9292,-1.9292,-1.9292,-1.9292,-1.9292,-1.9292,-1.9292,-1.9292,-1.9292,-1.9292,-1.9292,-1.9292,-1.9292,-1.9292,-1.9292,-1.9292,-1.9292,-1.9292,-1.9301,-1.9301,-1.9301,-1.9301,-1.9292,-1.9292,-1.9292,-1.9292,-1.9292,-1.9292,-1.9292,-1.9292,-1.9292,-1.9292,-1.9292,-1.9292,-1.9292,-1.9292,-1.9292,-1.9292,-1.9292,-1.9292,-1.9292,-1.9292,-1.9292,-1.9292,-1.9292,-1.4298,-1.4298,-1.4298,-1.4298,-1.4298,-1.4298,-1.4298,-1.4298,-1.4298,-1.4298,-1.4298,-1.4298,-1.4298,-1.4298,-1.4298,-1.4298,-1.4298,-1.4298,-1.4298,-1.4298,-1.4298,-1.4298,-1.4298,-1.4298,-1.4298,-1.4298,-1.4298,-1.4298,-1.4298,-1.4298,-1.4298,-1.4298,-1.4298,-1.4298,-1.4298,-1.4298,-1.4298,-1.4298,-1.4448,-1.4592,-1.4592,-1.4544,-1.4538,-1.4736,-1.4927,-1.5166,-1.5365,-1.5623,-1.5799,-1.5873,-1.5986,-1.5968,-1.5657,-1.5364,-1.5505,-1.5815,-1.5853,-1.6031,-1.6657,-1.7302,-1.7796,-1.8238,-1.8687,-1.9094,-1.9292,-1.9292,-1.9292,-1.9253,-1.9292,-1.9292,-1.9292,-1.9292,-1.9292,-1.9292,-1.9292,-1.9292,-1.9292,-1.9292,-1.9292,-1.9253,-1.9253,-1.9289,-1.9298,-1.9308,-1.9292,-1.9292,-1.9292,-1.9301,-1.932,-1.9329,-1.9329,-1.9329,-1.9301,-1.9292,-1.9292,-1.9292,-1.9292,-1.9292,-1.9292,-1.9292,-1.9292,-1.9292,-1.9292,-1.9292,-1.9292,-1.9292,-1.9292,-1.9292,-1.9292,-1.9292,-1.9292,-1.9292,-1.9292,-1.9292,-1.9292,-1.4298,-1.4298,-1.4298,-1.4298,-1.4298,-1.4298,-1.4298,-1.4298,-1.4298,-1.4298,-1.4298,-1.4298,-1.4298,-1.4298,-1.4298,-1.4298,-1.4298,-1.4298,-1.4298,-1.4298,-1.4298,-1.4298,-1.4298,-1.4298,-1.4298,-1.4298,-1.4298,-1.4298,-1.4298,-1.4298,-1.4298,-1.4298,-1.4298,-1.4298,-1.4298,-1.4298,-1.4298,-1.4298,-1.4298,-1.4298,-1.4298,-1.4346,-1.4346,-1.4496,-1.4688,-1.4879,-1.507,-1.5302,-1.554,-1.5683,-1.5785,-1.5725,-1.5449,-1.5149,-1.4984,-1.5017,-1.5099,-1.5186,-1.609,-1.6821,-1.7513,-1.7957,-1.8727,-1.9173,-1.8607,-1.8607,-1.8966,-1.9006,-1.9253,-1.9292,-1.9292,-1.9292,-1.9292,-1.9292,-1.9292,-1.9292,-1.9292,-1.9292,-1.9222,-1.9112,-1.9181,-1.9367,-1.9439,-1.9688,-1.9666,-1.9552,-1.9529,-1.9454,-1.9476,-1.9522,-1.9485,-1.9439,-1.9467,-1.9356,-1.9292,-1.9292,-1.9292,-1.9292,-1.9292,-1.9292,-1.9292,-1.9292,-1.9292,-1.9292,-1.9292,-1.9292,-1.9292,-1.9292,-1.9292,-1.9292,-1.9292,-1.9292,-1.9292,-1.9292,-1.9292,-1.4298,-1.4298,-1.4298,-1.4298,-1.4298,-1.4298,-1.4298,-1.4298,-1.4298,-1.4298,-1.4298,-1.4298,-1.4298,-1.4298,-1.4298,-1.4298,-1.4298,-1.4298,-1.4298,-1.4298,-1.4298,-1.4298,-1.4298,-1.4298,-1.4298,-1.4298,-1.4298,-1.4298,-1.4298,-1.4298,-1.4298,-1.4298,-1.4298,-1.4298,-1.4298,-1.4298,-1.4298,-1.4298,-1.4298,-1.4298,-1.4298,-1.4298,-1.4352,-1.44,-1.449,-1.4646,-1.4831,-1.507,-1.5356,-1.554,-1.5581,-1.5564,-1.5465,-1.5152,-1.491,-1.4825,-1.4534,-1.4733,-1.5257,-1.5966,-1.6739,-1.7513,-1.8487,-1.8607,-1.7957,-1.7957,-1.8278,-1.8536,-1.8776,-1.9134,-1.9134,-1.9173,-1.9173,-1.9201,-1.9201,-1.921,-1.921,-1.9246,-1.9172,-1.9079,-1.9232,-1.9418,-1.9647,-1.9904,-1.9919,-1.9859,-1.9815,-1.9766,-1.9756,-1.9857,-1.9925,-1.9852,-1.9806,-1.965,-1.9384,-1.9421,-1.9457,-1.9292,-1.9292,-1.9292,-1.9292,-1.9292,-1.9292,-1.9292,-1.9292,-1.9292,-1.9292,-1.9292,-1.9292,-1.9292,-1.9292,-1.9292,-1.9292,-1.9292,-1.9292,-1.4298,-1.4298,-1.4298,-1.4298,-1.4298,-1.4298,-1.4298,-1.4298,-1.4298,-1.4298,-1.4298,-1.4298,-1.4298,-1.4298,-1.4298,-1.4298,-1.4298,-1.4298,-1.4298,-1.4298,-1.4298,-1.4298,-1.4298,-1.4298,-1.4298,-1.4298,-1.4298,-1.4298,-1.4298,-1.4298,-1.4298,-1.4298,-1.4298,-1.4298,-1.4298,-1.4298,-1.4298,-1.4298,-1.4298,-1.4298,-1.4298,-1.4298,-1.4298,-1.4346,-1.4346,-1.4496,-1.4682,-1.4783,-1.4981,-1.5172,-1.5397,-1.5447,-1.541,-1.5239,-1.5007,-1.4736,-1.4357,-1.4358,-1.4831,-1.5257,-1.5966,-1.6322,-1.7017,-1.7212,-1.6805,-1.6731,-1.7033,-1.7237,-1.7644,-1.8474,-1.8634,-1.8696,-1.8705,-1.8825,-1.8852,-1.8847,-1.8865,-1.9083,-1.9235,-1.9318,-1.9472,-1.9607,-1.9689,-1.9864,-1.9933,-1.9972,-2.0168,-2.0081,-2.0011,-2.0167,-2.0323,-2.0264,-2.0122,-1.9797,-1.9476,-1.9677,-1.9705,-1.9476,-1.9292,-1.9292,-1.9292,-1.9292,-1.9292,-1.9292,-1.9292,-1.9292,-1.9292,-1.9292,-1.9292,-1.9292,-1.9292,-1.9292,-1.9292,-1.9292,-1.9253]}]]